<?xml version="1.0" encoding="UTF-8" standalone="no" ?>
<gpx xmlns="http://www.topografix.com/GPX/1/1" xmlns:xsi="http://www.w3.org/2001/XMLSchema-instance" xsi:schemaLocation="http://www.topografix.com/GPX/1/1 http://www.topografix.com/GPX/1/1/gpx.xsd" version="1.1" creator="VisuGPX - https://www.visugpx.com">
  <metadata>
    <name>Tour de Vallée Balandrau-Buala-Silhen-Saint Pastous</name>
    <desc><![CDATA[Autour d\'Argeles Gazost (65)]]></desc>
  </metadata>
  <trk>
    <name><![CDATA[tour de vallée balandrau versant sud buala silhen st pastous]]></name>
    <trkseg>
      <trkpt lat="43.0094" lon="-0.10015">
        <ele>469.74</ele>
        <time>2013-10-24T12:37:53Z</time>
      </trkpt>
      <trkpt lat="43.0094" lon="-0.10015">
        <ele>468.3</ele>
        <time>2013-10-24T12:37:55Z</time>
      </trkpt>
      <trkpt lat="43.00936" lon="-0.10026">
        <ele>466.86</ele>
        <time>2013-10-24T12:38:12Z</time>
      </trkpt>
      <trkpt lat="43.00934" lon="-0.10025">
        <ele>463.49</ele>
        <time>2013-10-24T12:38:16Z</time>
      </trkpt>
      <trkpt lat="43.00933" lon="-0.10026">
        <ele>460.13</ele>
        <time>2013-10-24T12:38:19Z</time>
      </trkpt>
      <trkpt lat="43.00933" lon="-0.10026">
        <ele>460.13</ele>
        <time>2013-10-24T12:38:20Z</time>
      </trkpt>
      <trkpt lat="43.00933" lon="-0.10026">
        <ele>456.76</ele>
        <time>2013-10-24T12:38:25Z</time>
      </trkpt>
      <trkpt lat="43.00934" lon="-0.10027">
        <ele>453.4</ele>
        <time>2013-10-24T12:38:31Z</time>
      </trkpt>
      <trkpt lat="43.00932" lon="-0.10031">
        <ele>451.48</ele>
        <time>2013-10-24T12:38:58Z</time>
      </trkpt>
      <trkpt lat="43.00932" lon="-0.1003">
        <ele>451.96</ele>
        <time>2013-10-24T12:39:28Z</time>
      </trkpt>
      <trkpt lat="43.0093" lon="-0.10031">
        <ele>452.44</ele>
        <time>2013-10-24T12:39:50Z</time>
      </trkpt>
      <trkpt lat="43.0093" lon="-0.10032">
        <ele>451.48</ele>
        <time>2013-10-24T12:40:07Z</time>
      </trkpt>
      <trkpt lat="43.0093" lon="-0.10032">
        <ele>453.4</ele>
        <time>2013-10-24T12:40:32Z</time>
      </trkpt>
      <trkpt lat="43.00931" lon="-0.10032">
        <ele>453.88</ele>
        <time>2013-10-24T12:40:57Z</time>
      </trkpt>
      <trkpt lat="43.0093" lon="-0.10034">
        <ele>452.44</ele>
        <time>2013-10-24T12:41:17Z</time>
      </trkpt>
      <trkpt lat="43.0093" lon="-0.10034">
        <ele>451.96</ele>
        <time>2013-10-24T12:41:19Z</time>
      </trkpt>
      <trkpt lat="43.0093" lon="-0.10044">
        <ele>452.44</ele>
        <time>2013-10-24T12:41:27Z</time>
      </trkpt>
      <trkpt lat="43.00934" lon="-0.10049">
        <ele>453.88</ele>
        <time>2013-10-24T12:41:30Z</time>
      </trkpt>
      <trkpt lat="43.00938" lon="-0.10059">
        <ele>455.8</ele>
        <time>2013-10-24T12:41:35Z</time>
      </trkpt>
      <trkpt lat="43.00933" lon="-0.1008">
        <ele>457.72</ele>
        <time>2013-10-24T12:41:45Z</time>
      </trkpt>
      <trkpt lat="43.00933" lon="-0.10097">
        <ele>459.65</ele>
        <time>2013-10-24T12:41:53Z</time>
      </trkpt>
      <trkpt lat="43.00936" lon="-0.10106">
        <ele>462.05</ele>
        <time>2013-10-24T12:41:58Z</time>
      </trkpt>
      <trkpt lat="43.00939" lon="-0.10114">
        <ele>463.49</ele>
        <time>2013-10-24T12:42:03Z</time>
      </trkpt>
      <trkpt lat="43.00943" lon="-0.10117">
        <ele>464.45</ele>
        <time>2013-10-24T12:42:06Z</time>
      </trkpt>
      <trkpt lat="43.00944" lon="-0.10118">
        <ele>464.93</ele>
        <time>2013-10-24T12:42:07Z</time>
      </trkpt>
      <trkpt lat="43.00965" lon="-0.10123">
        <ele>467.34</ele>
        <time>2013-10-24T12:42:21Z</time>
      </trkpt>
      <trkpt lat="43.01001" lon="-0.1012">
        <ele>465.9</ele>
        <time>2013-10-24T12:42:35Z</time>
      </trkpt>
      <trkpt lat="43.01031" lon="-0.10139">
        <ele>465.42</ele>
        <time>2013-10-24T12:42:47Z</time>
      </trkpt>
      <trkpt lat="43.01059" lon="-0.10129">
        <ele>465.42</ele>
        <time>2013-10-24T12:42:56Z</time>
      </trkpt>
      <trkpt lat="43.01062" lon="-0.10129">
        <ele>464.93</ele>
        <time>2013-10-24T12:42:57Z</time>
      </trkpt>
      <trkpt lat="43.01095" lon="-0.10135">
        <ele>464.93</ele>
        <time>2013-10-24T12:43:07Z</time>
      </trkpt>
      <trkpt lat="43.01109" lon="-0.10144">
        <ele>465.42</ele>
        <time>2013-10-24T12:43:12Z</time>
      </trkpt>
      <trkpt lat="43.0113" lon="-0.10152">
        <ele>467.34</ele>
        <time>2013-10-24T12:43:22Z</time>
      </trkpt>
      <trkpt lat="43.01146" lon="-0.10154">
        <ele>469.26</ele>
        <time>2013-10-24T12:43:29Z</time>
      </trkpt>
      <trkpt lat="43.01157" lon="-0.10153">
        <ele>471.66</ele>
        <time>2013-10-24T12:43:36Z</time>
      </trkpt>
      <trkpt lat="43.01171" lon="-0.10158">
        <ele>473.11</ele>
        <time>2013-10-24T12:43:44Z</time>
      </trkpt>
      <trkpt lat="43.0119" lon="-0.1015">
        <ele>475.51</ele>
        <time>2013-10-24T12:43:55Z</time>
      </trkpt>
      <trkpt lat="43.01196" lon="-0.10145">
        <ele>476.47</ele>
        <time>2013-10-24T12:43:59Z</time>
      </trkpt>
      <trkpt lat="43.01203" lon="-0.10139">
        <ele>477.43</ele>
        <time>2013-10-24T12:44:04Z</time>
      </trkpt>
      <trkpt lat="43.01211" lon="-0.10137">
        <ele>479.84</ele>
        <time>2013-10-24T12:44:11Z</time>
      </trkpt>
      <trkpt lat="43.01215" lon="-0.10134">
        <ele>481.28</ele>
        <time>2013-10-24T12:44:15Z</time>
      </trkpt>
      <trkpt lat="43.01225" lon="-0.10134">
        <ele>482.72</ele>
        <time>2013-10-24T12:44:23Z</time>
      </trkpt>
      <trkpt lat="43.01239" lon="-0.10129">
        <ele>484.16</ele>
        <time>2013-10-24T12:44:31Z</time>
      </trkpt>
      <trkpt lat="43.01247" lon="-0.10125">
        <ele>486.56</ele>
        <time>2013-10-24T12:44:37Z</time>
      </trkpt>
      <trkpt lat="43.01249" lon="-0.10121">
        <ele>486.56</ele>
        <time>2013-10-24T12:44:40Z</time>
      </trkpt>
      <trkpt lat="43.01261" lon="-0.10118">
        <ele>487.05</ele>
        <time>2013-10-24T12:44:48Z</time>
      </trkpt>
      <trkpt lat="43.0128" lon="-0.10112">
        <ele>489.93</ele>
        <time>2013-10-24T12:44:59Z</time>
      </trkpt>
      <trkpt lat="43.01281" lon="-0.1011">
        <ele>489.45</ele>
        <time>2013-10-24T12:45:00Z</time>
      </trkpt>
      <trkpt lat="43.01292" lon="-0.10109">
        <ele>492.33</ele>
        <time>2013-10-24T12:45:07Z</time>
      </trkpt>
      <trkpt lat="43.01314" lon="-0.10117">
        <ele>494.74</ele>
        <time>2013-10-24T12:45:20Z</time>
      </trkpt>
      <trkpt lat="43.01327" lon="-0.1012">
        <ele>494.74</ele>
        <time>2013-10-24T12:45:26Z</time>
      </trkpt>
      <trkpt lat="43.01348" lon="-0.10127">
        <ele>494.74</ele>
        <time>2013-10-24T12:45:37Z</time>
      </trkpt>
      <trkpt lat="43.0137" lon="-0.10132">
        <ele>498.1</ele>
        <time>2013-10-24T12:45:49Z</time>
      </trkpt>
      <trkpt lat="43.01385" lon="-0.10133">
        <ele>496.18</ele>
        <time>2013-10-24T12:45:55Z</time>
      </trkpt>
      <trkpt lat="43.01409" lon="-0.10124">
        <ele>494.26</ele>
        <time>2013-10-24T12:46:00Z</time>
      </trkpt>
      <trkpt lat="43.01445" lon="-0.10097">
        <ele>494.74</ele>
        <time>2013-10-24T12:46:10Z</time>
      </trkpt>
      <trkpt lat="43.01467" lon="-0.10069">
        <ele>497.14</ele>
        <time>2013-10-24T12:46:23Z</time>
      </trkpt>
      <trkpt lat="43.01495" lon="-0.10046">
        <ele>500.5</ele>
        <time>2013-10-24T12:46:37Z</time>
      </trkpt>
      <trkpt lat="43.01511" lon="-0.10029">
        <ele>503.39</ele>
        <time>2013-10-24T12:46:47Z</time>
      </trkpt>
      <trkpt lat="43.01524" lon="-0.10022">
        <ele>505.31</ele>
        <time>2013-10-24T12:46:55Z</time>
      </trkpt>
      <trkpt lat="43.01533" lon="-0.10017">
        <ele>505.79</ele>
        <time>2013-10-24T12:47:00Z</time>
      </trkpt>
      <trkpt lat="43.01549" lon="-0.10009">
        <ele>506.75</ele>
        <time>2013-10-24T12:47:09Z</time>
      </trkpt>
      <trkpt lat="43.01563" lon="-0.10003">
        <ele>510.12</ele>
        <time>2013-10-24T12:47:17Z</time>
      </trkpt>
      <trkpt lat="43.0157" lon="-0.1">
        <ele>510.6</ele>
        <time>2013-10-24T12:47:21Z</time>
      </trkpt>
      <trkpt lat="43.01592" lon="-0.09993">
        <ele>513</ele>
        <time>2013-10-24T12:47:31Z</time>
      </trkpt>
      <trkpt lat="43.01619" lon="-0.09983">
        <ele>514.44</ele>
        <time>2013-10-24T12:47:43Z</time>
      </trkpt>
      <trkpt lat="43.0164" lon="-0.09979">
        <ele>517.81</ele>
        <time>2013-10-24T12:47:53Z</time>
      </trkpt>
      <trkpt lat="43.01664" lon="-0.09976">
        <ele>518.77</ele>
        <time>2013-10-24T12:48:03Z</time>
      </trkpt>
      <trkpt lat="43.01684" lon="-0.09994">
        <ele>521.17</ele>
        <time>2013-10-24T12:48:15Z</time>
      </trkpt>
      <trkpt lat="43.01687" lon="-0.09998">
        <ele>521.65</ele>
        <time>2013-10-24T12:48:18Z</time>
      </trkpt>
      <trkpt lat="43.01697" lon="-0.10017">
        <ele>522.13</ele>
        <time>2013-10-24T12:48:26Z</time>
      </trkpt>
      <trkpt lat="43.01702" lon="-0.10034">
        <ele>518.29</ele>
        <time>2013-10-24T12:48:31Z</time>
      </trkpt>
      <trkpt lat="43.01704" lon="-0.10039">
        <ele>517.33</ele>
        <time>2013-10-24T12:48:32Z</time>
      </trkpt>
      <trkpt lat="43.01716" lon="-0.10056">
        <ele>515.4</ele>
        <time>2013-10-24T12:48:35Z</time>
      </trkpt>
      <trkpt lat="43.01734" lon="-0.10052">
        <ele>514.44</ele>
        <time>2013-10-24T12:48:38Z</time>
      </trkpt>
      <trkpt lat="43.01755" lon="-0.10054">
        <ele>516.85</ele>
        <time>2013-10-24T12:48:43Z</time>
      </trkpt>
      <trkpt lat="43.01758" lon="-0.10055">
        <ele>516.37</ele>
        <time>2013-10-24T12:48:44Z</time>
      </trkpt>
      <trkpt lat="43.0178" lon="-0.10064">
        <ele>516.85</ele>
        <time>2013-10-24T12:48:54Z</time>
      </trkpt>
      <trkpt lat="43.018" lon="-0.10072">
        <ele>517.33</ele>
        <time>2013-10-24T12:49:02Z</time>
      </trkpt>
      <trkpt lat="43.01811" lon="-0.10079">
        <ele>518.77</ele>
        <time>2013-10-24T12:49:08Z</time>
      </trkpt>
      <trkpt lat="43.01827" lon="-0.10098">
        <ele>518.29</ele>
        <time>2013-10-24T12:49:20Z</time>
      </trkpt>
      <trkpt lat="43.01837" lon="-0.10114">
        <ele>519.25</ele>
        <time>2013-10-24T12:49:32Z</time>
      </trkpt>
      <trkpt lat="43.01836" lon="-0.10121">
        <ele>519.73</ele>
        <time>2013-10-24T12:50:01Z</time>
      </trkpt>
      <trkpt lat="43.01835" lon="-0.10124">
        <ele>521.17</ele>
        <time>2013-10-24T12:50:11Z</time>
      </trkpt>
      <trkpt lat="43.01832" lon="-0.1014">
        <ele>524.06</ele>
        <time>2013-10-24T12:50:20Z</time>
      </trkpt>
      <trkpt lat="43.01833" lon="-0.10151">
        <ele>525.5</ele>
        <time>2013-10-24T12:50:25Z</time>
      </trkpt>
      <trkpt lat="43.01834" lon="-0.10167">
        <ele>527.42</ele>
        <time>2013-10-24T12:50:33Z</time>
      </trkpt>
      <trkpt lat="43.0183" lon="-0.10181">
        <ele>530.79</ele>
        <time>2013-10-24T12:50:43Z</time>
      </trkpt>
      <trkpt lat="43.01825" lon="-0.10196">
        <ele>533.19</ele>
        <time>2013-10-24T12:50:52Z</time>
      </trkpt>
      <trkpt lat="43.01825" lon="-0.10199">
        <ele>533.67</ele>
        <time>2013-10-24T12:50:54Z</time>
      </trkpt>
      <trkpt lat="43.01826" lon="-0.10203">
        <ele>535.11</ele>
        <time>2013-10-24T12:50:57Z</time>
      </trkpt>
      <trkpt lat="43.01823" lon="-0.10213">
        <ele>537.51</ele>
        <time>2013-10-24T12:51:07Z</time>
      </trkpt>
      <trkpt lat="43.01817" lon="-0.10216">
        <ele>537.99</ele>
        <time>2013-10-24T12:51:10Z</time>
      </trkpt>
      <trkpt lat="43.01803" lon="-0.10213">
        <ele>539.44</ele>
        <time>2013-10-24T12:51:19Z</time>
      </trkpt>
      <trkpt lat="43.01789" lon="-0.10216">
        <ele>542.32</ele>
        <time>2013-10-24T12:51:28Z</time>
      </trkpt>
      <trkpt lat="43.01782" lon="-0.10213">
        <ele>544.24</ele>
        <time>2013-10-24T12:51:34Z</time>
      </trkpt>
      <trkpt lat="43.01778" lon="-0.10209">
        <ele>545.69</ele>
        <time>2013-10-24T12:51:38Z</time>
      </trkpt>
      <trkpt lat="43.01773" lon="-0.10204">
        <ele>546.65</ele>
        <time>2013-10-24T12:51:43Z</time>
      </trkpt>
      <trkpt lat="43.01771" lon="-0.10207">
        <ele>548.57</ele>
        <time>2013-10-24T12:51:48Z</time>
      </trkpt>
      <trkpt lat="43.01772" lon="-0.10213">
        <ele>550.49</ele>
        <time>2013-10-24T12:51:58Z</time>
      </trkpt>
      <trkpt lat="43.01769" lon="-0.10215">
        <ele>549.53</ele>
        <time>2013-10-24T12:52:12Z</time>
      </trkpt>
      <trkpt lat="43.01767" lon="-0.10213">
        <ele>550.49</ele>
        <time>2013-10-24T12:52:15Z</time>
      </trkpt>
      <trkpt lat="43.01765" lon="-0.10212">
        <ele>551.93</ele>
        <time>2013-10-24T12:52:18Z</time>
      </trkpt>
      <trkpt lat="43.01764" lon="-0.10212">
        <ele>553.38</ele>
        <time>2013-10-24T12:52:20Z</time>
      </trkpt>
      <trkpt lat="43.01762" lon="-0.10212">
        <ele>553.38</ele>
        <time>2013-10-24T12:52:31Z</time>
      </trkpt>
      <trkpt lat="43.01759" lon="-0.10212">
        <ele>554.34</ele>
        <time>2013-10-24T12:52:45Z</time>
      </trkpt>
      <trkpt lat="43.01752" lon="-0.10213">
        <ele>558.18</ele>
        <time>2013-10-24T12:52:52Z</time>
      </trkpt>
      <trkpt lat="43.01751" lon="-0.10213">
        <ele>558.66</ele>
        <time>2013-10-24T12:52:53Z</time>
      </trkpt>
      <trkpt lat="43.01751" lon="-0.10213">
        <ele>558.18</ele>
        <time>2013-10-24T12:52:55Z</time>
      </trkpt>
      <trkpt lat="43.01746" lon="-0.1021">
        <ele>558.18</ele>
        <time>2013-10-24T12:53:06Z</time>
      </trkpt>
      <trkpt lat="43.01745" lon="-0.10209">
        <ele>558.66</ele>
        <time>2013-10-24T12:53:07Z</time>
      </trkpt>
      <trkpt lat="43.01737" lon="-0.10207">
        <ele>561.07</ele>
        <time>2013-10-24T12:53:18Z</time>
      </trkpt>
      <trkpt lat="43.01732" lon="-0.10211">
        <ele>563.95</ele>
        <time>2013-10-24T12:53:31Z</time>
      </trkpt>
      <trkpt lat="43.01731" lon="-0.10212">
        <ele>564.43</ele>
        <time>2013-10-24T12:53:43Z</time>
      </trkpt>
      <trkpt lat="43.0173" lon="-0.10211">
        <ele>564.91</ele>
        <time>2013-10-24T12:53:48Z</time>
      </trkpt>
      <trkpt lat="43.01727" lon="-0.10213">
        <ele>565.39</ele>
        <time>2013-10-24T12:53:53Z</time>
      </trkpt>
      <trkpt lat="43.0173" lon="-0.10217">
        <ele>566.83</ele>
        <time>2013-10-24T12:53:59Z</time>
      </trkpt>
      <trkpt lat="43.01726" lon="-0.10221">
        <ele>569.24</ele>
        <time>2013-10-24T12:54:05Z</time>
      </trkpt>
      <trkpt lat="43.01725" lon="-0.10227">
        <ele>569.24</ele>
        <time>2013-10-24T12:54:18Z</time>
      </trkpt>
      <trkpt lat="43.01724" lon="-0.10227">
        <ele>569.24</ele>
        <time>2013-10-24T12:54:22Z</time>
      </trkpt>
      <trkpt lat="43.0172" lon="-0.1023">
        <ele>570.2</ele>
        <time>2013-10-24T12:54:27Z</time>
      </trkpt>
      <trkpt lat="43.01718" lon="-0.10232">
        <ele>570.2</ele>
        <time>2013-10-24T12:54:29Z</time>
      </trkpt>
      <trkpt lat="43.01717" lon="-0.10234">
        <ele>570.2</ele>
        <time>2013-10-24T12:54:31Z</time>
      </trkpt>
      <trkpt lat="43.0171" lon="-0.10241">
        <ele>572.12</ele>
        <time>2013-10-24T12:54:37Z</time>
      </trkpt>
      <trkpt lat="43.01695" lon="-0.10254">
        <ele>573.08</ele>
        <time>2013-10-24T12:54:47Z</time>
      </trkpt>
      <trkpt lat="43.01688" lon="-0.10275">
        <ele>576.93</ele>
        <time>2013-10-24T12:55:00Z</time>
      </trkpt>
      <trkpt lat="43.01686" lon="-0.10279">
        <ele>577.89</ele>
        <time>2013-10-24T12:55:04Z</time>
      </trkpt>
      <trkpt lat="43.01679" lon="-0.10288">
        <ele>579.81</ele>
        <time>2013-10-24T12:55:15Z</time>
      </trkpt>
      <trkpt lat="43.01676" lon="-0.10291">
        <ele>580.29</ele>
        <time>2013-10-24T12:55:18Z</time>
      </trkpt>
      <trkpt lat="43.01671" lon="-0.10296">
        <ele>580.77</ele>
        <time>2013-10-24T12:55:22Z</time>
      </trkpt>
      <trkpt lat="43.01648" lon="-0.10312">
        <ele>584.14</ele>
        <time>2013-10-24T12:55:36Z</time>
      </trkpt>
      <trkpt lat="43.01625" lon="-0.10322">
        <ele>583.18</ele>
        <time>2013-10-24T12:55:48Z</time>
      </trkpt>
      <trkpt lat="43.01623" lon="-0.10323">
        <ele>583.18</ele>
        <time>2013-10-24T12:55:49Z</time>
      </trkpt>
      <trkpt lat="43.0161" lon="-0.10332">
        <ele>583.18</ele>
        <time>2013-10-24T12:55:57Z</time>
      </trkpt>
      <trkpt lat="43.01587" lon="-0.10338">
        <ele>580.77</ele>
        <time>2013-10-24T12:56:04Z</time>
      </trkpt>
      <trkpt lat="43.01568" lon="-0.10351">
        <ele>580.29</ele>
        <time>2013-10-24T12:56:13Z</time>
      </trkpt>
      <trkpt lat="43.01564" lon="-0.10356">
        <ele>581.73</ele>
        <time>2013-10-24T12:56:16Z</time>
      </trkpt>
      <trkpt lat="43.01562" lon="-0.10362">
        <ele>584.62</ele>
        <time>2013-10-24T12:56:27Z</time>
      </trkpt>
      <trkpt lat="43.01562" lon="-0.10362">
        <ele>585.1</ele>
        <time>2013-10-24T12:56:42Z</time>
      </trkpt>
      <trkpt lat="43.01557" lon="-0.10373">
        <ele>587.02</ele>
        <time>2013-10-24T12:56:55Z</time>
      </trkpt>
      <trkpt lat="43.01552" lon="-0.10388">
        <ele>590.39</ele>
        <time>2013-10-24T12:57:05Z</time>
      </trkpt>
      <trkpt lat="43.01548" lon="-0.10392">
        <ele>591.35</ele>
        <time>2013-10-24T12:57:19Z</time>
      </trkpt>
      <trkpt lat="43.01543" lon="-0.10404">
        <ele>594.71</ele>
        <time>2013-10-24T12:57:29Z</time>
      </trkpt>
      <trkpt lat="43.01539" lon="-0.10409">
        <ele>595.67</ele>
        <time>2013-10-24T12:57:35Z</time>
      </trkpt>
      <trkpt lat="43.01531" lon="-0.1042">
        <ele>597.12</ele>
        <time>2013-10-24T12:57:44Z</time>
      </trkpt>
      <trkpt lat="43.01511" lon="-0.10436">
        <ele>600</ele>
        <time>2013-10-24T12:57:58Z</time>
      </trkpt>
      <trkpt lat="43.01508" lon="-0.1044">
        <ele>600.48</ele>
        <time>2013-10-24T12:58:01Z</time>
      </trkpt>
      <trkpt lat="43.01507" lon="-0.10445">
        <ele>601.92</ele>
        <time>2013-10-24T12:58:04Z</time>
      </trkpt>
      <trkpt lat="43.0151" lon="-0.10452">
        <ele>603.85</ele>
        <time>2013-10-24T12:58:10Z</time>
      </trkpt>
      <trkpt lat="43.01504" lon="-0.1046">
        <ele>603.36</ele>
        <time>2013-10-24T12:58:19Z</time>
      </trkpt>
      <trkpt lat="43.015" lon="-0.10466">
        <ele>603.36</ele>
        <time>2013-10-24T12:58:25Z</time>
      </trkpt>
      <trkpt lat="43.01498" lon="-0.10468">
        <ele>604.33</ele>
        <time>2013-10-24T12:58:40Z</time>
      </trkpt>
      <trkpt lat="43.01498" lon="-0.10468">
        <ele>603.85</ele>
        <time>2013-10-24T12:58:42Z</time>
      </trkpt>
      <trkpt lat="43.01512" lon="-0.10452">
        <ele>603.36</ele>
        <time>2013-10-24T12:58:51Z</time>
      </trkpt>
      <trkpt lat="43.01514" lon="-0.10441">
        <ele>602.88</ele>
        <time>2013-10-24T12:58:58Z</time>
      </trkpt>
      <trkpt lat="43.01514" lon="-0.10441">
        <ele>602.88</ele>
        <time>2013-10-24T12:59:15Z</time>
      </trkpt>
      <trkpt lat="43.01511" lon="-0.10444">
        <ele>604.33</ele>
        <time>2013-10-24T12:59:37Z</time>
      </trkpt>
      <trkpt lat="43.01511" lon="-0.10444">
        <ele>602.88</ele>
        <time>2013-10-24T13:00:04Z</time>
      </trkpt>
      <trkpt lat="43.0151" lon="-0.10445">
        <ele>603.85</ele>
        <time>2013-10-24T13:00:18Z</time>
      </trkpt>
      <trkpt lat="43.0151" lon="-0.10445">
        <ele>603.85</ele>
        <time>2013-10-24T13:00:38Z</time>
      </trkpt>
      <trkpt lat="43.0151" lon="-0.10444">
        <ele>603.85</ele>
        <time>2013-10-24T13:01:00Z</time>
      </trkpt>
      <trkpt lat="43.0151" lon="-0.10444">
        <ele>604.81</ele>
        <time>2013-10-24T13:01:20Z</time>
      </trkpt>
      <trkpt lat="43.0151" lon="-0.10445">
        <ele>603.36</ele>
        <time>2013-10-24T13:01:41Z</time>
      </trkpt>
      <trkpt lat="43.0151" lon="-0.10445">
        <ele>603.85</ele>
        <time>2013-10-24T13:01:58Z</time>
      </trkpt>
      <trkpt lat="43.0151" lon="-0.10444">
        <ele>603.85</ele>
        <time>2013-10-24T13:02:10Z</time>
      </trkpt>
      <trkpt lat="43.0151" lon="-0.10445">
        <ele>603.85</ele>
        <time>2013-10-24T13:02:28Z</time>
      </trkpt>
      <trkpt lat="43.0151" lon="-0.10446">
        <ele>604.81</ele>
        <time>2013-10-24T13:02:57Z</time>
      </trkpt>
      <trkpt lat="43.01509" lon="-0.10447">
        <ele>604.33</ele>
        <time>2013-10-24T13:03:01Z</time>
      </trkpt>
      <trkpt lat="43.01507" lon="-0.10454">
        <ele>603.36</ele>
        <time>2013-10-24T13:03:05Z</time>
      </trkpt>
      <trkpt lat="43.01505" lon="-0.10456">
        <ele>604.33</ele>
        <time>2013-10-24T13:03:07Z</time>
      </trkpt>
      <trkpt lat="43.01501" lon="-0.10464">
        <ele>603.85</ele>
        <time>2013-10-24T13:03:11Z</time>
      </trkpt>
      <trkpt lat="43.01488" lon="-0.10481">
        <ele>606.73</ele>
        <time>2013-10-24T13:03:20Z</time>
      </trkpt>
      <trkpt lat="43.01469" lon="-0.10507">
        <ele>607.69</ele>
        <time>2013-10-24T13:03:33Z</time>
      </trkpt>
      <trkpt lat="43.01445" lon="-0.1054">
        <ele>608.65</ele>
        <time>2013-10-24T13:03:48Z</time>
      </trkpt>
      <trkpt lat="43.01419" lon="-0.10579">
        <ele>607.21</ele>
        <time>2013-10-24T13:04:02Z</time>
      </trkpt>
      <trkpt lat="43.01407" lon="-0.10593">
        <ele>604.81</ele>
        <time>2013-10-24T13:04:06Z</time>
      </trkpt>
      <trkpt lat="43.01383" lon="-0.1064">
        <ele>601.44</ele>
        <time>2013-10-24T13:04:18Z</time>
      </trkpt>
      <trkpt lat="43.01381" lon="-0.10643">
        <ele>600.96</ele>
        <time>2013-10-24T13:04:19Z</time>
      </trkpt>
      <trkpt lat="43.01376" lon="-0.10651">
        <ele>601.44</ele>
        <time>2013-10-24T13:04:21Z</time>
      </trkpt>
      <trkpt lat="43.01372" lon="-0.10661">
        <ele>600.48</ele>
        <time>2013-10-24T13:04:23Z</time>
      </trkpt>
      <trkpt lat="43.01362" lon="-0.10684">
        <ele>601.44</ele>
        <time>2013-10-24T13:04:27Z</time>
      </trkpt>
      <trkpt lat="43.01359" lon="-0.10694">
        <ele>602.4</ele>
        <time>2013-10-24T13:04:29Z</time>
      </trkpt>
      <trkpt lat="43.01346" lon="-0.10723">
        <ele>603.36</ele>
        <time>2013-10-24T13:04:36Z</time>
      </trkpt>
      <trkpt lat="43.01339" lon="-0.10768">
        <ele>605.29</ele>
        <time>2013-10-24T13:04:49Z</time>
      </trkpt>
      <trkpt lat="43.01338" lon="-0.10809">
        <ele>606.25</ele>
        <time>2013-10-24T13:05:01Z</time>
      </trkpt>
      <trkpt lat="43.01337" lon="-0.10815">
        <ele>606.25</ele>
        <time>2013-10-24T13:05:03Z</time>
      </trkpt>
      <trkpt lat="43.01325" lon="-0.10847">
        <ele>609.61</ele>
        <time>2013-10-24T13:05:14Z</time>
      </trkpt>
      <trkpt lat="43.0132" lon="-0.10862">
        <ele>610.57</ele>
        <time>2013-10-24T13:05:19Z</time>
      </trkpt>
      <trkpt lat="43.01313" lon="-0.10881">
        <ele>607.21</ele>
        <time>2013-10-24T13:05:25Z</time>
      </trkpt>
      <trkpt lat="43.01312" lon="-0.10884">
        <ele>611.06</ele>
        <time>2013-10-24T13:05:26Z</time>
      </trkpt>
      <trkpt lat="43.01285" lon="-0.10932">
        <ele>613.94</ele>
        <time>2013-10-24T13:05:42Z</time>
      </trkpt>
      <trkpt lat="43.01261" lon="-0.10956">
        <ele>612.5</ele>
        <time>2013-10-24T13:05:53Z</time>
      </trkpt>
      <trkpt lat="43.01261" lon="-0.10971">
        <ele>614.42</ele>
        <time>2013-10-24T13:05:57Z</time>
      </trkpt>
      <trkpt lat="43.01264" lon="-0.1098">
        <ele>614.9</ele>
        <time>2013-10-24T13:06:00Z</time>
      </trkpt>
      <trkpt lat="43.0125" lon="-0.11005">
        <ele>616.82</ele>
        <time>2013-10-24T13:06:11Z</time>
      </trkpt>
      <trkpt lat="43.01229" lon="-0.11034">
        <ele>617.3</ele>
        <time>2013-10-24T13:06:22Z</time>
      </trkpt>
      <trkpt lat="43.01227" lon="-0.11038">
        <ele>616.82</ele>
        <time>2013-10-24T13:06:23Z</time>
      </trkpt>
      <trkpt lat="43.01219" lon="-0.1105">
        <ele>616.34</ele>
        <time>2013-10-24T13:06:26Z</time>
      </trkpt>
      <trkpt lat="43.01222" lon="-0.11071">
        <ele>617.3</ele>
        <time>2013-10-24T13:06:31Z</time>
      </trkpt>
      <trkpt lat="43.0124" lon="-0.11107">
        <ele>618.75</ele>
        <time>2013-10-24T13:06:43Z</time>
      </trkpt>
      <trkpt lat="43.01245" lon="-0.11123">
        <ele>618.75</ele>
        <time>2013-10-24T13:06:48Z</time>
      </trkpt>
      <trkpt lat="43.01245" lon="-0.1114">
        <ele>618.26</ele>
        <time>2013-10-24T13:06:52Z</time>
      </trkpt>
      <trkpt lat="43.01245" lon="-0.11164">
        <ele>617.3</ele>
        <time>2013-10-24T13:06:57Z</time>
      </trkpt>
      <trkpt lat="43.01257" lon="-0.11178">
        <ele>616.34</ele>
        <time>2013-10-24T13:07:03Z</time>
      </trkpt>
      <trkpt lat="43.01271" lon="-0.1119">
        <ele>615.38</ele>
        <time>2013-10-24T13:07:07Z</time>
      </trkpt>
      <trkpt lat="43.01278" lon="-0.11195">
        <ele>614.9</ele>
        <time>2013-10-24T13:07:09Z</time>
      </trkpt>
      <trkpt lat="43.01293" lon="-0.11209">
        <ele>613.94</ele>
        <time>2013-10-24T13:07:13Z</time>
      </trkpt>
      <trkpt lat="43.01308" lon="-0.11232">
        <ele>613.94</ele>
        <time>2013-10-24T13:07:18Z</time>
      </trkpt>
      <trkpt lat="43.01318" lon="-0.1126">
        <ele>614.42</ele>
        <time>2013-10-24T13:07:23Z</time>
      </trkpt>
      <trkpt lat="43.01322" lon="-0.11283">
        <ele>614.9</ele>
        <time>2013-10-24T13:07:27Z</time>
      </trkpt>
      <trkpt lat="43.01329" lon="-0.11303">
        <ele>614.9</ele>
        <time>2013-10-24T13:07:31Z</time>
      </trkpt>
      <trkpt lat="43.01367" lon="-0.11358">
        <ele>613.94</ele>
        <time>2013-10-24T13:07:45Z</time>
      </trkpt>
      <trkpt lat="43.01371" lon="-0.11363">
        <ele>612.5</ele>
        <time>2013-10-24T13:07:47Z</time>
      </trkpt>
      <trkpt lat="43.01391" lon="-0.11383">
        <ele>609.13</ele>
        <time>2013-10-24T13:07:52Z</time>
      </trkpt>
      <trkpt lat="43.01393" lon="-0.11386">
        <ele>609.13</ele>
        <time>2013-10-24T13:07:53Z</time>
      </trkpt>
      <trkpt lat="43.01401" lon="-0.11396">
        <ele>605.77</ele>
        <time>2013-10-24T13:07:55Z</time>
      </trkpt>
      <trkpt lat="43.01414" lon="-0.11409">
        <ele>604.81</ele>
        <time>2013-10-24T13:07:57Z</time>
      </trkpt>
      <trkpt lat="43.01435" lon="-0.11422">
        <ele>604.33</ele>
        <time>2013-10-24T13:08:00Z</time>
      </trkpt>
      <trkpt lat="43.01459" lon="-0.11438">
        <ele>603.85</ele>
        <time>2013-10-24T13:08:04Z</time>
      </trkpt>
      <trkpt lat="43.01484" lon="-0.11458">
        <ele>603.36</ele>
        <time>2013-10-24T13:08:11Z</time>
      </trkpt>
      <trkpt lat="43.01487" lon="-0.11461">
        <ele>602.88</ele>
        <time>2013-10-24T13:08:12Z</time>
      </trkpt>
      <trkpt lat="43.01496" lon="-0.11471">
        <ele>601.92</ele>
        <time>2013-10-24T13:08:16Z</time>
      </trkpt>
      <trkpt lat="43.01504" lon="-0.11485">
        <ele>601.44</ele>
        <time>2013-10-24T13:08:20Z</time>
      </trkpt>
      <trkpt lat="43.01533" lon="-0.11505">
        <ele>599.04</ele>
        <time>2013-10-24T13:08:28Z</time>
      </trkpt>
      <trkpt lat="43.01539" lon="-0.11507">
        <ele>598.56</ele>
        <time>2013-10-24T13:08:29Z</time>
      </trkpt>
      <trkpt lat="43.01556" lon="-0.11512">
        <ele>598.56</ele>
        <time>2013-10-24T13:08:36Z</time>
      </trkpt>
      <trkpt lat="43.0156" lon="-0.11514">
        <ele>598.56</ele>
        <time>2013-10-24T13:08:40Z</time>
      </trkpt>
      <trkpt lat="43.0157" lon="-0.11517">
        <ele>598.56</ele>
        <time>2013-10-24T13:08:48Z</time>
      </trkpt>
      <trkpt lat="43.01577" lon="-0.11517">
        <ele>598.56</ele>
        <time>2013-10-24T13:08:52Z</time>
      </trkpt>
      <trkpt lat="43.01611" lon="-0.11518">
        <ele>597.12</ele>
        <time>2013-10-24T13:09:02Z</time>
      </trkpt>
      <trkpt lat="43.01621" lon="-0.11519">
        <ele>597.12</ele>
        <time>2013-10-24T13:09:06Z</time>
      </trkpt>
      <trkpt lat="43.01655" lon="-0.11519">
        <ele>595.19</ele>
        <time>2013-10-24T13:09:17Z</time>
      </trkpt>
      <trkpt lat="43.01678" lon="-0.1153">
        <ele>591.83</ele>
        <time>2013-10-24T13:09:21Z</time>
      </trkpt>
      <trkpt lat="43.01704" lon="-0.11545">
        <ele>586.06</ele>
        <time>2013-10-24T13:09:25Z</time>
      </trkpt>
      <trkpt lat="43.01719" lon="-0.11553">
        <ele>583.18</ele>
        <time>2013-10-24T13:09:27Z</time>
      </trkpt>
      <trkpt lat="43.01728" lon="-0.11557">
        <ele>582.22</ele>
        <time>2013-10-24T13:09:28Z</time>
      </trkpt>
      <trkpt lat="43.01768" lon="-0.11584">
        <ele>575.49</ele>
        <time>2013-10-24T13:09:33Z</time>
      </trkpt>
      <trkpt lat="43.01799" lon="-0.11608">
        <ele>571.16</ele>
        <time>2013-10-24T13:09:38Z</time>
      </trkpt>
      <trkpt lat="43.01841" lon="-0.11661">
        <ele>572.12</ele>
        <time>2013-10-24T13:09:50Z</time>
      </trkpt>
      <trkpt lat="43.01866" lon="-0.11673">
        <ele>571.64</ele>
        <time>2013-10-24T13:10:00Z</time>
      </trkpt>
      <trkpt lat="43.01868" lon="-0.11674">
        <ele>572.12</ele>
        <time>2013-10-24T13:10:07Z</time>
      </trkpt>
      <trkpt lat="43.01869" lon="-0.11675">
        <ele>572.12</ele>
        <time>2013-10-24T13:10:26Z</time>
      </trkpt>
      <trkpt lat="43.01869" lon="-0.11676">
        <ele>573.08</ele>
        <time>2013-10-24T13:10:53Z</time>
      </trkpt>
      <trkpt lat="43.01869" lon="-0.11676">
        <ele>571.64</ele>
        <time>2013-10-24T13:11:27Z</time>
      </trkpt>
      <trkpt lat="43.01871" lon="-0.11679">
        <ele>572.6</ele>
        <time>2013-10-24T13:11:38Z</time>
      </trkpt>
      <trkpt lat="43.01877" lon="-0.1169">
        <ele>572.6</ele>
        <time>2013-10-24T13:11:43Z</time>
      </trkpt>
      <trkpt lat="43.019" lon="-0.11726">
        <ele>572.6</ele>
        <time>2013-10-24T13:11:56Z</time>
      </trkpt>
      <trkpt lat="43.01929" lon="-0.11793">
        <ele>571.16</ele>
        <time>2013-10-24T13:12:10Z</time>
      </trkpt>
      <trkpt lat="43.01931" lon="-0.11799">
        <ele>570.68</ele>
        <time>2013-10-24T13:12:11Z</time>
      </trkpt>
      <trkpt lat="43.01939" lon="-0.11814">
        <ele>571.16</ele>
        <time>2013-10-24T13:12:14Z</time>
      </trkpt>
      <trkpt lat="43.01957" lon="-0.11851">
        <ele>570.2</ele>
        <time>2013-10-24T13:12:21Z</time>
      </trkpt>
      <trkpt lat="43.01966" lon="-0.11866">
        <ele>569.72</ele>
        <time>2013-10-24T13:12:24Z</time>
      </trkpt>
      <trkpt lat="43.0201" lon="-0.11935">
        <ele>570.68</ele>
        <time>2013-10-24T13:12:39Z</time>
      </trkpt>
      <trkpt lat="43.02031" lon="-0.1198">
        <ele>574.04</ele>
        <time>2013-10-24T13:12:50Z</time>
      </trkpt>
      <trkpt lat="43.02044" lon="-0.12">
        <ele>575.49</ele>
        <time>2013-10-24T13:12:56Z</time>
      </trkpt>
      <trkpt lat="43.02069" lon="-0.12019">
        <ele>578.37</ele>
        <time>2013-10-24T13:13:05Z</time>
      </trkpt>
      <trkpt lat="43.02092" lon="-0.12045">
        <ele>581.73</ele>
        <time>2013-10-24T13:13:16Z</time>
      </trkpt>
      <trkpt lat="43.02123" lon="-0.1207">
        <ele>584.62</ele>
        <time>2013-10-24T13:13:29Z</time>
      </trkpt>
      <trkpt lat="43.02128" lon="-0.12078">
        <ele>585.1</ele>
        <time>2013-10-24T13:13:32Z</time>
      </trkpt>
      <trkpt lat="43.02159" lon="-0.12099">
        <ele>587.98</ele>
        <time>2013-10-24T13:13:45Z</time>
      </trkpt>
      <trkpt lat="43.02189" lon="-0.12125">
        <ele>589.43</ele>
        <time>2013-10-24T13:13:57Z</time>
      </trkpt>
      <trkpt lat="43.02209" lon="-0.12153">
        <ele>589.43</ele>
        <time>2013-10-24T13:14:06Z</time>
      </trkpt>
      <trkpt lat="43.02218" lon="-0.12173">
        <ele>588.46</ele>
        <time>2013-10-24T13:14:10Z</time>
      </trkpt>
      <trkpt lat="43.02237" lon="-0.12241">
        <ele>589.43</ele>
        <time>2013-10-24T13:14:23Z</time>
      </trkpt>
      <trkpt lat="43.02248" lon="-0.12259">
        <ele>588.46</ele>
        <time>2013-10-24T13:14:27Z</time>
      </trkpt>
      <trkpt lat="43.02256" lon="-0.12287">
        <ele>587.5</ele>
        <time>2013-10-24T13:14:31Z</time>
      </trkpt>
      <trkpt lat="43.02259" lon="-0.12315">
        <ele>586.06</ele>
        <time>2013-10-24T13:14:34Z</time>
      </trkpt>
      <trkpt lat="43.02276" lon="-0.12367">
        <ele>582.7</ele>
        <time>2013-10-24T13:14:39Z</time>
      </trkpt>
      <trkpt lat="43.02282" lon="-0.12377">
        <ele>582.7</ele>
        <time>2013-10-24T13:14:40Z</time>
      </trkpt>
      <trkpt lat="43.02288" lon="-0.12386">
        <ele>582.7</ele>
        <time>2013-10-24T13:14:41Z</time>
      </trkpt>
      <trkpt lat="43.02302" lon="-0.12403">
        <ele>581.73</ele>
        <time>2013-10-24T13:14:43Z</time>
      </trkpt>
      <trkpt lat="43.02338" lon="-0.12436">
        <ele>580.29</ele>
        <time>2013-10-24T13:14:48Z</time>
      </trkpt>
      <trkpt lat="43.0239" lon="-0.12458">
        <ele>579.33</ele>
        <time>2013-10-24T13:14:55Z</time>
      </trkpt>
      <trkpt lat="43.02421" lon="-0.12409">
        <ele>577.89</ele>
        <time>2013-10-24T13:15:01Z</time>
      </trkpt>
      <trkpt lat="43.02423" lon="-0.12399">
        <ele>578.37</ele>
        <time>2013-10-24T13:15:02Z</time>
      </trkpt>
      <trkpt lat="43.02429" lon="-0.12357">
        <ele>580.29</ele>
        <time>2013-10-24T13:15:07Z</time>
      </trkpt>
      <trkpt lat="43.02432" lon="-0.12343">
        <ele>580.77</ele>
        <time>2013-10-24T13:15:09Z</time>
      </trkpt>
      <trkpt lat="43.02447" lon="-0.12312">
        <ele>582.22</ele>
        <time>2013-10-24T13:15:15Z</time>
      </trkpt>
      <trkpt lat="43.02503" lon="-0.12255">
        <ele>585.1</ele>
        <time>2013-10-24T13:15:32Z</time>
      </trkpt>
      <trkpt lat="43.02515" lon="-0.12219">
        <ele>588.46</ele>
        <time>2013-10-24T13:15:41Z</time>
      </trkpt>
      <trkpt lat="43.02512" lon="-0.12186">
        <ele>590.87</ele>
        <time>2013-10-24T13:15:49Z</time>
      </trkpt>
      <trkpt lat="43.02505" lon="-0.12139">
        <ele>594.23</ele>
        <time>2013-10-24T13:16:01Z</time>
      </trkpt>
      <trkpt lat="43.02498" lon="-0.12087">
        <ele>597.6</ele>
        <time>2013-10-24T13:16:14Z</time>
      </trkpt>
      <trkpt lat="43.02511" lon="-0.12018">
        <ele>600.48</ele>
        <time>2013-10-24T13:16:30Z</time>
      </trkpt>
      <trkpt lat="43.02545" lon="-0.11963">
        <ele>602.88</ele>
        <time>2013-10-24T13:16:48Z</time>
      </trkpt>
      <trkpt lat="43.0256" lon="-0.11929">
        <ele>606.25</ele>
        <time>2013-10-24T13:16:59Z</time>
      </trkpt>
      <trkpt lat="43.0258" lon="-0.11897">
        <ele>608.65</ele>
        <time>2013-10-24T13:17:11Z</time>
      </trkpt>
      <trkpt lat="43.02615" lon="-0.11885">
        <ele>611.54</ele>
        <time>2013-10-24T13:17:25Z</time>
      </trkpt>
      <trkpt lat="43.02643" lon="-0.11882">
        <ele>613.46</ele>
        <time>2013-10-24T13:17:36Z</time>
      </trkpt>
      <trkpt lat="43.02679" lon="-0.11871">
        <ele>614.9</ele>
        <time>2013-10-24T13:17:50Z</time>
      </trkpt>
      <trkpt lat="43.0272" lon="-0.11895">
        <ele>616.82</ele>
        <time>2013-10-24T13:18:06Z</time>
      </trkpt>
      <trkpt lat="43.02744" lon="-0.11907">
        <ele>618.26</ele>
        <time>2013-10-24T13:18:15Z</time>
      </trkpt>
      <trkpt lat="43.0278" lon="-0.11918">
        <ele>621.15</ele>
        <time>2013-10-24T13:18:29Z</time>
      </trkpt>
      <trkpt lat="43.02809" lon="-0.11927">
        <ele>622.59</ele>
        <time>2013-10-24T13:18:42Z</time>
      </trkpt>
      <trkpt lat="43.02826" lon="-0.11936">
        <ele>621.15</ele>
        <time>2013-10-24T13:18:47Z</time>
      </trkpt>
      <trkpt lat="43.02852" lon="-0.1195">
        <ele>620.67</ele>
        <time>2013-10-24T13:18:54Z</time>
      </trkpt>
      <trkpt lat="43.02896" lon="-0.11958">
        <ele>620.67</ele>
        <time>2013-10-24T13:19:07Z</time>
      </trkpt>
      <trkpt lat="43.02906" lon="-0.11957">
        <ele>622.11</ele>
        <time>2013-10-24T13:19:18Z</time>
      </trkpt>
      <trkpt lat="43.02906" lon="-0.11958">
        <ele>623.07</ele>
        <time>2013-10-24T13:19:47Z</time>
      </trkpt>
      <trkpt lat="43.02906" lon="-0.11958">
        <ele>622.59</ele>
        <time>2013-10-24T13:20:24Z</time>
      </trkpt>
      <trkpt lat="43.02906" lon="-0.11958">
        <ele>623.07</ele>
        <time>2013-10-24T13:20:40Z</time>
      </trkpt>
      <trkpt lat="43.02906" lon="-0.11958">
        <ele>623.07</ele>
        <time>2013-10-24T13:21:06Z</time>
      </trkpt>
      <trkpt lat="43.02907" lon="-0.11956">
        <ele>622.59</ele>
        <time>2013-10-24T13:21:40Z</time>
      </trkpt>
      <trkpt lat="43.02907" lon="-0.11956">
        <ele>623.07</ele>
        <time>2013-10-24T13:22:13Z</time>
      </trkpt>
      <trkpt lat="43.02906" lon="-0.11957">
        <ele>623.07</ele>
        <time>2013-10-24T13:22:46Z</time>
      </trkpt>
      <trkpt lat="43.02911" lon="-0.11953">
        <ele>623.55</ele>
        <time>2013-10-24T13:22:51Z</time>
      </trkpt>
      <trkpt lat="43.02921" lon="-0.11929">
        <ele>626.92</ele>
        <time>2013-10-24T13:23:01Z</time>
      </trkpt>
      <trkpt lat="43.02928" lon="-0.11914">
        <ele>629.32</ele>
        <time>2013-10-24T13:23:07Z</time>
      </trkpt>
      <trkpt lat="43.02931" lon="-0.11909">
        <ele>630.28</ele>
        <time>2013-10-24T13:23:09Z</time>
      </trkpt>
      <trkpt lat="43.02941" lon="-0.1186">
        <ele>630.76</ele>
        <time>2013-10-24T13:23:23Z</time>
      </trkpt>
      <trkpt lat="43.0295" lon="-0.1184">
        <ele>630.28</ele>
        <time>2013-10-24T13:23:27Z</time>
      </trkpt>
      <trkpt lat="43.02958" lon="-0.11819">
        <ele>627.88</ele>
        <time>2013-10-24T13:23:30Z</time>
      </trkpt>
      <trkpt lat="43.02964" lon="-0.118">
        <ele>624.51</ele>
        <time>2013-10-24T13:23:32Z</time>
      </trkpt>
      <trkpt lat="43.02965" lon="-0.11767">
        <ele>622.59</ele>
        <time>2013-10-24T13:23:35Z</time>
      </trkpt>
      <trkpt lat="43.02972" lon="-0.11727">
        <ele>621.63</ele>
        <time>2013-10-24T13:23:39Z</time>
      </trkpt>
      <trkpt lat="43.02984" lon="-0.11686">
        <ele>623.07</ele>
        <time>2013-10-24T13:23:44Z</time>
      </trkpt>
      <trkpt lat="43.02989" lon="-0.11663">
        <ele>623.07</ele>
        <time>2013-10-24T13:23:47Z</time>
      </trkpt>
      <trkpt lat="43.02991" lon="-0.11649">
        <ele>623.07</ele>
        <time>2013-10-24T13:23:49Z</time>
      </trkpt>
      <trkpt lat="43.02994" lon="-0.11621">
        <ele>624.03</ele>
        <time>2013-10-24T13:23:54Z</time>
      </trkpt>
      <trkpt lat="43.03009" lon="-0.11576">
        <ele>624.51</ele>
        <time>2013-10-24T13:24:03Z</time>
      </trkpt>
      <trkpt lat="43.03023" lon="-0.11523">
        <ele>625.96</ele>
        <time>2013-10-24T13:24:13Z</time>
      </trkpt>
      <trkpt lat="43.03035" lon="-0.11473">
        <ele>626.44</ele>
        <time>2013-10-24T13:24:23Z</time>
      </trkpt>
      <trkpt lat="43.0304" lon="-0.11455">
        <ele>626.92</ele>
        <time>2013-10-24T13:24:26Z</time>
      </trkpt>
      <trkpt lat="43.03044" lon="-0.11426">
        <ele>627.88</ele>
        <time>2013-10-24T13:24:32Z</time>
      </trkpt>
      <trkpt lat="43.03051" lon="-0.11396">
        <ele>627.88</ele>
        <time>2013-10-24T13:24:38Z</time>
      </trkpt>
      <trkpt lat="43.0306" lon="-0.11351">
        <ele>627.88</ele>
        <time>2013-10-24T13:24:46Z</time>
      </trkpt>
      <trkpt lat="43.03063" lon="-0.11332">
        <ele>627.4</ele>
        <time>2013-10-24T13:24:49Z</time>
      </trkpt>
      <trkpt lat="43.0308" lon="-0.11272">
        <ele>626.92</ele>
        <time>2013-10-24T13:25:00Z</time>
      </trkpt>
      <trkpt lat="43.03082" lon="-0.11265">
        <ele>626.92</ele>
        <time>2013-10-24T13:25:02Z</time>
      </trkpt>
      <trkpt lat="43.03087" lon="-0.1125">
        <ele>624.99</ele>
        <time>2013-10-24T13:25:06Z</time>
      </trkpt>
      <trkpt lat="43.03094" lon="-0.11192">
        <ele>621.15</ele>
        <time>2013-10-24T13:25:14Z</time>
      </trkpt>
      <trkpt lat="43.03088" lon="-0.11175">
        <ele>619.23</ele>
        <time>2013-10-24T13:25:16Z</time>
      </trkpt>
      <trkpt lat="43.03078" lon="-0.11145">
        <ele>616.82</ele>
        <time>2013-10-24T13:25:20Z</time>
      </trkpt>
      <trkpt lat="43.03072" lon="-0.11127">
        <ele>615.86</ele>
        <time>2013-10-24T13:25:22Z</time>
      </trkpt>
      <trkpt lat="43.03072" lon="-0.11068">
        <ele>612.02</ele>
        <time>2013-10-24T13:25:27Z</time>
      </trkpt>
      <trkpt lat="43.03075" lon="-0.11043">
        <ele>610.09</ele>
        <time>2013-10-24T13:25:29Z</time>
      </trkpt>
      <trkpt lat="43.03074" lon="-0.10989">
        <ele>606.73</ele>
        <time>2013-10-24T13:25:34Z</time>
      </trkpt>
      <trkpt lat="43.03072" lon="-0.1094">
        <ele>602.4</ele>
        <time>2013-10-24T13:25:38Z</time>
      </trkpt>
      <trkpt lat="43.03064" lon="-0.10891">
        <ele>597.12</ele>
        <time>2013-10-24T13:25:42Z</time>
      </trkpt>
      <trkpt lat="43.03065" lon="-0.10866">
        <ele>595.19</ele>
        <time>2013-10-24T13:25:44Z</time>
      </trkpt>
      <trkpt lat="43.03071" lon="-0.10831">
        <ele>593.75</ele>
        <time>2013-10-24T13:25:47Z</time>
      </trkpt>
      <trkpt lat="43.03079" lon="-0.108">
        <ele>592.79</ele>
        <time>2013-10-24T13:25:52Z</time>
      </trkpt>
      <trkpt lat="43.03083" lon="-0.10767">
        <ele>588.46</ele>
        <time>2013-10-24T13:25:58Z</time>
      </trkpt>
      <trkpt lat="43.03084" lon="-0.10758">
        <ele>587.98</ele>
        <time>2013-10-24T13:25:59Z</time>
      </trkpt>
      <trkpt lat="43.0309" lon="-0.10737">
        <ele>586.06</ele>
        <time>2013-10-24T13:26:04Z</time>
      </trkpt>
      <trkpt lat="43.03083" lon="-0.10735">
        <ele>585.1</ele>
        <time>2013-10-24T13:26:14Z</time>
      </trkpt>
      <trkpt lat="43.03082" lon="-0.10734">
        <ele>585.1</ele>
        <time>2013-10-24T13:26:24Z</time>
      </trkpt>
      <trkpt lat="43.03073" lon="-0.10726">
        <ele>583.66</ele>
        <time>2013-10-24T13:26:28Z</time>
      </trkpt>
      <trkpt lat="43.03067" lon="-0.10704">
        <ele>579.81</ele>
        <time>2013-10-24T13:26:31Z</time>
      </trkpt>
      <trkpt lat="43.03069" lon="-0.10687">
        <ele>579.33</ele>
        <time>2013-10-24T13:26:33Z</time>
      </trkpt>
      <trkpt lat="43.03077" lon="-0.1066">
        <ele>577.41</ele>
        <time>2013-10-24T13:26:36Z</time>
      </trkpt>
      <trkpt lat="43.03085" lon="-0.10616">
        <ele>575.01</ele>
        <time>2013-10-24T13:26:40Z</time>
      </trkpt>
      <trkpt lat="43.03116" lon="-0.10582">
        <ele>574.53</ele>
        <time>2013-10-24T13:26:46Z</time>
      </trkpt>
      <trkpt lat="43.03133" lon="-0.10571">
        <ele>575.01</ele>
        <time>2013-10-24T13:26:51Z</time>
      </trkpt>
      <trkpt lat="43.03144" lon="-0.10559">
        <ele>577.89</ele>
        <time>2013-10-24T13:26:56Z</time>
      </trkpt>
      <trkpt lat="43.03148" lon="-0.1055">
        <ele>580.29</ele>
        <time>2013-10-24T13:26:59Z</time>
      </trkpt>
      <trkpt lat="43.03165" lon="-0.10515">
        <ele>579.33</ele>
        <time>2013-10-24T13:27:10Z</time>
      </trkpt>
      <trkpt lat="43.03167" lon="-0.1051">
        <ele>578.85</ele>
        <time>2013-10-24T13:27:11Z</time>
      </trkpt>
      <trkpt lat="43.03199" lon="-0.10469">
        <ele>581.25</ele>
        <time>2013-10-24T13:27:23Z</time>
      </trkpt>
      <trkpt lat="43.03202" lon="-0.10467">
        <ele>581.25</ele>
        <time>2013-10-24T13:27:24Z</time>
      </trkpt>
      <trkpt lat="43.0321" lon="-0.10461">
        <ele>580.77</ele>
        <time>2013-10-24T13:27:26Z</time>
      </trkpt>
      <trkpt lat="43.03221" lon="-0.10437">
        <ele>581.25</ele>
        <time>2013-10-24T13:27:34Z</time>
      </trkpt>
      <trkpt lat="43.03229" lon="-0.10419">
        <ele>584.62</ele>
        <time>2013-10-24T13:27:41Z</time>
      </trkpt>
      <trkpt lat="43.0324" lon="-0.10405">
        <ele>588.46</ele>
        <time>2013-10-24T13:27:49Z</time>
      </trkpt>
      <trkpt lat="43.03244" lon="-0.10402">
        <ele>588.95</ele>
        <time>2013-10-24T13:27:51Z</time>
      </trkpt>
      <trkpt lat="43.03266" lon="-0.10393">
        <ele>591.35</ele>
        <time>2013-10-24T13:28:02Z</time>
      </trkpt>
      <trkpt lat="43.03291" lon="-0.10396">
        <ele>592.31</ele>
        <time>2013-10-24T13:28:13Z</time>
      </trkpt>
      <trkpt lat="43.03293" lon="-0.10397">
        <ele>592.31</ele>
        <time>2013-10-24T13:28:14Z</time>
      </trkpt>
      <trkpt lat="43.03309" lon="-0.10397">
        <ele>591.83</ele>
        <time>2013-10-24T13:28:26Z</time>
      </trkpt>
      <trkpt lat="43.0331" lon="-0.10398">
        <ele>591.35</ele>
        <time>2013-10-24T13:28:55Z</time>
      </trkpt>
      <trkpt lat="43.03309" lon="-0.10396">
        <ele>591.83</ele>
        <time>2013-10-24T13:29:13Z</time>
      </trkpt>
      <trkpt lat="43.03299" lon="-0.10385">
        <ele>588.46</ele>
        <time>2013-10-24T13:29:18Z</time>
      </trkpt>
      <trkpt lat="43.03295" lon="-0.10382">
        <ele>587.5</ele>
        <time>2013-10-24T13:29:20Z</time>
      </trkpt>
      <trkpt lat="43.03287" lon="-0.10369">
        <ele>585.1</ele>
        <time>2013-10-24T13:29:24Z</time>
      </trkpt>
      <trkpt lat="43.03269" lon="-0.10349">
        <ele>580.77</ele>
        <time>2013-10-24T13:29:29Z</time>
      </trkpt>
      <trkpt lat="43.03263" lon="-0.10346">
        <ele>579.33</ele>
        <time>2013-10-24T13:29:30Z</time>
      </trkpt>
      <trkpt lat="43.03236" lon="-0.10331">
        <ele>574.53</ele>
        <time>2013-10-24T13:29:36Z</time>
      </trkpt>
      <trkpt lat="43.03232" lon="-0.10329">
        <ele>573.56</ele>
        <time>2013-10-24T13:29:37Z</time>
      </trkpt>
      <trkpt lat="43.03225" lon="-0.10325">
        <ele>571.16</ele>
        <time>2013-10-24T13:29:39Z</time>
      </trkpt>
      <trkpt lat="43.03211" lon="-0.1032">
        <ele>569.24</ele>
        <time>2013-10-24T13:29:42Z</time>
      </trkpt>
      <trkpt lat="43.03193" lon="-0.10312">
        <ele>566.83</ele>
        <time>2013-10-24T13:29:45Z</time>
      </trkpt>
      <trkpt lat="43.03158" lon="-0.10299">
        <ele>563.47</ele>
        <time>2013-10-24T13:29:53Z</time>
      </trkpt>
      <trkpt lat="43.03145" lon="-0.10298">
        <ele>560.59</ele>
        <time>2013-10-24T13:29:57Z</time>
      </trkpt>
      <trkpt lat="43.03135" lon="-0.10297">
        <ele>558.66</ele>
        <time>2013-10-24T13:29:59Z</time>
      </trkpt>
      <trkpt lat="43.03108" lon="-0.10297">
        <ele>554.34</ele>
        <time>2013-10-24T13:30:04Z</time>
      </trkpt>
      <trkpt lat="43.03092" lon="-0.10297">
        <ele>552.41</ele>
        <time>2013-10-24T13:30:07Z</time>
      </trkpt>
      <trkpt lat="43.03088" lon="-0.10299">
        <ele>550.49</ele>
        <time>2013-10-24T13:30:08Z</time>
      </trkpt>
      <trkpt lat="43.03064" lon="-0.10307">
        <ele>547.13</ele>
        <time>2013-10-24T13:30:13Z</time>
      </trkpt>
      <trkpt lat="43.03057" lon="-0.10309">
        <ele>543.28</ele>
        <time>2013-10-24T13:30:16Z</time>
      </trkpt>
      <trkpt lat="43.03028" lon="-0.10314">
        <ele>537.03</ele>
        <time>2013-10-24T13:30:22Z</time>
      </trkpt>
      <trkpt lat="43.03014" lon="-0.10315">
        <ele>535.11</ele>
        <time>2013-10-24T13:30:24Z</time>
      </trkpt>
      <trkpt lat="43.02999" lon="-0.10313">
        <ele>534.15</ele>
        <time>2013-10-24T13:30:26Z</time>
      </trkpt>
      <trkpt lat="43.02979" lon="-0.1031">
        <ele>534.15</ele>
        <time>2013-10-24T13:30:32Z</time>
      </trkpt>
      <trkpt lat="43.02975" lon="-0.10313">
        <ele>534.63</ele>
        <time>2013-10-24T13:30:42Z</time>
      </trkpt>
      <trkpt lat="43.02974" lon="-0.10311">
        <ele>534.63</ele>
        <time>2013-10-24T13:30:43Z</time>
      </trkpt>
      <trkpt lat="43.02974" lon="-0.1031">
        <ele>534.63</ele>
        <time>2013-10-24T13:30:54Z</time>
      </trkpt>
      <trkpt lat="43.02972" lon="-0.10307">
        <ele>534.15</ele>
        <time>2013-10-24T13:31:03Z</time>
      </trkpt>
      <trkpt lat="43.02974" lon="-0.103">
        <ele>534.15</ele>
        <time>2013-10-24T13:31:14Z</time>
      </trkpt>
      <trkpt lat="43.02974" lon="-0.10301">
        <ele>535.11</ele>
        <time>2013-10-24T13:31:19Z</time>
      </trkpt>
      <trkpt lat="43.02976" lon="-0.10306">
        <ele>535.11</ele>
        <time>2013-10-24T13:31:24Z</time>
      </trkpt>
      <trkpt lat="43.02976" lon="-0.10303">
        <ele>534.15</ele>
        <time>2013-10-24T13:31:26Z</time>
      </trkpt>
      <trkpt lat="43.02974" lon="-0.10298">
        <ele>535.11</ele>
        <time>2013-10-24T13:31:34Z</time>
      </trkpt>
      <trkpt lat="43.02975" lon="-0.10297">
        <ele>535.11</ele>
        <time>2013-10-24T13:31:41Z</time>
      </trkpt>
      <trkpt lat="43.02975" lon="-0.10297">
        <ele>535.59</ele>
        <time>2013-10-24T13:31:43Z</time>
      </trkpt>
      <trkpt lat="43.02977" lon="-0.10277">
        <ele>535.11</ele>
        <time>2013-10-24T13:31:53Z</time>
      </trkpt>
      <trkpt lat="43.02977" lon="-0.10263">
        <ele>535.11</ele>
        <time>2013-10-24T13:31:59Z</time>
      </trkpt>
      <trkpt lat="43.02975" lon="-0.10229">
        <ele>534.63</ele>
        <time>2013-10-24T13:32:12Z</time>
      </trkpt>
      <trkpt lat="43.02977" lon="-0.10216">
        <ele>534.63</ele>
        <time>2013-10-24T13:32:15Z</time>
      </trkpt>
      <trkpt lat="43.02982" lon="-0.10198">
        <ele>533.19</ele>
        <time>2013-10-24T13:32:19Z</time>
      </trkpt>
      <trkpt lat="43.02982" lon="-0.10187">
        <ele>532.71</ele>
        <time>2013-10-24T13:32:21Z</time>
      </trkpt>
      <trkpt lat="43.02989" lon="-0.10158">
        <ele>531.27</ele>
        <time>2013-10-24T13:32:26Z</time>
      </trkpt>
      <trkpt lat="43.03002" lon="-0.10105">
        <ele>531.27</ele>
        <time>2013-10-24T13:32:37Z</time>
      </trkpt>
      <trkpt lat="43.03009" lon="-0.10088">
        <ele>530.79</ele>
        <time>2013-10-24T13:32:41Z</time>
      </trkpt>
      <trkpt lat="43.03013" lon="-0.10075">
        <ele>529.34</ele>
        <time>2013-10-24T13:32:43Z</time>
      </trkpt>
      <trkpt lat="43.03015" lon="-0.10054">
        <ele>527.9</ele>
        <time>2013-10-24T13:32:46Z</time>
      </trkpt>
      <trkpt lat="43.03014" lon="-0.10008">
        <ele>525.02</ele>
        <time>2013-10-24T13:32:52Z</time>
      </trkpt>
      <trkpt lat="43.03015" lon="-0.09965">
        <ele>522.61</ele>
        <time>2013-10-24T13:32:57Z</time>
      </trkpt>
      <trkpt lat="43.03016" lon="-0.09916">
        <ele>519.25</ele>
        <time>2013-10-24T13:33:03Z</time>
      </trkpt>
      <trkpt lat="43.03015" lon="-0.09897">
        <ele>519.25</ele>
        <time>2013-10-24T13:33:05Z</time>
      </trkpt>
      <trkpt lat="43.02996" lon="-0.09855">
        <ele>514.92</ele>
        <time>2013-10-24T13:33:10Z</time>
      </trkpt>
      <trkpt lat="43.02978" lon="-0.09829">
        <ele>511.56</ele>
        <time>2013-10-24T13:33:13Z</time>
      </trkpt>
      <trkpt lat="43.02966" lon="-0.09814">
        <ele>510.12</ele>
        <time>2013-10-24T13:33:15Z</time>
      </trkpt>
      <trkpt lat="43.02961" lon="-0.09806">
        <ele>509.16</ele>
        <time>2013-10-24T13:33:16Z</time>
      </trkpt>
      <trkpt lat="43.02948" lon="-0.09774">
        <ele>504.35</ele>
        <time>2013-10-24T13:33:21Z</time>
      </trkpt>
      <trkpt lat="43.02949" lon="-0.09763">
        <ele>501.46</ele>
        <time>2013-10-24T13:33:23Z</time>
      </trkpt>
      <trkpt lat="43.02948" lon="-0.09736">
        <ele>500.02</ele>
        <time>2013-10-24T13:33:28Z</time>
      </trkpt>
      <trkpt lat="43.02948" lon="-0.09705">
        <ele>495.7</ele>
        <time>2013-10-24T13:33:34Z</time>
      </trkpt>
      <trkpt lat="43.0295" lon="-0.09685">
        <ele>494.26</ele>
        <time>2013-10-24T13:33:37Z</time>
      </trkpt>
      <trkpt lat="43.02951" lon="-0.09674">
        <ele>492.81</ele>
        <time>2013-10-24T13:33:39Z</time>
      </trkpt>
      <trkpt lat="43.02952" lon="-0.09667">
        <ele>491.85</ele>
        <time>2013-10-24T13:33:40Z</time>
      </trkpt>
      <trkpt lat="43.02955" lon="-0.09652">
        <ele>490.41</ele>
        <time>2013-10-24T13:33:42Z</time>
      </trkpt>
      <trkpt lat="43.02957" lon="-0.09643">
        <ele>489.93</ele>
        <time>2013-10-24T13:33:43Z</time>
      </trkpt>
      <trkpt lat="43.02962" lon="-0.09617">
        <ele>488.49</ele>
        <time>2013-10-24T13:33:46Z</time>
      </trkpt>
      <trkpt lat="43.02964" lon="-0.09608">
        <ele>488.49</ele>
        <time>2013-10-24T13:33:47Z</time>
      </trkpt>
      <trkpt lat="43.02964" lon="-0.096">
        <ele>488.97</ele>
        <time>2013-10-24T13:33:48Z</time>
      </trkpt>
      <trkpt lat="43.02964" lon="-0.09592">
        <ele>489.45</ele>
        <time>2013-10-24T13:33:49Z</time>
      </trkpt>
      <trkpt lat="43.02964" lon="-0.09585">
        <ele>489.45</ele>
        <time>2013-10-24T13:33:50Z</time>
      </trkpt>
      <trkpt lat="43.02963" lon="-0.09579">
        <ele>488.97</ele>
        <time>2013-10-24T13:33:51Z</time>
      </trkpt>
      <trkpt lat="43.0296" lon="-0.09562">
        <ele>487.53</ele>
        <time>2013-10-24T13:33:54Z</time>
      </trkpt>
      <trkpt lat="43.02959" lon="-0.09557">
        <ele>487.53</ele>
        <time>2013-10-24T13:33:55Z</time>
      </trkpt>
      <trkpt lat="43.0295" lon="-0.09531">
        <ele>483.2</ele>
        <time>2013-10-24T13:33:59Z</time>
      </trkpt>
      <trkpt lat="43.02945" lon="-0.09516">
        <ele>480.32</ele>
        <time>2013-10-24T13:34:01Z</time>
      </trkpt>
      <trkpt lat="43.02945" lon="-0.09507">
        <ele>479.35</ele>
        <time>2013-10-24T13:34:02Z</time>
      </trkpt>
      <trkpt lat="43.02947" lon="-0.09499">
        <ele>477.91</ele>
        <time>2013-10-24T13:34:03Z</time>
      </trkpt>
      <trkpt lat="43.0295" lon="-0.0949">
        <ele>475.51</ele>
        <time>2013-10-24T13:34:04Z</time>
      </trkpt>
      <trkpt lat="43.02954" lon="-0.09481">
        <ele>474.07</ele>
        <time>2013-10-24T13:34:05Z</time>
      </trkpt>
      <trkpt lat="43.02961" lon="-0.09464">
        <ele>470.7</ele>
        <time>2013-10-24T13:34:07Z</time>
      </trkpt>
      <trkpt lat="43.02968" lon="-0.09447">
        <ele>467.82</ele>
        <time>2013-10-24T13:34:09Z</time>
      </trkpt>
      <trkpt lat="43.02974" lon="-0.09432">
        <ele>464.93</ele>
        <time>2013-10-24T13:34:11Z</time>
      </trkpt>
      <trkpt lat="43.02976" lon="-0.09423">
        <ele>463.97</ele>
        <time>2013-10-24T13:34:12Z</time>
      </trkpt>
      <trkpt lat="43.02978" lon="-0.09407">
        <ele>462.05</ele>
        <time>2013-10-24T13:34:14Z</time>
      </trkpt>
      <trkpt lat="43.02981" lon="-0.09399">
        <ele>461.09</ele>
        <time>2013-10-24T13:34:15Z</time>
      </trkpt>
      <trkpt lat="43.02983" lon="-0.09391">
        <ele>460.13</ele>
        <time>2013-10-24T13:34:16Z</time>
      </trkpt>
      <trkpt lat="43.02984" lon="-0.09385">
        <ele>459.65</ele>
        <time>2013-10-24T13:34:17Z</time>
      </trkpt>
      <trkpt lat="43.02986" lon="-0.09378">
        <ele>458.69</ele>
        <time>2013-10-24T13:34:18Z</time>
      </trkpt>
      <trkpt lat="43.02988" lon="-0.09372">
        <ele>457.72</ele>
        <time>2013-10-24T13:34:19Z</time>
      </trkpt>
      <trkpt lat="43.02989" lon="-0.09364">
        <ele>456.28</ele>
        <time>2013-10-24T13:34:20Z</time>
      </trkpt>
      <trkpt lat="43.0299" lon="-0.09355">
        <ele>454.84</ele>
        <time>2013-10-24T13:34:21Z</time>
      </trkpt>
      <trkpt lat="43.02991" lon="-0.09345">
        <ele>453.4</ele>
        <time>2013-10-24T13:34:22Z</time>
      </trkpt>
      <trkpt lat="43.02992" lon="-0.09335">
        <ele>452.44</ele>
        <time>2013-10-24T13:34:23Z</time>
      </trkpt>
      <trkpt lat="43.02993" lon="-0.09326">
        <ele>451.48</ele>
        <time>2013-10-24T13:34:24Z</time>
      </trkpt>
      <trkpt lat="43.02995" lon="-0.09317">
        <ele>450.03</ele>
        <time>2013-10-24T13:34:25Z</time>
      </trkpt>
      <trkpt lat="43.02997" lon="-0.09309">
        <ele>449.07</ele>
        <time>2013-10-24T13:34:26Z</time>
      </trkpt>
      <trkpt lat="43.02999" lon="-0.09302">
        <ele>448.59</ele>
        <time>2013-10-24T13:34:27Z</time>
      </trkpt>
      <trkpt lat="43.03" lon="-0.09289">
        <ele>448.11</ele>
        <time>2013-10-24T13:34:30Z</time>
      </trkpt>
      <trkpt lat="43.03001" lon="-0.09278">
        <ele>447.63</ele>
        <time>2013-10-24T13:34:34Z</time>
      </trkpt>
      <trkpt lat="43.03006" lon="-0.09278">
        <ele>447.63</ele>
        <time>2013-10-24T13:34:39Z</time>
      </trkpt>
      <trkpt lat="43.03007" lon="-0.09278">
        <ele>447.63</ele>
        <time>2013-10-24T13:34:40Z</time>
      </trkpt>
      <trkpt lat="43.03009" lon="-0.09279">
        <ele>448.11</ele>
        <time>2013-10-24T13:34:55Z</time>
      </trkpt>
      <trkpt lat="43.03008" lon="-0.09279">
        <ele>448.59</ele>
        <time>2013-10-24T13:35:27Z</time>
      </trkpt>
      <trkpt lat="43.03008" lon="-0.09279">
        <ele>448.11</ele>
        <time>2013-10-24T13:36:03Z</time>
      </trkpt>
      <trkpt lat="43.0301" lon="-0.09278">
        <ele>446.67</ele>
        <time>2013-10-24T13:36:33Z</time>
      </trkpt>
      <trkpt lat="43.03013" lon="-0.09279">
        <ele>447.15</ele>
        <time>2013-10-24T13:36:35Z</time>
      </trkpt>
      <trkpt lat="43.03038" lon="-0.09268">
        <ele>450.03</ele>
        <time>2013-10-24T13:36:50Z</time>
      </trkpt>
      <trkpt lat="43.03055" lon="-0.09252">
        <ele>453.4</ele>
        <time>2013-10-24T13:37:03Z</time>
      </trkpt>
      <trkpt lat="43.03079" lon="-0.09229">
        <ele>454.36</ele>
        <time>2013-10-24T13:37:17Z</time>
      </trkpt>
      <trkpt lat="43.03109" lon="-0.092">
        <ele>456.76</ele>
        <time>2013-10-24T13:37:31Z</time>
      </trkpt>
      <trkpt lat="43.03131" lon="-0.09178">
        <ele>459.17</ele>
        <time>2013-10-24T13:37:41Z</time>
      </trkpt>
      <trkpt lat="43.03133" lon="-0.09175">
        <ele>459.17</ele>
        <time>2013-10-24T13:37:42Z</time>
      </trkpt>
      <trkpt lat="43.03136" lon="-0.09173">
        <ele>459.17</ele>
        <time>2013-10-24T13:37:43Z</time>
      </trkpt>
      <trkpt lat="43.03138" lon="-0.0917">
        <ele>459.17</ele>
        <time>2013-10-24T13:37:44Z</time>
      </trkpt>
      <trkpt lat="43.03141" lon="-0.09167">
        <ele>459.17</ele>
        <time>2013-10-24T13:37:45Z</time>
      </trkpt>
      <trkpt lat="43.03144" lon="-0.09163">
        <ele>459.17</ele>
        <time>2013-10-24T13:37:46Z</time>
      </trkpt>
      <trkpt lat="43.03146" lon="-0.09159">
        <ele>459.17</ele>
        <time>2013-10-24T13:37:47Z</time>
      </trkpt>
      <trkpt lat="43.03168" lon="-0.09108">
        <ele>461.09</ele>
        <time>2013-10-24T13:38:00Z</time>
      </trkpt>
      <trkpt lat="43.03173" lon="-0.0909">
        <ele>463.01</ele>
        <time>2013-10-24T13:38:05Z</time>
      </trkpt>
      <trkpt lat="43.03175" lon="-0.09087">
        <ele>463.01</ele>
        <time>2013-10-24T13:38:06Z</time>
      </trkpt>
      <trkpt lat="43.03176" lon="-0.09083">
        <ele>463.01</ele>
        <time>2013-10-24T13:38:07Z</time>
      </trkpt>
      <trkpt lat="43.03177" lon="-0.0908">
        <ele>463.97</ele>
        <time>2013-10-24T13:38:08Z</time>
      </trkpt>
      <trkpt lat="43.03178" lon="-0.09077">
        <ele>463.49</ele>
        <time>2013-10-24T13:38:09Z</time>
      </trkpt>
      <trkpt lat="43.03179" lon="-0.09073">
        <ele>463.49</ele>
        <time>2013-10-24T13:38:10Z</time>
      </trkpt>
      <trkpt lat="43.0318" lon="-0.0907">
        <ele>463.97</ele>
        <time>2013-10-24T13:38:11Z</time>
      </trkpt>
      <trkpt lat="43.03181" lon="-0.09066">
        <ele>464.45</ele>
        <time>2013-10-24T13:38:12Z</time>
      </trkpt>
      <trkpt lat="43.03182" lon="-0.09063">
        <ele>464.45</ele>
        <time>2013-10-24T13:38:13Z</time>
      </trkpt>
      <trkpt lat="43.03183" lon="-0.0906">
        <ele>464.93</ele>
        <time>2013-10-24T13:38:14Z</time>
      </trkpt>
      <trkpt lat="43.03185" lon="-0.09057">
        <ele>464.93</ele>
        <time>2013-10-24T13:38:15Z</time>
      </trkpt>
      <trkpt lat="43.03186" lon="-0.09054">
        <ele>464.93</ele>
        <time>2013-10-24T13:38:16Z</time>
      </trkpt>
      <trkpt lat="43.03187" lon="-0.09052">
        <ele>465.42</ele>
        <time>2013-10-24T13:38:17Z</time>
      </trkpt>
      <trkpt lat="43.03188" lon="-0.09049">
        <ele>465.9</ele>
        <time>2013-10-24T13:38:18Z</time>
      </trkpt>
      <trkpt lat="43.03189" lon="-0.09046">
        <ele>466.86</ele>
        <time>2013-10-24T13:38:19Z</time>
      </trkpt>
      <trkpt lat="43.0319" lon="-0.09042">
        <ele>466.38</ele>
        <time>2013-10-24T13:38:20Z</time>
      </trkpt>
      <trkpt lat="43.0319" lon="-0.09039">
        <ele>467.34</ele>
        <time>2013-10-24T13:38:21Z</time>
      </trkpt>
      <trkpt lat="43.03191" lon="-0.09036">
        <ele>466.86</ele>
        <time>2013-10-24T13:38:22Z</time>
      </trkpt>
      <trkpt lat="43.03192" lon="-0.09033">
        <ele>467.82</ele>
        <time>2013-10-24T13:38:23Z</time>
      </trkpt>
      <trkpt lat="43.03193" lon="-0.0903">
        <ele>467.82</ele>
        <time>2013-10-24T13:38:24Z</time>
      </trkpt>
      <trkpt lat="43.03194" lon="-0.09027">
        <ele>467.82</ele>
        <time>2013-10-24T13:38:25Z</time>
      </trkpt>
      <trkpt lat="43.03195" lon="-0.09023">
        <ele>468.3</ele>
        <time>2013-10-24T13:38:26Z</time>
      </trkpt>
      <trkpt lat="43.03201" lon="-0.08979">
        <ele>470.7</ele>
        <time>2013-10-24T13:38:38Z</time>
      </trkpt>
      <trkpt lat="43.03204" lon="-0.0894">
        <ele>474.07</ele>
        <time>2013-10-24T13:38:48Z</time>
      </trkpt>
      <trkpt lat="43.03208" lon="-0.08897">
        <ele>477.43</ele>
        <time>2013-10-24T13:39:00Z</time>
      </trkpt>
      <trkpt lat="43.0321" lon="-0.08873">
        <ele>480.32</ele>
        <time>2013-10-24T13:39:07Z</time>
      </trkpt>
      <trkpt lat="43.03222" lon="-0.08851">
        <ele>484.16</ele>
        <time>2013-10-24T13:39:16Z</time>
      </trkpt>
      <trkpt lat="43.03241" lon="-0.08813">
        <ele>486.08</ele>
        <time>2013-10-24T13:39:27Z</time>
      </trkpt>
      <trkpt lat="43.0327" lon="-0.08743">
        <ele>487.05</ele>
        <time>2013-10-24T13:39:40Z</time>
      </trkpt>
      <trkpt lat="43.03276" lon="-0.08726">
        <ele>487.05</ele>
        <time>2013-10-24T13:39:43Z</time>
      </trkpt>
      <trkpt lat="43.03281" lon="-0.08708">
        <ele>488.01</ele>
        <time>2013-10-24T13:39:46Z</time>
      </trkpt>
      <trkpt lat="43.03297" lon="-0.0867">
        <ele>490.41</ele>
        <time>2013-10-24T13:39:53Z</time>
      </trkpt>
      <trkpt lat="43.03306" lon="-0.08642">
        <ele>490.89</ele>
        <time>2013-10-24T13:39:58Z</time>
      </trkpt>
      <trkpt lat="43.03324" lon="-0.08602">
        <ele>489.93</ele>
        <time>2013-10-24T13:40:04Z</time>
      </trkpt>
      <trkpt lat="43.03355" lon="-0.08547">
        <ele>488.97</ele>
        <time>2013-10-24T13:40:11Z</time>
      </trkpt>
      <trkpt lat="43.03394" lon="-0.08516">
        <ele>486.08</ele>
        <time>2013-10-24T13:40:17Z</time>
      </trkpt>
      <trkpt lat="43.03398" lon="-0.08506">
        <ele>486.08</ele>
        <time>2013-10-24T13:40:18Z</time>
      </trkpt>
      <trkpt lat="43.03406" lon="-0.08486">
        <ele>486.56</ele>
        <time>2013-10-24T13:40:20Z</time>
      </trkpt>
      <trkpt lat="43.03425" lon="-0.08456">
        <ele>487.05</ele>
        <time>2013-10-24T13:40:24Z</time>
      </trkpt>
      <trkpt lat="43.03431" lon="-0.08411">
        <ele>484.64</ele>
        <time>2013-10-24T13:40:30Z</time>
      </trkpt>
      <trkpt lat="43.03414" lon="-0.08387">
        <ele>481.76</ele>
        <time>2013-10-24T13:40:33Z</time>
      </trkpt>
      <trkpt lat="43.03411" lon="-0.08373">
        <ele>478.87</ele>
        <time>2013-10-24T13:40:35Z</time>
      </trkpt>
      <trkpt lat="43.03412" lon="-0.08366">
        <ele>478.39</ele>
        <time>2013-10-24T13:40:36Z</time>
      </trkpt>
      <trkpt lat="43.03415" lon="-0.0836">
        <ele>478.39</ele>
        <time>2013-10-24T13:40:37Z</time>
      </trkpt>
      <trkpt lat="43.03429" lon="-0.08318">
        <ele>477.43</ele>
        <time>2013-10-24T13:40:43Z</time>
      </trkpt>
      <trkpt lat="43.03451" lon="-0.0827">
        <ele>477.43</ele>
        <time>2013-10-24T13:40:50Z</time>
      </trkpt>
      <trkpt lat="43.03475" lon="-0.08211">
        <ele>479.84</ele>
        <time>2013-10-24T13:41:03Z</time>
      </trkpt>
      <trkpt lat="43.03494" lon="-0.08162">
        <ele>482.24</ele>
        <time>2013-10-24T13:41:16Z</time>
      </trkpt>
      <trkpt lat="43.03522" lon="-0.08121">
        <ele>483.68</ele>
        <time>2013-10-24T13:41:29Z</time>
      </trkpt>
      <trkpt lat="43.03561" lon="-0.08084">
        <ele>483.68</ele>
        <time>2013-10-24T13:41:43Z</time>
      </trkpt>
      <trkpt lat="43.03597" lon="-0.08061">
        <ele>484.64</ele>
        <time>2013-10-24T13:41:56Z</time>
      </trkpt>
      <trkpt lat="43.03612" lon="-0.08013">
        <ele>485.12</ele>
        <time>2013-10-24T13:42:07Z</time>
      </trkpt>
      <trkpt lat="43.03625" lon="-0.07994">
        <ele>486.56</ele>
        <time>2013-10-24T13:42:18Z</time>
      </trkpt>
      <trkpt lat="43.03626" lon="-0.0799">
        <ele>487.05</ele>
        <time>2013-10-24T13:42:32Z</time>
      </trkpt>
      <trkpt lat="43.03627" lon="-0.07989">
        <ele>486.08</ele>
        <time>2013-10-24T13:42:43Z</time>
      </trkpt>
      <trkpt lat="43.03627" lon="-0.07988">
        <ele>487.05</ele>
        <time>2013-10-24T13:43:15Z</time>
      </trkpt>
      <trkpt lat="43.03627" lon="-0.07987">
        <ele>485.6</ele>
        <time>2013-10-24T13:43:27Z</time>
      </trkpt>
      <trkpt lat="43.03635" lon="-0.07982">
        <ele>484.16</ele>
        <time>2013-10-24T13:43:31Z</time>
      </trkpt>
      <trkpt lat="43.03656" lon="-0.07961">
        <ele>485.6</ele>
        <time>2013-10-24T13:43:39Z</time>
      </trkpt>
      <trkpt lat="43.03668" lon="-0.07943">
        <ele>487.05</ele>
        <time>2013-10-24T13:43:46Z</time>
      </trkpt>
      <trkpt lat="43.03693" lon="-0.0796">
        <ele>488.01</ele>
        <time>2013-10-24T13:43:56Z</time>
      </trkpt>
      <trkpt lat="43.03716" lon="-0.0797">
        <ele>489.93</ele>
        <time>2013-10-24T13:44:05Z</time>
      </trkpt>
      <trkpt lat="43.0375" lon="-0.07966">
        <ele>490.41</ele>
        <time>2013-10-24T13:44:16Z</time>
      </trkpt>
      <trkpt lat="43.03761" lon="-0.0796">
        <ele>492.33</ele>
        <time>2013-10-24T13:44:20Z</time>
      </trkpt>
      <trkpt lat="43.03783" lon="-0.0795">
        <ele>495.22</ele>
        <time>2013-10-24T13:44:31Z</time>
      </trkpt>
      <trkpt lat="43.03798" lon="-0.07939">
        <ele>494.26</ele>
        <time>2013-10-24T13:44:37Z</time>
      </trkpt>
      <trkpt lat="43.03802" lon="-0.07922">
        <ele>493.77</ele>
        <time>2013-10-24T13:44:43Z</time>
      </trkpt>
      <trkpt lat="43.0382" lon="-0.07884">
        <ele>496.66</ele>
        <time>2013-10-24T13:44:53Z</time>
      </trkpt>
      <trkpt lat="43.03829" lon="-0.07869">
        <ele>498.1</ele>
        <time>2013-10-24T13:44:57Z</time>
      </trkpt>
      <trkpt lat="43.0383" lon="-0.07858">
        <ele>498.58</ele>
        <time>2013-10-24T13:45:00Z</time>
      </trkpt>
      <trkpt lat="43.03834" lon="-0.07841">
        <ele>500.02</ele>
        <time>2013-10-24T13:45:04Z</time>
      </trkpt>
      <trkpt lat="43.03839" lon="-0.07822">
        <ele>500.02</ele>
        <time>2013-10-24T13:45:08Z</time>
      </trkpt>
      <trkpt lat="43.03849" lon="-0.07813">
        <ele>502.43</ele>
        <time>2013-10-24T13:45:13Z</time>
      </trkpt>
      <trkpt lat="43.03853" lon="-0.07812">
        <ele>503.39</ele>
        <time>2013-10-24T13:45:15Z</time>
      </trkpt>
      <trkpt lat="43.03859" lon="-0.07809">
        <ele>503.87</ele>
        <time>2013-10-24T13:45:18Z</time>
      </trkpt>
      <trkpt lat="43.03864" lon="-0.07807">
        <ele>504.83</ele>
        <time>2013-10-24T13:45:21Z</time>
      </trkpt>
      <trkpt lat="43.0388" lon="-0.07782">
        <ele>508.67</ele>
        <time>2013-10-24T13:45:34Z</time>
      </trkpt>
      <trkpt lat="43.03884" lon="-0.07777">
        <ele>509.64</ele>
        <time>2013-10-24T13:45:37Z</time>
      </trkpt>
      <trkpt lat="43.03888" lon="-0.07769">
        <ele>510.6</ele>
        <time>2013-10-24T13:45:41Z</time>
      </trkpt>
      <trkpt lat="43.03896" lon="-0.07747">
        <ele>512.52</ele>
        <time>2013-10-24T13:45:51Z</time>
      </trkpt>
      <trkpt lat="43.03898" lon="-0.07738">
        <ele>513</ele>
        <time>2013-10-24T13:45:56Z</time>
      </trkpt>
      <trkpt lat="43.03894" lon="-0.07718">
        <ele>508.67</ele>
        <time>2013-10-24T13:46:01Z</time>
      </trkpt>
      <trkpt lat="43.03889" lon="-0.07687">
        <ele>502.91</ele>
        <time>2013-10-24T13:46:06Z</time>
      </trkpt>
      <trkpt lat="43.0389" lon="-0.07683">
        <ele>502.43</ele>
        <time>2013-10-24T13:46:07Z</time>
      </trkpt>
      <trkpt lat="43.03891" lon="-0.07673">
        <ele>500.98</ele>
        <time>2013-10-24T13:46:10Z</time>
      </trkpt>
      <trkpt lat="43.03886" lon="-0.07635">
        <ele>495.22</ele>
        <time>2013-10-24T13:46:16Z</time>
      </trkpt>
      <trkpt lat="43.03889" lon="-0.07589">
        <ele>489.45</ele>
        <time>2013-10-24T13:46:22Z</time>
      </trkpt>
      <trkpt lat="43.03888" lon="-0.07581">
        <ele>488.97</ele>
        <time>2013-10-24T13:46:23Z</time>
      </trkpt>
      <trkpt lat="43.03886" lon="-0.07556">
        <ele>487.05</ele>
        <time>2013-10-24T13:46:26Z</time>
      </trkpt>
      <trkpt lat="43.03889" lon="-0.07533">
        <ele>485.6</ele>
        <time>2013-10-24T13:46:29Z</time>
      </trkpt>
      <trkpt lat="43.03895" lon="-0.07511">
        <ele>486.08</ele>
        <time>2013-10-24T13:46:33Z</time>
      </trkpt>
      <trkpt lat="43.03896" lon="-0.07458">
        <ele>482.72</ele>
        <time>2013-10-24T13:46:41Z</time>
      </trkpt>
      <trkpt lat="43.03897" lon="-0.07442">
        <ele>481.28</ele>
        <time>2013-10-24T13:46:43Z</time>
      </trkpt>
      <trkpt lat="43.03903" lon="-0.07399">
        <ele>477.43</ele>
        <time>2013-10-24T13:46:49Z</time>
      </trkpt>
      <trkpt lat="43.03903" lon="-0.07385">
        <ele>476.47</ele>
        <time>2013-10-24T13:46:51Z</time>
      </trkpt>
      <trkpt lat="43.039" lon="-0.07364">
        <ele>472.63</ele>
        <time>2013-10-24T13:46:54Z</time>
      </trkpt>
      <trkpt lat="43.0389" lon="-0.07333">
        <ele>468.78</ele>
        <time>2013-10-24T13:47:01Z</time>
      </trkpt>
      <trkpt lat="43.03882" lon="-0.07321">
        <ele>464.93</ele>
        <time>2013-10-24T13:47:05Z</time>
      </trkpt>
      <trkpt lat="43.03876" lon="-0.07315">
        <ele>461.57</ele>
        <time>2013-10-24T13:47:08Z</time>
      </trkpt>
      <trkpt lat="43.03872" lon="-0.07305">
        <ele>458.21</ele>
        <time>2013-10-24T13:47:13Z</time>
      </trkpt>
      <trkpt lat="43.03863" lon="-0.07302">
        <ele>453.4</ele>
        <time>2013-10-24T13:47:16Z</time>
      </trkpt>
      <trkpt lat="43.03856" lon="-0.07305">
        <ele>451.48</ele>
        <time>2013-10-24T13:47:19Z</time>
      </trkpt>
      <trkpt lat="43.03858" lon="-0.07304">
        <ele>451.48</ele>
        <time>2013-10-24T13:47:22Z</time>
      </trkpt>
      <trkpt lat="43.03858" lon="-0.073">
        <ele>451.96</ele>
        <time>2013-10-24T13:47:24Z</time>
      </trkpt>
      <trkpt lat="43.03862" lon="-0.07295">
        <ele>451.48</ele>
        <time>2013-10-24T13:47:36Z</time>
      </trkpt>
      <trkpt lat="43.03862" lon="-0.07294">
        <ele>451</ele>
        <time>2013-10-24T13:48:10Z</time>
      </trkpt>
      <trkpt lat="43.03862" lon="-0.07294">
        <ele>451.96</ele>
        <time>2013-10-24T13:48:46Z</time>
      </trkpt>
      <trkpt lat="43.03861" lon="-0.07296">
        <ele>452.44</ele>
        <time>2013-10-24T13:49:15Z</time>
      </trkpt>
      <trkpt lat="43.03867" lon="-0.07298">
        <ele>454.84</ele>
        <time>2013-10-24T13:49:27Z</time>
      </trkpt>
      <trkpt lat="43.03867" lon="-0.07298">
        <ele>455.32</ele>
        <time>2013-10-24T13:49:40Z</time>
      </trkpt>
      <trkpt lat="43.03867" lon="-0.07298">
        <ele>455.32</ele>
        <time>2013-10-24T13:49:42Z</time>
      </trkpt>
      <trkpt lat="43.03861" lon="-0.073">
        <ele>453.88</ele>
        <time>2013-10-24T13:49:45Z</time>
      </trkpt>
      <trkpt lat="43.03854" lon="-0.07302">
        <ele>451.48</ele>
        <time>2013-10-24T13:49:51Z</time>
      </trkpt>
      <trkpt lat="43.03854" lon="-0.07301">
        <ele>451.96</ele>
        <time>2013-10-24T13:49:52Z</time>
      </trkpt>
      <trkpt lat="43.03857" lon="-0.07302">
        <ele>451.96</ele>
        <time>2013-10-24T13:50:02Z</time>
      </trkpt>
      <trkpt lat="43.03857" lon="-0.07302">
        <ele>451.96</ele>
        <time>2013-10-24T13:50:16Z</time>
      </trkpt>
      <trkpt lat="43.03858" lon="-0.07297">
        <ele>451.96</ele>
        <time>2013-10-24T13:50:33Z</time>
      </trkpt>
      <trkpt lat="43.03858" lon="-0.07297">
        <ele>451.48</ele>
        <time>2013-10-24T13:50:48Z</time>
      </trkpt>
      <trkpt lat="43.03859" lon="-0.07297">
        <ele>451.48</ele>
        <time>2013-10-24T13:51:03Z</time>
      </trkpt>
      <trkpt lat="43.0386" lon="-0.07294">
        <ele>451.96</ele>
        <time>2013-10-24T13:51:07Z</time>
      </trkpt>
      <trkpt lat="43.03868" lon="-0.07282">
        <ele>451.48</ele>
        <time>2013-10-24T13:51:13Z</time>
      </trkpt>
      <trkpt lat="43.03889" lon="-0.07262">
        <ele>452.44</ele>
        <time>2013-10-24T13:51:26Z</time>
      </trkpt>
      <trkpt lat="43.03901" lon="-0.07225">
        <ele>451.96</ele>
        <time>2013-10-24T13:51:38Z</time>
      </trkpt>
      <trkpt lat="43.03906" lon="-0.07199">
        <ele>451.48</ele>
        <time>2013-10-24T13:51:48Z</time>
      </trkpt>
      <trkpt lat="43.03908" lon="-0.0719">
        <ele>450.52</ele>
        <time>2013-10-24T13:51:50Z</time>
      </trkpt>
      <trkpt lat="43.03907" lon="-0.07161">
        <ele>446.19</ele>
        <time>2013-10-24T13:51:55Z</time>
      </trkpt>
      <trkpt lat="43.03907" lon="-0.07155">
        <ele>444.75</ele>
        <time>2013-10-24T13:51:56Z</time>
      </trkpt>
      <trkpt lat="43.03909" lon="-0.07144">
        <ele>442.34</ele>
        <time>2013-10-24T13:51:58Z</time>
      </trkpt>
      <trkpt lat="43.03916" lon="-0.07121">
        <ele>438.02</ele>
        <time>2013-10-24T13:52:02Z</time>
      </trkpt>
      <trkpt lat="43.03932" lon="-0.07084">
        <ele>432.25</ele>
        <time>2013-10-24T13:52:10Z</time>
      </trkpt>
      <trkpt lat="43.03946" lon="-0.07071">
        <ele>430.33</ele>
        <time>2013-10-24T13:52:16Z</time>
      </trkpt>
      <trkpt lat="43.0396" lon="-0.07056">
        <ele>428.89</ele>
        <time>2013-10-24T13:52:21Z</time>
      </trkpt>
      <trkpt lat="43.03962" lon="-0.07051">
        <ele>427.92</ele>
        <time>2013-10-24T13:52:22Z</time>
      </trkpt>
      <trkpt lat="43.0397" lon="-0.07033">
        <ele>425.52</ele>
        <time>2013-10-24T13:52:30Z</time>
      </trkpt>
      <trkpt lat="43.03977" lon="-0.07018">
        <ele>422.64</ele>
        <time>2013-10-24T13:52:38Z</time>
      </trkpt>
      <trkpt lat="43.03977" lon="-0.07014">
        <ele>422.16</ele>
        <time>2013-10-24T13:52:45Z</time>
      </trkpt>
      <trkpt lat="43.0397" lon="-0.0701">
        <ele>419.27</ele>
        <time>2013-10-24T13:52:49Z</time>
      </trkpt>
      <trkpt lat="43.03976" lon="-0.07002">
        <ele>419.27</ele>
        <time>2013-10-24T13:52:55Z</time>
      </trkpt>
      <trkpt lat="43.03977" lon="-0.07003">
        <ele>419.27</ele>
        <time>2013-10-24T13:53:07Z</time>
      </trkpt>
      <trkpt lat="43.03982" lon="-0.06992">
        <ele>419.27</ele>
        <time>2013-10-24T13:53:14Z</time>
      </trkpt>
      <trkpt lat="43.03991" lon="-0.06974">
        <ele>417.83</ele>
        <time>2013-10-24T13:53:20Z</time>
      </trkpt>
      <trkpt lat="43.04002" lon="-0.0694">
        <ele>414.47</ele>
        <time>2013-10-24T13:53:25Z</time>
      </trkpt>
      <trkpt lat="43.04014" lon="-0.06899">
        <ele>412.06</ele>
        <time>2013-10-24T13:53:29Z</time>
      </trkpt>
      <trkpt lat="43.04035" lon="-0.06847">
        <ele>409.66</ele>
        <time>2013-10-24T13:53:34Z</time>
      </trkpt>
      <trkpt lat="43.04047" lon="-0.06805">
        <ele>409.66</ele>
        <time>2013-10-24T13:53:38Z</time>
      </trkpt>
      <trkpt lat="43.04058" lon="-0.06756">
        <ele>409.18</ele>
        <time>2013-10-24T13:53:43Z</time>
      </trkpt>
      <trkpt lat="43.04065" lon="-0.06701">
        <ele>407.74</ele>
        <time>2013-10-24T13:53:51Z</time>
      </trkpt>
      <trkpt lat="43.04059" lon="-0.0669">
        <ele>406.29</ele>
        <time>2013-10-24T13:53:59Z</time>
      </trkpt>
      <trkpt lat="43.04053" lon="-0.06691">
        <ele>404.37</ele>
        <time>2013-10-24T13:54:05Z</time>
      </trkpt>
      <trkpt lat="43.04049" lon="-0.06694">
        <ele>403.89</ele>
        <time>2013-10-24T13:54:07Z</time>
      </trkpt>
      <trkpt lat="43.04044" lon="-0.06696">
        <ele>402.45</ele>
        <time>2013-10-24T13:54:09Z</time>
      </trkpt>
      <trkpt lat="43.04037" lon="-0.06718">
        <ele>401.49</ele>
        <time>2013-10-24T13:54:19Z</time>
      </trkpt>
      <trkpt lat="43.04041" lon="-0.06738">
        <ele>401.49</ele>
        <time>2013-10-24T13:54:27Z</time>
      </trkpt>
      <trkpt lat="43.04041" lon="-0.06744">
        <ele>401.97</ele>
        <time>2013-10-24T13:54:29Z</time>
      </trkpt>
      <trkpt lat="43.04035" lon="-0.06754">
        <ele>401.97</ele>
        <time>2013-10-24T13:54:34Z</time>
      </trkpt>
      <trkpt lat="43.04009" lon="-0.06765">
        <ele>401.49</ele>
        <time>2013-10-24T13:54:44Z</time>
      </trkpt>
      <trkpt lat="43.04002" lon="-0.06761">
        <ele>401.97</ele>
        <time>2013-10-24T13:54:48Z</time>
      </trkpt>
      <trkpt lat="43.04009" lon="-0.06754">
        <ele>401.49</ele>
        <time>2013-10-24T13:54:55Z</time>
      </trkpt>
      <trkpt lat="43.04014" lon="-0.06751">
        <ele>401.49</ele>
        <time>2013-10-24T13:54:58Z</time>
      </trkpt>
      <trkpt lat="43.04012" lon="-0.06749">
        <ele>401.49</ele>
        <time>2013-10-24T13:55:03Z</time>
      </trkpt>
      <trkpt lat="43.04004" lon="-0.06762">
        <ele>401.49</ele>
        <time>2013-10-24T13:55:12Z</time>
      </trkpt>
      <trkpt lat="43.03996" lon="-0.06756">
        <ele>401.49</ele>
        <time>2013-10-24T13:55:17Z</time>
      </trkpt>
      <trkpt lat="43.03969" lon="-0.06729">
        <ele>401.49</ele>
        <time>2013-10-24T13:55:31Z</time>
      </trkpt>
      <trkpt lat="43.03957" lon="-0.06737">
        <ele>401.01</ele>
        <time>2013-10-24T13:55:36Z</time>
      </trkpt>
      <trkpt lat="43.03897" lon="-0.06786">
        <ele>401.97</ele>
        <time>2013-10-24T13:55:55Z</time>
      </trkpt>
      <trkpt lat="43.03843" lon="-0.06828">
        <ele>401.97</ele>
        <time>2013-10-24T13:56:11Z</time>
      </trkpt>
      <trkpt lat="43.03801" lon="-0.06859">
        <ele>402.45</ele>
        <time>2013-10-24T13:56:24Z</time>
      </trkpt>
      <trkpt lat="43.03756" lon="-0.06885">
        <ele>402.93</ele>
        <time>2013-10-24T13:56:38Z</time>
      </trkpt>
      <trkpt lat="43.03745" lon="-0.06844">
        <ele>402.45</ele>
        <time>2013-10-24T13:56:46Z</time>
      </trkpt>
      <trkpt lat="43.03744" lon="-0.06825">
        <ele>402.93</ele>
        <time>2013-10-24T13:56:49Z</time>
      </trkpt>
      <trkpt lat="43.03747" lon="-0.06805">
        <ele>402.45</ele>
        <time>2013-10-24T13:56:52Z</time>
      </trkpt>
      <trkpt lat="43.03782" lon="-0.06708">
        <ele>401.49</ele>
        <time>2013-10-24T13:57:07Z</time>
      </trkpt>
      <trkpt lat="43.03793" lon="-0.06655">
        <ele>400.53</ele>
        <time>2013-10-24T13:57:14Z</time>
      </trkpt>
      <trkpt lat="43.03794" lon="-0.06634">
        <ele>401.01</ele>
        <time>2013-10-24T13:57:17Z</time>
      </trkpt>
      <trkpt lat="43.03785" lon="-0.06578">
        <ele>401.01</ele>
        <time>2013-10-24T13:57:25Z</time>
      </trkpt>
      <trkpt lat="43.03781" lon="-0.06564">
        <ele>401.01</ele>
        <time>2013-10-24T13:57:27Z</time>
      </trkpt>
      <trkpt lat="43.03774" lon="-0.06546">
        <ele>401.01</ele>
        <time>2013-10-24T13:57:30Z</time>
      </trkpt>
      <trkpt lat="43.03757" lon="-0.06501">
        <ele>401.49</ele>
        <time>2013-10-24T13:57:37Z</time>
      </trkpt>
      <trkpt lat="43.03731" lon="-0.06468">
        <ele>401.01</ele>
        <time>2013-10-24T13:57:44Z</time>
      </trkpt>
      <trkpt lat="43.037" lon="-0.06455">
        <ele>401.97</ele>
        <time>2013-10-24T13:57:50Z</time>
      </trkpt>
      <trkpt lat="43.03659" lon="-0.06437">
        <ele>401.97</ele>
        <time>2013-10-24T13:57:58Z</time>
      </trkpt>
      <trkpt lat="43.03643" lon="-0.06433">
        <ele>402.45</ele>
        <time>2013-10-24T13:58:01Z</time>
      </trkpt>
      <trkpt lat="43.0354" lon="-0.06402">
        <ele>401.97</ele>
        <time>2013-10-24T13:58:20Z</time>
      </trkpt>
      <trkpt lat="43.03514" lon="-0.06397">
        <ele>401.49</ele>
        <time>2013-10-24T13:58:25Z</time>
      </trkpt>
      <trkpt lat="43.03504" lon="-0.06396">
        <ele>401.97</ele>
        <time>2013-10-24T13:58:27Z</time>
      </trkpt>
      <trkpt lat="43.03474" lon="-0.0639">
        <ele>402.45</ele>
        <time>2013-10-24T13:58:33Z</time>
      </trkpt>
      <trkpt lat="43.03387" lon="-0.06397">
        <ele>403.41</ele>
        <time>2013-10-24T13:58:51Z</time>
      </trkpt>
      <trkpt lat="43.03309" lon="-0.06422">
        <ele>403.89</ele>
        <time>2013-10-24T13:59:08Z</time>
      </trkpt>
      <trkpt lat="43.03259" lon="-0.06446">
        <ele>404.37</ele>
        <time>2013-10-24T13:59:19Z</time>
      </trkpt>
      <trkpt lat="43.03204" lon="-0.06482">
        <ele>404.85</ele>
        <time>2013-10-24T13:59:32Z</time>
      </trkpt>
      <trkpt lat="43.03191" lon="-0.06492">
        <ele>404.37</ele>
        <time>2013-10-24T13:59:35Z</time>
      </trkpt>
      <trkpt lat="43.03143" lon="-0.06536">
        <ele>405.33</ele>
        <time>2013-10-24T13:59:47Z</time>
      </trkpt>
      <trkpt lat="43.03106" lon="-0.06575">
        <ele>405.33</ele>
        <time>2013-10-24T13:59:57Z</time>
      </trkpt>
      <trkpt lat="43.03055" lon="-0.06643">
        <ele>405.81</ele>
        <time>2013-10-24T14:00:12Z</time>
      </trkpt>
      <trkpt lat="43.03051" lon="-0.06646">
        <ele>406.29</ele>
        <time>2013-10-24T14:00:13Z</time>
      </trkpt>
      <trkpt lat="43.0304" lon="-0.06664">
        <ele>405.81</ele>
        <time>2013-10-24T14:00:17Z</time>
      </trkpt>
      <trkpt lat="43.03034" lon="-0.06673">
        <ele>405.81</ele>
        <time>2013-10-24T14:00:19Z</time>
      </trkpt>
      <trkpt lat="43.02998" lon="-0.06745">
        <ele>406.77</ele>
        <time>2013-10-24T14:00:33Z</time>
      </trkpt>
      <trkpt lat="43.02982" lon="-0.06797">
        <ele>407.26</ele>
        <time>2013-10-24T14:00:42Z</time>
      </trkpt>
      <trkpt lat="43.02961" lon="-0.06846">
        <ele>407.74</ele>
        <time>2013-10-24T14:00:51Z</time>
      </trkpt>
      <trkpt lat="43.02939" lon="-0.06929">
        <ele>408.22</ele>
        <time>2013-10-24T14:01:06Z</time>
      </trkpt>
      <trkpt lat="43.02923" lon="-0.07031">
        <ele>407.74</ele>
        <time>2013-10-24T14:01:24Z</time>
      </trkpt>
      <trkpt lat="43.02919" lon="-0.07066">
        <ele>408.7</ele>
        <time>2013-10-24T14:01:31Z</time>
      </trkpt>
      <trkpt lat="43.02918" lon="-0.07103">
        <ele>408.7</ele>
        <time>2013-10-24T14:01:38Z</time>
      </trkpt>
      <trkpt lat="43.02912" lon="-0.07118">
        <ele>408.22</ele>
        <time>2013-10-24T14:01:41Z</time>
      </trkpt>
      <trkpt lat="43.02901" lon="-0.07188">
        <ele>408.22</ele>
        <time>2013-10-24T14:01:55Z</time>
      </trkpt>
      <trkpt lat="43.02905" lon="-0.07228">
        <ele>409.18</ele>
        <time>2013-10-24T14:02:07Z</time>
      </trkpt>
      <trkpt lat="43.02923" lon="-0.07265">
        <ele>409.18</ele>
        <time>2013-10-24T14:02:20Z</time>
      </trkpt>
      <trkpt lat="43.02925" lon="-0.07267">
        <ele>409.66</ele>
        <time>2013-10-24T14:02:21Z</time>
      </trkpt>
      <trkpt lat="43.0293" lon="-0.07284">
        <ele>409.66</ele>
        <time>2013-10-24T14:02:27Z</time>
      </trkpt>
      <trkpt lat="43.02931" lon="-0.07288">
        <ele>410.14</ele>
        <time>2013-10-24T14:02:29Z</time>
      </trkpt>
      <trkpt lat="43.02935" lon="-0.07331">
        <ele>411.58</ele>
        <time>2013-10-24T14:02:44Z</time>
      </trkpt>
      <trkpt lat="43.02935" lon="-0.07336">
        <ele>406.29</ele>
        <time>2013-10-24T14:02:46Z</time>
      </trkpt>
      <trkpt lat="43.02935" lon="-0.07339">
        <ele>411.1</ele>
        <time>2013-10-24T14:02:47Z</time>
      </trkpt>
      <trkpt lat="43.02935" lon="-0.07342">
        <ele>410.62</ele>
        <time>2013-10-24T14:02:48Z</time>
      </trkpt>
      <trkpt lat="43.02936" lon="-0.07362">
        <ele>414.47</ele>
        <time>2013-10-24T14:02:54Z</time>
      </trkpt>
      <trkpt lat="43.02936" lon="-0.07365">
        <ele>410.62</ele>
        <time>2013-10-24T14:02:55Z</time>
      </trkpt>
      <trkpt lat="43.02937" lon="-0.07424">
        <ele>411.58</ele>
        <time>2013-10-24T14:03:11Z</time>
      </trkpt>
      <trkpt lat="43.02934" lon="-0.07488">
        <ele>411.58</ele>
        <time>2013-10-24T14:03:28Z</time>
      </trkpt>
      <trkpt lat="43.02933" lon="-0.07495">
        <ele>414.95</ele>
        <time>2013-10-24T14:03:30Z</time>
      </trkpt>
      <trkpt lat="43.02933" lon="-0.07521">
        <ele>411.58</ele>
        <time>2013-10-24T14:03:37Z</time>
      </trkpt>
      <trkpt lat="43.02938" lon="-0.07565">
        <ele>413.02</ele>
        <time>2013-10-24T14:03:50Z</time>
      </trkpt>
      <trkpt lat="43.02952" lon="-0.07615">
        <ele>413.02</ele>
        <time>2013-10-24T14:04:03Z</time>
      </trkpt>
      <trkpt lat="43.02955" lon="-0.07666">
        <ele>413.02</ele>
        <time>2013-10-24T14:04:14Z</time>
      </trkpt>
      <trkpt lat="43.02984" lon="-0.0772">
        <ele>413.02</ele>
        <time>2013-10-24T14:04:27Z</time>
      </trkpt>
      <trkpt lat="43.03002" lon="-0.0773">
        <ele>412.54</ele>
        <time>2013-10-24T14:04:32Z</time>
      </trkpt>
      <trkpt lat="43.02994" lon="-0.07769">
        <ele>413.02</ele>
        <time>2013-10-24T14:04:42Z</time>
      </trkpt>
      <trkpt lat="43.02974" lon="-0.07824">
        <ele>414.47</ele>
        <time>2013-10-24T14:04:56Z</time>
      </trkpt>
      <trkpt lat="43.02976" lon="-0.07875">
        <ele>414.47</ele>
        <time>2013-10-24T14:05:08Z</time>
      </trkpt>
      <trkpt lat="43.03" lon="-0.07944">
        <ele>415.91</ele>
        <time>2013-10-24T14:05:25Z</time>
      </trkpt>
      <trkpt lat="43.03024" lon="-0.0798">
        <ele>418.31</ele>
        <time>2013-10-24T14:05:38Z</time>
      </trkpt>
      <trkpt lat="43.03046" lon="-0.08011">
        <ele>421.68</ele>
        <time>2013-10-24T14:05:50Z</time>
      </trkpt>
      <trkpt lat="43.03066" lon="-0.0804">
        <ele>423.12</ele>
        <time>2013-10-24T14:06:01Z</time>
      </trkpt>
      <trkpt lat="43.03089" lon="-0.08064">
        <ele>426</ele>
        <time>2013-10-24T14:06:15Z</time>
      </trkpt>
      <trkpt lat="43.03091" lon="-0.08065">
        <ele>426.48</ele>
        <time>2013-10-24T14:06:16Z</time>
      </trkpt>
      <trkpt lat="43.03106" lon="-0.08077">
        <ele>429.37</ele>
        <time>2013-10-24T14:06:26Z</time>
      </trkpt>
      <trkpt lat="43.03108" lon="-0.08078">
        <ele>429.37</ele>
        <time>2013-10-24T14:06:27Z</time>
      </trkpt>
      <trkpt lat="43.03116" lon="-0.08086">
        <ele>430.33</ele>
        <time>2013-10-24T14:06:33Z</time>
      </trkpt>
      <trkpt lat="43.03132" lon="-0.08092">
        <ele>433.21</ele>
        <time>2013-10-24T14:06:44Z</time>
      </trkpt>
      <trkpt lat="43.03148" lon="-0.08109">
        <ele>436.1</ele>
        <time>2013-10-24T14:06:56Z</time>
      </trkpt>
      <trkpt lat="43.0316" lon="-0.08125">
        <ele>438.98</ele>
        <time>2013-10-24T14:07:07Z</time>
      </trkpt>
      <trkpt lat="43.03164" lon="-0.08124">
        <ele>439.94</ele>
        <time>2013-10-24T14:07:10Z</time>
      </trkpt>
      <trkpt lat="43.03166" lon="-0.0812">
        <ele>440.42</ele>
        <time>2013-10-24T14:07:14Z</time>
      </trkpt>
      <trkpt lat="43.03165" lon="-0.08114">
        <ele>441.38</ele>
        <time>2013-10-24T14:07:18Z</time>
      </trkpt>
      <trkpt lat="43.03163" lon="-0.08105">
        <ele>442.82</ele>
        <time>2013-10-24T14:07:24Z</time>
      </trkpt>
      <trkpt lat="43.03161" lon="-0.08099">
        <ele>444.27</ele>
        <time>2013-10-24T14:07:28Z</time>
      </trkpt>
      <trkpt lat="43.03158" lon="-0.08083">
        <ele>447.63</ele>
        <time>2013-10-24T14:07:37Z</time>
      </trkpt>
      <trkpt lat="43.03159" lon="-0.08081">
        <ele>448.59</ele>
        <time>2013-10-24T14:07:39Z</time>
      </trkpt>
      <trkpt lat="43.0316" lon="-0.08082">
        <ele>448.59</ele>
        <time>2013-10-24T14:07:40Z</time>
      </trkpt>
      <trkpt lat="43.03167" lon="-0.0808">
        <ele>450.52</ele>
        <time>2013-10-24T14:07:46Z</time>
      </trkpt>
      <trkpt lat="43.03176" lon="-0.0808">
        <ele>451.48</ele>
        <time>2013-10-24T14:07:53Z</time>
      </trkpt>
      <trkpt lat="43.03179" lon="-0.0808">
        <ele>452.44</ele>
        <time>2013-10-24T14:07:55Z</time>
      </trkpt>
      <trkpt lat="43.03183" lon="-0.08079">
        <ele>453.88</ele>
        <time>2013-10-24T14:08:00Z</time>
      </trkpt>
      <trkpt lat="43.03203" lon="-0.08083">
        <ele>456.28</ele>
        <time>2013-10-24T14:08:13Z</time>
      </trkpt>
      <trkpt lat="43.03211" lon="-0.08084">
        <ele>456.76</ele>
        <time>2013-10-24T14:08:18Z</time>
      </trkpt>
      <trkpt lat="43.03212" lon="-0.08083">
        <ele>457.24</ele>
        <time>2013-10-24T14:08:23Z</time>
      </trkpt>
      <trkpt lat="43.0321" lon="-0.08082">
        <ele>458.69</ele>
        <time>2013-10-24T14:08:25Z</time>
      </trkpt>
      <trkpt lat="43.03206" lon="-0.08078">
        <ele>459.65</ele>
        <time>2013-10-24T14:08:30Z</time>
      </trkpt>
      <trkpt lat="43.03199" lon="-0.08066">
        <ele>463.01</ele>
        <time>2013-10-24T14:08:40Z</time>
      </trkpt>
      <trkpt lat="43.03191" lon="-0.08049">
        <ele>465.9</ele>
        <time>2013-10-24T14:08:52Z</time>
      </trkpt>
      <trkpt lat="43.0319" lon="-0.08047">
        <ele>466.38</ele>
        <time>2013-10-24T14:08:53Z</time>
      </trkpt>
      <trkpt lat="43.03183" lon="-0.0803">
        <ele>469.26</ele>
        <time>2013-10-24T14:09:04Z</time>
      </trkpt>
      <trkpt lat="43.03183" lon="-0.08027">
        <ele>470.7</ele>
        <time>2013-10-24T14:09:06Z</time>
      </trkpt>
      <trkpt lat="43.03179" lon="-0.08009">
        <ele>473.11</ele>
        <time>2013-10-24T14:09:18Z</time>
      </trkpt>
      <trkpt lat="43.03175" lon="-0.07989">
        <ele>476.95</ele>
        <time>2013-10-24T14:09:31Z</time>
      </trkpt>
      <trkpt lat="43.03174" lon="-0.07987">
        <ele>476.95</ele>
        <time>2013-10-24T14:09:32Z</time>
      </trkpt>
      <trkpt lat="43.0317" lon="-0.07964">
        <ele>480.32</ele>
        <time>2013-10-24T14:09:45Z</time>
      </trkpt>
      <trkpt lat="43.03173" lon="-0.07965">
        <ele>480.8</ele>
        <time>2013-10-24T14:09:48Z</time>
      </trkpt>
      <trkpt lat="43.03178" lon="-0.07972">
        <ele>481.76</ele>
        <time>2013-10-24T14:09:54Z</time>
      </trkpt>
      <trkpt lat="43.03182" lon="-0.07971">
        <ele>484.16</ele>
        <time>2013-10-24T14:10:01Z</time>
      </trkpt>
      <trkpt lat="43.0318" lon="-0.07967">
        <ele>484.16</ele>
        <time>2013-10-24T14:10:04Z</time>
      </trkpt>
      <trkpt lat="43.03178" lon="-0.07962">
        <ele>485.12</ele>
        <time>2013-10-24T14:10:07Z</time>
      </trkpt>
      <trkpt lat="43.03179" lon="-0.07959">
        <ele>485.6</ele>
        <time>2013-10-24T14:10:09Z</time>
      </trkpt>
      <trkpt lat="43.03181" lon="-0.0796">
        <ele>486.08</ele>
        <time>2013-10-24T14:10:12Z</time>
      </trkpt>
      <trkpt lat="43.03184" lon="-0.07963">
        <ele>487.53</ele>
        <time>2013-10-24T14:10:16Z</time>
      </trkpt>
      <trkpt lat="43.03196" lon="-0.07968">
        <ele>490.41</ele>
        <time>2013-10-24T14:10:27Z</time>
      </trkpt>
      <trkpt lat="43.03198" lon="-0.07969">
        <ele>490.89</ele>
        <time>2013-10-24T14:10:29Z</time>
      </trkpt>
      <trkpt lat="43.03214" lon="-0.07966">
        <ele>495.22</ele>
        <time>2013-10-24T14:10:42Z</time>
      </trkpt>
      <trkpt lat="43.03221" lon="-0.07966">
        <ele>496.18</ele>
        <time>2013-10-24T14:10:48Z</time>
      </trkpt>
      <trkpt lat="43.03229" lon="-0.07964">
        <ele>498.58</ele>
        <time>2013-10-24T14:10:56Z</time>
      </trkpt>
      <trkpt lat="43.03236" lon="-0.07963">
        <ele>500.02</ele>
        <time>2013-10-24T14:11:02Z</time>
      </trkpt>
      <trkpt lat="43.0325" lon="-0.07958">
        <ele>503.39</ele>
        <time>2013-10-24T14:11:15Z</time>
      </trkpt>
      <trkpt lat="43.03256" lon="-0.07953">
        <ele>504.83</ele>
        <time>2013-10-24T14:11:20Z</time>
      </trkpt>
      <trkpt lat="43.03271" lon="-0.07946">
        <ele>507.71</ele>
        <time>2013-10-24T14:11:33Z</time>
      </trkpt>
      <trkpt lat="43.03278" lon="-0.0794">
        <ele>508.67</ele>
        <time>2013-10-24T14:11:43Z</time>
      </trkpt>
      <trkpt lat="43.03283" lon="-0.07936">
        <ele>509.64</ele>
        <time>2013-10-24T14:11:58Z</time>
      </trkpt>
      <trkpt lat="43.03285" lon="-0.07935">
        <ele>508.67</ele>
        <time>2013-10-24T14:12:29Z</time>
      </trkpt>
      <trkpt lat="43.03285" lon="-0.07935">
        <ele>509.16</ele>
        <time>2013-10-24T14:12:56Z</time>
      </trkpt>
      <trkpt lat="43.03285" lon="-0.07934">
        <ele>508.67</ele>
        <time>2013-10-24T14:13:32Z</time>
      </trkpt>
      <trkpt lat="43.03286" lon="-0.07935">
        <ele>508.67</ele>
        <time>2013-10-24T14:14:06Z</time>
      </trkpt>
      <trkpt lat="43.03286" lon="-0.07935">
        <ele>508.67</ele>
        <time>2013-10-24T14:14:37Z</time>
      </trkpt>
      <trkpt lat="43.03285" lon="-0.07934">
        <ele>509.16</ele>
        <time>2013-10-24T14:15:08Z</time>
      </trkpt>
      <trkpt lat="43.03286" lon="-0.07934">
        <ele>508.67</ele>
        <time>2013-10-24T14:15:42Z</time>
      </trkpt>
      <trkpt lat="43.03285" lon="-0.07932">
        <ele>509.16</ele>
        <time>2013-10-24T14:16:18Z</time>
      </trkpt>
      <trkpt lat="43.03284" lon="-0.07932">
        <ele>508.67</ele>
        <time>2013-10-24T14:16:51Z</time>
      </trkpt>
      <trkpt lat="43.03284" lon="-0.07932">
        <ele>509.16</ele>
        <time>2013-10-24T14:17:23Z</time>
      </trkpt>
      <trkpt lat="43.03284" lon="-0.07932">
        <ele>509.64</ele>
        <time>2013-10-24T14:17:28Z</time>
      </trkpt>
      <trkpt lat="43.03287" lon="-0.07918">
        <ele>508.67</ele>
        <time>2013-10-24T14:17:36Z</time>
      </trkpt>
      <trkpt lat="43.03287" lon="-0.07905">
        <ele>511.08</ele>
        <time>2013-10-24T14:17:43Z</time>
      </trkpt>
      <trkpt lat="43.03287" lon="-0.07892">
        <ele>513</ele>
        <time>2013-10-24T14:17:48Z</time>
      </trkpt>
      <trkpt lat="43.03288" lon="-0.07887">
        <ele>513.48</ele>
        <time>2013-10-24T14:17:50Z</time>
      </trkpt>
      <trkpt lat="43.03291" lon="-0.07873">
        <ele>513.96</ele>
        <time>2013-10-24T14:17:58Z</time>
      </trkpt>
      <trkpt lat="43.0329" lon="-0.07865">
        <ele>513.48</ele>
        <time>2013-10-24T14:18:04Z</time>
      </trkpt>
      <trkpt lat="43.03294" lon="-0.07857">
        <ele>513.48</ele>
        <time>2013-10-24T14:18:08Z</time>
      </trkpt>
      <trkpt lat="43.033" lon="-0.07834">
        <ele>512.52</ele>
        <time>2013-10-24T14:18:14Z</time>
      </trkpt>
      <trkpt lat="43.03307" lon="-0.07799">
        <ele>512.52</ele>
        <time>2013-10-24T14:18:25Z</time>
      </trkpt>
      <trkpt lat="43.03311" lon="-0.0778">
        <ele>513.96</ele>
        <time>2013-10-24T14:18:30Z</time>
      </trkpt>
      <trkpt lat="43.03319" lon="-0.0777">
        <ele>516.37</ele>
        <time>2013-10-24T14:18:35Z</time>
      </trkpt>
      <trkpt lat="43.03329" lon="-0.07759">
        <ele>519.73</ele>
        <time>2013-10-24T14:18:42Z</time>
      </trkpt>
      <trkpt lat="43.03344" lon="-0.07745">
        <ele>522.13</ele>
        <time>2013-10-24T14:18:54Z</time>
      </trkpt>
      <trkpt lat="43.03345" lon="-0.07744">
        <ele>521.65</ele>
        <time>2013-10-24T14:19:22Z</time>
      </trkpt>
      <trkpt lat="43.03346" lon="-0.07744">
        <ele>521.17</ele>
        <time>2013-10-24T14:19:37Z</time>
      </trkpt>
      <trkpt lat="43.03348" lon="-0.07744">
        <ele>521.65</ele>
        <time>2013-10-24T14:19:39Z</time>
      </trkpt>
      <trkpt lat="43.03353" lon="-0.0774">
        <ele>522.61</ele>
        <time>2013-10-24T14:19:44Z</time>
      </trkpt>
      <trkpt lat="43.0336" lon="-0.07737">
        <ele>524.54</ele>
        <time>2013-10-24T14:19:51Z</time>
      </trkpt>
      <trkpt lat="43.03364" lon="-0.07733">
        <ele>525.5</ele>
        <time>2013-10-24T14:20:05Z</time>
      </trkpt>
      <trkpt lat="43.03365" lon="-0.07732">
        <ele>526.46</ele>
        <time>2013-10-24T14:20:12Z</time>
      </trkpt>
      <trkpt lat="43.03366" lon="-0.07726">
        <ele>527.42</ele>
        <time>2013-10-24T14:20:15Z</time>
      </trkpt>
      <trkpt lat="43.03372" lon="-0.07717">
        <ele>528.38</ele>
        <time>2013-10-24T14:20:22Z</time>
      </trkpt>
      <trkpt lat="43.03373" lon="-0.07714">
        <ele>528.86</ele>
        <time>2013-10-24T14:20:24Z</time>
      </trkpt>
      <trkpt lat="43.03375" lon="-0.07707">
        <ele>528.38</ele>
        <time>2013-10-24T14:20:28Z</time>
      </trkpt>
      <trkpt lat="43.03389" lon="-0.0769">
        <ele>528.86</ele>
        <time>2013-10-24T14:20:39Z</time>
      </trkpt>
      <trkpt lat="43.03391" lon="-0.07689">
        <ele>528.38</ele>
        <time>2013-10-24T14:20:51Z</time>
      </trkpt>
      <trkpt lat="43.03391" lon="-0.0769">
        <ele>528.86</ele>
        <time>2013-10-24T14:21:20Z</time>
      </trkpt>
      <trkpt lat="43.03391" lon="-0.07689">
        <ele>528.86</ele>
        <time>2013-10-24T14:21:57Z</time>
      </trkpt>
      <trkpt lat="43.03393" lon="-0.07691">
        <ele>528.86</ele>
        <time>2013-10-24T14:22:12Z</time>
      </trkpt>
      <trkpt lat="43.03406" lon="-0.07696">
        <ele>526.94</ele>
        <time>2013-10-24T14:22:17Z</time>
      </trkpt>
      <trkpt lat="43.03421" lon="-0.07707">
        <ele>527.42</ele>
        <time>2013-10-24T14:22:25Z</time>
      </trkpt>
      <trkpt lat="43.03433" lon="-0.077">
        <ele>528.38</ele>
        <time>2013-10-24T14:22:33Z</time>
      </trkpt>
      <trkpt lat="43.03449" lon="-0.0769">
        <ele>530.79</ele>
        <time>2013-10-24T14:22:41Z</time>
      </trkpt>
      <trkpt lat="43.03458" lon="-0.07682">
        <ele>530.79</ele>
        <time>2013-10-24T14:22:49Z</time>
      </trkpt>
      <trkpt lat="43.03468" lon="-0.07659">
        <ele>526.94</ele>
        <time>2013-10-24T14:22:57Z</time>
      </trkpt>
      <trkpt lat="43.03472" lon="-0.07655">
        <ele>525.5</ele>
        <time>2013-10-24T14:22:59Z</time>
      </trkpt>
      <trkpt lat="43.03485" lon="-0.07648">
        <ele>522.61</ele>
        <time>2013-10-24T14:23:04Z</time>
      </trkpt>
      <trkpt lat="43.03496" lon="-0.07642">
        <ele>518.77</ele>
        <time>2013-10-24T14:23:08Z</time>
      </trkpt>
      <trkpt lat="43.03499" lon="-0.07631">
        <ele>515.4</ele>
        <time>2013-10-24T14:23:11Z</time>
      </trkpt>
      <trkpt lat="43.03503" lon="-0.07628">
        <ele>512.04</ele>
        <time>2013-10-24T14:23:15Z</time>
      </trkpt>
      <trkpt lat="43.03505" lon="-0.07628">
        <ele>509.64</ele>
        <time>2013-10-24T14:23:17Z</time>
      </trkpt>
      <trkpt lat="43.03509" lon="-0.07621">
        <ele>505.79</ele>
        <time>2013-10-24T14:23:20Z</time>
      </trkpt>
      <trkpt lat="43.0351" lon="-0.07617">
        <ele>506.27</ele>
        <time>2013-10-24T14:23:22Z</time>
      </trkpt>
      <trkpt lat="43.03523" lon="-0.07624">
        <ele>503.39</ele>
        <time>2013-10-24T14:23:27Z</time>
      </trkpt>
      <trkpt lat="43.0353" lon="-0.0764">
        <ele>499.06</ele>
        <time>2013-10-24T14:23:31Z</time>
      </trkpt>
      <trkpt lat="43.03541" lon="-0.07648">
        <ele>495.22</ele>
        <time>2013-10-24T14:23:35Z</time>
      </trkpt>
      <trkpt lat="43.03557" lon="-0.07628">
        <ele>491.85</ele>
        <time>2013-10-24T14:23:40Z</time>
      </trkpt>
      <trkpt lat="43.0356" lon="-0.07622">
        <ele>491.37</ele>
        <time>2013-10-24T14:23:41Z</time>
      </trkpt>
      <trkpt lat="43.03572" lon="-0.07591">
        <ele>486.08</ele>
        <time>2013-10-24T14:23:48Z</time>
      </trkpt>
      <trkpt lat="43.03575" lon="-0.07583">
        <ele>485.6</ele>
        <time>2013-10-24T14:23:50Z</time>
      </trkpt>
      <trkpt lat="43.0359" lon="-0.07574">
        <ele>486.08</ele>
        <time>2013-10-24T14:24:03Z</time>
      </trkpt>
      <trkpt lat="43.03591" lon="-0.07571">
        <ele>484.64</ele>
        <time>2013-10-24T14:24:24Z</time>
      </trkpt>
      <trkpt lat="43.0359" lon="-0.07567">
        <ele>484.16</ele>
        <time>2013-10-24T14:24:49Z</time>
      </trkpt>
      <trkpt lat="43.03586" lon="-0.07564">
        <ele>484.16</ele>
        <time>2013-10-24T14:24:52Z</time>
      </trkpt>
      <trkpt lat="43.03565" lon="-0.07568">
        <ele>480.8</ele>
        <time>2013-10-24T14:24:59Z</time>
      </trkpt>
      <trkpt lat="43.03539" lon="-0.07556">
        <ele>478.87</ele>
        <time>2013-10-24T14:25:07Z</time>
      </trkpt>
      <trkpt lat="43.03518" lon="-0.07542">
        <ele>473.59</ele>
        <time>2013-10-24T14:25:12Z</time>
      </trkpt>
      <trkpt lat="43.03512" lon="-0.07539">
        <ele>472.63</ele>
        <time>2013-10-24T14:25:14Z</time>
      </trkpt>
      <trkpt lat="43.03509" lon="-0.07538">
        <ele>472.14</ele>
        <time>2013-10-24T14:25:15Z</time>
      </trkpt>
      <trkpt lat="43.03496" lon="-0.07539">
        <ele>472.14</ele>
        <time>2013-10-24T14:25:19Z</time>
      </trkpt>
      <trkpt lat="43.03469" lon="-0.07522">
        <ele>467.82</ele>
        <time>2013-10-24T14:25:26Z</time>
      </trkpt>
      <trkpt lat="43.03451" lon="-0.07512">
        <ele>467.82</ele>
        <time>2013-10-24T14:25:31Z</time>
      </trkpt>
      <trkpt lat="43.03444" lon="-0.07507">
        <ele>467.82</ele>
        <time>2013-10-24T14:25:33Z</time>
      </trkpt>
      <trkpt lat="43.0343" lon="-0.07496">
        <ele>466.38</ele>
        <time>2013-10-24T14:25:37Z</time>
      </trkpt>
      <trkpt lat="43.03413" lon="-0.07481">
        <ele>462.05</ele>
        <time>2013-10-24T14:25:41Z</time>
      </trkpt>
      <trkpt lat="43.03409" lon="-0.07478">
        <ele>461.09</ele>
        <time>2013-10-24T14:25:42Z</time>
      </trkpt>
      <trkpt lat="43.03388" lon="-0.07471">
        <ele>456.28</ele>
        <time>2013-10-24T14:25:47Z</time>
      </trkpt>
      <trkpt lat="43.03384" lon="-0.07467">
        <ele>454.84</ele>
        <time>2013-10-24T14:25:50Z</time>
      </trkpt>
      <trkpt lat="43.03389" lon="-0.07461">
        <ele>452.92</ele>
        <time>2013-10-24T14:25:58Z</time>
      </trkpt>
      <trkpt lat="43.03391" lon="-0.07457">
        <ele>451.96</ele>
        <time>2013-10-24T14:26:05Z</time>
      </trkpt>
      <trkpt lat="43.034" lon="-0.07443">
        <ele>449.07</ele>
        <time>2013-10-24T14:26:10Z</time>
      </trkpt>
      <trkpt lat="43.03391" lon="-0.07437">
        <ele>444.75</ele>
        <time>2013-10-24T14:26:14Z</time>
      </trkpt>
      <trkpt lat="43.03369" lon="-0.07431">
        <ele>439.94</ele>
        <time>2013-10-24T14:26:19Z</time>
      </trkpt>
      <trkpt lat="43.03361" lon="-0.07425">
        <ele>437.06</ele>
        <time>2013-10-24T14:26:22Z</time>
      </trkpt>
      <trkpt lat="43.0336" lon="-0.07414">
        <ele>432.73</ele>
        <time>2013-10-24T14:26:26Z</time>
      </trkpt>
      <trkpt lat="43.03364" lon="-0.07406">
        <ele>428.89</ele>
        <time>2013-10-24T14:26:28Z</time>
      </trkpt>
      <trkpt lat="43.03375" lon="-0.0739">
        <ele>425.04</ele>
        <time>2013-10-24T14:26:32Z</time>
      </trkpt>
      <trkpt lat="43.03384" lon="-0.0737">
        <ele>420.71</ele>
        <time>2013-10-24T14:26:36Z</time>
      </trkpt>
      <trkpt lat="43.03385" lon="-0.07358">
        <ele>416.87</ele>
        <time>2013-10-24T14:26:38Z</time>
      </trkpt>
      <trkpt lat="43.0339" lon="-0.07345">
        <ele>413.98</ele>
        <time>2013-10-24T14:26:40Z</time>
      </trkpt>
      <trkpt lat="43.03395" lon="-0.0733">
        <ele>411.58</ele>
        <time>2013-10-24T14:26:42Z</time>
      </trkpt>
      <trkpt lat="43.03401" lon="-0.07308">
        <ele>407.74</ele>
        <time>2013-10-24T14:26:45Z</time>
      </trkpt>
      <trkpt lat="43.03414" lon="-0.0729">
        <ele>405.81</ele>
        <time>2013-10-24T14:26:48Z</time>
      </trkpt>
      <trkpt lat="43.03419" lon="-0.07284">
        <ele>405.81</ele>
        <time>2013-10-24T14:26:57Z</time>
      </trkpt>
      <trkpt lat="43.0342" lon="-0.07283">
        <ele>405.81</ele>
        <time>2013-10-24T14:27:16Z</time>
      </trkpt>
      <trkpt lat="43.0342" lon="-0.07282">
        <ele>405.33</ele>
        <time>2013-10-24T14:27:45Z</time>
      </trkpt>
      <trkpt lat="43.0342" lon="-0.07282">
        <ele>405.33</ele>
        <time>2013-10-24T14:28:01Z</time>
      </trkpt>
      <trkpt lat="43.03421" lon="-0.07284">
        <ele>404.85</ele>
        <time>2013-10-24T14:28:39Z</time>
      </trkpt>
      <trkpt lat="43.03421" lon="-0.07282">
        <ele>404.85</ele>
        <time>2013-10-24T14:29:16Z</time>
      </trkpt>
      <trkpt lat="43.03421" lon="-0.07281">
        <ele>404.85</ele>
        <time>2013-10-24T14:29:30Z</time>
      </trkpt>
      <trkpt lat="43.03408" lon="-0.0726">
        <ele>405.33</ele>
        <time>2013-10-24T14:29:41Z</time>
      </trkpt>
      <trkpt lat="43.03389" lon="-0.07237">
        <ele>404.85</ele>
        <time>2013-10-24T14:29:52Z</time>
      </trkpt>
      <trkpt lat="43.03371" lon="-0.07228">
        <ele>404.85</ele>
        <time>2013-10-24T14:30:02Z</time>
      </trkpt>
      <trkpt lat="43.03358" lon="-0.07238">
        <ele>404.85</ele>
        <time>2013-10-24T14:30:07Z</time>
      </trkpt>
      <trkpt lat="43.03317" lon="-0.07273">
        <ele>404.37</ele>
        <time>2013-10-24T14:30:22Z</time>
      </trkpt>
      <trkpt lat="43.03265" lon="-0.07316">
        <ele>404.85</ele>
        <time>2013-10-24T14:30:39Z</time>
      </trkpt>
      <trkpt lat="43.0322" lon="-0.07354">
        <ele>406.77</ele>
        <time>2013-10-24T14:30:54Z</time>
      </trkpt>
      <trkpt lat="43.03187" lon="-0.07391">
        <ele>408.7</ele>
        <time>2013-10-24T14:31:08Z</time>
      </trkpt>
      <trkpt lat="43.03162" lon="-0.07441">
        <ele>409.18</ele>
        <time>2013-10-24T14:31:22Z</time>
      </trkpt>
      <trkpt lat="43.03132" lon="-0.075">
        <ele>408.7</ele>
        <time>2013-10-24T14:31:37Z</time>
      </trkpt>
      <trkpt lat="43.03106" lon="-0.07547">
        <ele>409.18</ele>
        <time>2013-10-24T14:31:49Z</time>
      </trkpt>
      <trkpt lat="43.03069" lon="-0.0762">
        <ele>409.18</ele>
        <time>2013-10-24T14:32:06Z</time>
      </trkpt>
      <trkpt lat="43.03036" lon="-0.07687">
        <ele>409.18</ele>
        <time>2013-10-24T14:32:22Z</time>
      </trkpt>
      <trkpt lat="43.0301" lon="-0.0774">
        <ele>410.14</ele>
        <time>2013-10-24T14:32:35Z</time>
      </trkpt>
      <trkpt lat="43.02984" lon="-0.07797">
        <ele>411.58</ele>
        <time>2013-10-24T14:32:49Z</time>
      </trkpt>
      <trkpt lat="43.02972" lon="-0.07848">
        <ele>413.02</ele>
        <time>2013-10-24T14:33:01Z</time>
      </trkpt>
      <trkpt lat="43.02983" lon="-0.07903">
        <ele>413.5</ele>
        <time>2013-10-24T14:33:14Z</time>
      </trkpt>
      <trkpt lat="43.0299" lon="-0.07953">
        <ele>413.5</ele>
        <time>2013-10-24T14:33:27Z</time>
      </trkpt>
      <trkpt lat="43.02979" lon="-0.0799">
        <ele>412.06</ele>
        <time>2013-10-24T14:33:36Z</time>
      </trkpt>
      <trkpt lat="43.02953" lon="-0.08002">
        <ele>408.7</ele>
        <time>2013-10-24T14:33:40Z</time>
      </trkpt>
      <trkpt lat="43.02902" lon="-0.0802">
        <ele>406.29</ele>
        <time>2013-10-24T14:33:47Z</time>
      </trkpt>
      <trkpt lat="43.0286" lon="-0.08026">
        <ele>407.26</ele>
        <time>2013-10-24T14:34:00Z</time>
      </trkpt>
      <trkpt lat="43.0281" lon="-0.08034">
        <ele>407.74</ele>
        <time>2013-10-24T14:34:16Z</time>
      </trkpt>
      <trkpt lat="43.02781" lon="-0.08037">
        <ele>407.74</ele>
        <time>2013-10-24T14:34:24Z</time>
      </trkpt>
      <trkpt lat="43.02752" lon="-0.08101">
        <ele>407.26</ele>
        <time>2013-10-24T14:34:38Z</time>
      </trkpt>
      <trkpt lat="43.02717" lon="-0.08171">
        <ele>406.77</ele>
        <time>2013-10-24T14:34:54Z</time>
      </trkpt>
      <trkpt lat="43.02684" lon="-0.0821">
        <ele>408.22</ele>
        <time>2013-10-24T14:35:06Z</time>
      </trkpt>
      <trkpt lat="43.02672" lon="-0.08217">
        <ele>408.7</ele>
        <time>2013-10-24T14:35:09Z</time>
      </trkpt>
      <trkpt lat="43.02662" lon="-0.08228">
        <ele>408.22</ele>
        <time>2013-10-24T14:35:12Z</time>
      </trkpt>
      <trkpt lat="43.02649" lon="-0.08241">
        <ele>408.7</ele>
        <time>2013-10-24T14:35:16Z</time>
      </trkpt>
      <trkpt lat="43.02602" lon="-0.08295">
        <ele>409.18</ele>
        <time>2013-10-24T14:35:32Z</time>
      </trkpt>
      <trkpt lat="43.02588" lon="-0.08305">
        <ele>409.18</ele>
        <time>2013-10-24T14:35:36Z</time>
      </trkpt>
      <trkpt lat="43.02549" lon="-0.08342">
        <ele>409.66</ele>
        <time>2013-10-24T14:35:49Z</time>
      </trkpt>
      <trkpt lat="43.02515" lon="-0.08368">
        <ele>409.66</ele>
        <time>2013-10-24T14:36:00Z</time>
      </trkpt>
      <trkpt lat="43.02472" lon="-0.08393">
        <ele>409.18</ele>
        <time>2013-10-24T14:36:13Z</time>
      </trkpt>
      <trkpt lat="43.02446" lon="-0.08405">
        <ele>407.74</ele>
        <time>2013-10-24T14:36:22Z</time>
      </trkpt>
      <trkpt lat="43.02432" lon="-0.08376">
        <ele>408.22</ele>
        <time>2013-10-24T14:36:30Z</time>
      </trkpt>
      <trkpt lat="43.02407" lon="-0.08364">
        <ele>408.7</ele>
        <time>2013-10-24T14:36:38Z</time>
      </trkpt>
      <trkpt lat="43.02397" lon="-0.08371">
        <ele>409.18</ele>
        <time>2013-10-24T14:36:41Z</time>
      </trkpt>
      <trkpt lat="43.02359" lon="-0.08349">
        <ele>409.66</ele>
        <time>2013-10-24T14:36:52Z</time>
      </trkpt>
      <trkpt lat="43.02351" lon="-0.08346">
        <ele>409.66</ele>
        <time>2013-10-24T14:36:54Z</time>
      </trkpt>
      <trkpt lat="43.02343" lon="-0.08341">
        <ele>409.66</ele>
        <time>2013-10-24T14:36:56Z</time>
      </trkpt>
      <trkpt lat="43.02316" lon="-0.08331">
        <ele>409.66</ele>
        <time>2013-10-24T14:37:03Z</time>
      </trkpt>
      <trkpt lat="43.02271" lon="-0.08316">
        <ele>411.1</ele>
        <time>2013-10-24T14:37:15Z</time>
      </trkpt>
      <trkpt lat="43.02253" lon="-0.08313">
        <ele>411.58</ele>
        <time>2013-10-24T14:37:20Z</time>
      </trkpt>
      <trkpt lat="43.02239" lon="-0.08322">
        <ele>413.02</ele>
        <time>2013-10-24T14:37:26Z</time>
      </trkpt>
      <trkpt lat="43.02235" lon="-0.08321">
        <ele>413.5</ele>
        <time>2013-10-24T14:37:28Z</time>
      </trkpt>
      <trkpt lat="43.02232" lon="-0.08312">
        <ele>410.62</ele>
        <time>2013-10-24T14:37:34Z</time>
      </trkpt>
      <trkpt lat="43.02243" lon="-0.08322">
        <ele>411.58</ele>
        <time>2013-10-24T14:37:44Z</time>
      </trkpt>
      <trkpt lat="43.02241" lon="-0.0832">
        <ele>413.02</ele>
        <time>2013-10-24T14:37:46Z</time>
      </trkpt>
      <trkpt lat="43.02239" lon="-0.08319">
        <ele>413.02</ele>
        <time>2013-10-24T14:37:47Z</time>
      </trkpt>
      <trkpt lat="43.02236" lon="-0.08317">
        <ele>413.5</ele>
        <time>2013-10-24T14:37:49Z</time>
      </trkpt>
      <trkpt lat="43.02233" lon="-0.08319">
        <ele>413.02</ele>
        <time>2013-10-24T14:37:57Z</time>
      </trkpt>
      <trkpt lat="43.02231" lon="-0.08319">
        <ele>413.02</ele>
        <time>2013-10-24T14:38:28Z</time>
      </trkpt>
      <trkpt lat="43.02231" lon="-0.08319">
        <ele>413.02</ele>
        <time>2013-10-24T14:38:46Z</time>
      </trkpt>
      <trkpt lat="43.02229" lon="-0.0832">
        <ele>413.98</ele>
        <time>2013-10-24T14:38:50Z</time>
      </trkpt>
      <trkpt lat="43.02225" lon="-0.0832">
        <ele>414.95</ele>
        <time>2013-10-24T14:39:02Z</time>
      </trkpt>
      <trkpt lat="43.02224" lon="-0.0832">
        <ele>414.47</ele>
        <time>2013-10-24T14:39:22Z</time>
      </trkpt>
      <trkpt lat="43.02224" lon="-0.0832">
        <ele>414.47</ele>
        <time>2013-10-24T14:39:46Z</time>
      </trkpt>
      <trkpt lat="43.02225" lon="-0.08317">
        <ele>413.98</ele>
        <time>2013-10-24T14:39:59Z</time>
      </trkpt>
      <trkpt lat="43.02225" lon="-0.08312">
        <ele>409.66</ele>
        <time>2013-10-24T14:40:03Z</time>
      </trkpt>
      <trkpt lat="43.02225" lon="-0.0831">
        <ele>413.98</ele>
        <time>2013-10-24T14:40:04Z</time>
      </trkpt>
      <trkpt lat="43.02225" lon="-0.08302">
        <ele>413.98</ele>
        <time>2013-10-24T14:40:14Z</time>
      </trkpt>
      <trkpt lat="43.02224" lon="-0.08297">
        <ele>414.47</ele>
        <time>2013-10-24T14:40:17Z</time>
      </trkpt>
      <trkpt lat="43.02225" lon="-0.0829">
        <ele>410.14</ele>
        <time>2013-10-24T14:40:20Z</time>
      </trkpt>
      <trkpt lat="43.02225" lon="-0.08288">
        <ele>414.47</ele>
        <time>2013-10-24T14:40:21Z</time>
      </trkpt>
      <trkpt lat="43.02221" lon="-0.08263">
        <ele>413.5</ele>
        <time>2013-10-24T14:40:30Z</time>
      </trkpt>
      <trkpt lat="43.0222" lon="-0.08224">
        <ele>413.5</ele>
        <time>2013-10-24T14:40:39Z</time>
      </trkpt>
      <trkpt lat="43.0221" lon="-0.08213">
        <ele>412.06</ele>
        <time>2013-10-24T14:40:43Z</time>
      </trkpt>
      <trkpt lat="43.02187" lon="-0.08222">
        <ele>413.02</ele>
        <time>2013-10-24T14:40:54Z</time>
      </trkpt>
      <trkpt lat="43.02167" lon="-0.08236">
        <ele>412.54</ele>
        <time>2013-10-24T14:41:02Z</time>
      </trkpt>
      <trkpt lat="43.02162" lon="-0.08236">
        <ele>413.02</ele>
        <time>2013-10-24T14:41:04Z</time>
      </trkpt>
      <trkpt lat="43.02151" lon="-0.0824">
        <ele>412.54</ele>
        <time>2013-10-24T14:41:08Z</time>
      </trkpt>
      <trkpt lat="43.02132" lon="-0.08242">
        <ele>411.1</ele>
        <time>2013-10-24T14:41:13Z</time>
      </trkpt>
      <trkpt lat="43.02099" lon="-0.0826">
        <ele>411.1</ele>
        <time>2013-10-24T14:41:21Z</time>
      </trkpt>
      <trkpt lat="43.02093" lon="-0.08269">
        <ele>411.58</ele>
        <time>2013-10-24T14:41:25Z</time>
      </trkpt>
      <trkpt lat="43.02089" lon="-0.08281">
        <ele>410.62</ele>
        <time>2013-10-24T14:41:28Z</time>
      </trkpt>
      <trkpt lat="43.02078" lon="-0.08288">
        <ele>410.14</ele>
        <time>2013-10-24T14:41:35Z</time>
      </trkpt>
      <trkpt lat="43.02074" lon="-0.08284">
        <ele>411.58</ele>
        <time>2013-10-24T14:41:39Z</time>
      </trkpt>
      <trkpt lat="43.02071" lon="-0.08282">
        <ele>411.58</ele>
        <time>2013-10-24T14:41:48Z</time>
      </trkpt>
      <trkpt lat="43.02069" lon="-0.08278">
        <ele>412.06</ele>
        <time>2013-10-24T14:42:01Z</time>
      </trkpt>
      <trkpt lat="43.02058" lon="-0.08263">
        <ele>413.5</ele>
        <time>2013-10-24T14:42:10Z</time>
      </trkpt>
      <trkpt lat="43.0204" lon="-0.08261">
        <ele>415.91</ele>
        <time>2013-10-24T14:42:19Z</time>
      </trkpt>
      <trkpt lat="43.02037" lon="-0.0827">
        <ele>417.83</ele>
        <time>2013-10-24T14:42:24Z</time>
      </trkpt>
      <trkpt lat="43.02037" lon="-0.08272">
        <ele>418.79</ele>
        <time>2013-10-24T14:42:25Z</time>
      </trkpt>
      <trkpt lat="43.02036" lon="-0.08276">
        <ele>418.79</ele>
        <time>2013-10-24T14:42:28Z</time>
      </trkpt>
      <trkpt lat="43.02013" lon="-0.08297">
        <ele>418.79</ele>
        <time>2013-10-24T14:42:38Z</time>
      </trkpt>
      <trkpt lat="43.01995" lon="-0.08302">
        <ele>419.27</ele>
        <time>2013-10-24T14:42:45Z</time>
      </trkpt>
      <trkpt lat="43.01986" lon="-0.08301">
        <ele>418.31</ele>
        <time>2013-10-24T14:42:47Z</time>
      </trkpt>
      <trkpt lat="43.0196" lon="-0.08314">
        <ele>416.39</ele>
        <time>2013-10-24T14:42:52Z</time>
      </trkpt>
      <trkpt lat="43.01936" lon="-0.08337">
        <ele>417.83</ele>
        <time>2013-10-24T14:42:59Z</time>
      </trkpt>
      <trkpt lat="43.01924" lon="-0.0834">
        <ele>418.31</ele>
        <time>2013-10-24T14:43:03Z</time>
      </trkpt>
      <trkpt lat="43.01897" lon="-0.08358">
        <ele>418.31</ele>
        <time>2013-10-24T14:43:12Z</time>
      </trkpt>
      <trkpt lat="43.01888" lon="-0.0836">
        <ele>419.75</ele>
        <time>2013-10-24T14:43:14Z</time>
      </trkpt>
      <trkpt lat="43.01876" lon="-0.0836">
        <ele>420.23</ele>
        <time>2013-10-24T14:43:17Z</time>
      </trkpt>
      <trkpt lat="43.01852" lon="-0.08366">
        <ele>415.43</ele>
        <time>2013-10-24T14:43:21Z</time>
      </trkpt>
      <trkpt lat="43.01835" lon="-0.08372">
        <ele>414.95</ele>
        <time>2013-10-24T14:43:23Z</time>
      </trkpt>
      <trkpt lat="43.01816" lon="-0.08384">
        <ele>417.35</ele>
        <time>2013-10-24T14:43:27Z</time>
      </trkpt>
      <trkpt lat="43.01809" lon="-0.08395">
        <ele>417.83</ele>
        <time>2013-10-24T14:43:39Z</time>
      </trkpt>
      <trkpt lat="43.01802" lon="-0.08397">
        <ele>419.75</ele>
        <time>2013-10-24T14:43:43Z</time>
      </trkpt>
      <trkpt lat="43.01799" lon="-0.08399">
        <ele>420.23</ele>
        <time>2013-10-24T14:43:45Z</time>
      </trkpt>
      <trkpt lat="43.01784" lon="-0.08415">
        <ele>421.68</ele>
        <time>2013-10-24T14:43:53Z</time>
      </trkpt>
      <trkpt lat="43.01758" lon="-0.0843">
        <ele>422.16</ele>
        <time>2013-10-24T14:44:05Z</time>
      </trkpt>
      <trkpt lat="43.01748" lon="-0.08442">
        <ele>420.23</ele>
        <time>2013-10-24T14:44:10Z</time>
      </trkpt>
      <trkpt lat="43.01722" lon="-0.08448">
        <ele>417.83</ele>
        <time>2013-10-24T14:44:18Z</time>
      </trkpt>
      <trkpt lat="43.01717" lon="-0.08449">
        <ele>417.83</ele>
        <time>2013-10-24T14:44:19Z</time>
      </trkpt>
      <trkpt lat="43.01695" lon="-0.0845">
        <ele>418.31</ele>
        <time>2013-10-24T14:44:26Z</time>
      </trkpt>
      <trkpt lat="43.01681" lon="-0.08456">
        <ele>413.5</ele>
        <time>2013-10-24T14:44:29Z</time>
      </trkpt>
      <trkpt lat="43.01675" lon="-0.08464">
        <ele>413.02</ele>
        <time>2013-10-24T14:44:30Z</time>
      </trkpt>
      <trkpt lat="43.0167" lon="-0.08472">
        <ele>413.02</ele>
        <time>2013-10-24T14:44:31Z</time>
      </trkpt>
      <trkpt lat="43.0164" lon="-0.08502">
        <ele>416.87</ele>
        <time>2013-10-24T14:44:36Z</time>
      </trkpt>
      <trkpt lat="43.01639" lon="-0.08504">
        <ele>417.35</ele>
        <time>2013-10-24T14:44:37Z</time>
      </trkpt>
      <trkpt lat="43.01634" lon="-0.08509">
        <ele>415.91</ele>
        <time>2013-10-24T14:44:39Z</time>
      </trkpt>
      <trkpt lat="43.01618" lon="-0.08511">
        <ele>413.02</ele>
        <time>2013-10-24T14:44:42Z</time>
      </trkpt>
      <trkpt lat="43.01591" lon="-0.08515">
        <ele>412.54</ele>
        <time>2013-10-24T14:44:47Z</time>
      </trkpt>
      <trkpt lat="43.01578" lon="-0.08514">
        <ele>413.5</ele>
        <time>2013-10-24T14:44:49Z</time>
      </trkpt>
      <trkpt lat="43.01563" lon="-0.08506">
        <ele>417.83</ele>
        <time>2013-10-24T14:44:53Z</time>
      </trkpt>
      <trkpt lat="43.0156" lon="-0.08506">
        <ele>417.83</ele>
        <time>2013-10-24T14:44:54Z</time>
      </trkpt>
      <trkpt lat="43.01534" lon="-0.08506">
        <ele>415.43</ele>
        <time>2013-10-24T14:45:02Z</time>
      </trkpt>
      <trkpt lat="43.01525" lon="-0.08497">
        <ele>416.87</ele>
        <time>2013-10-24T14:45:05Z</time>
      </trkpt>
      <trkpt lat="43.01517" lon="-0.08492">
        <ele>415.91</ele>
        <time>2013-10-24T14:45:07Z</time>
      </trkpt>
      <trkpt lat="43.01501" lon="-0.08484">
        <ele>415.91</ele>
        <time>2013-10-24T14:45:10Z</time>
      </trkpt>
      <trkpt lat="43.01486" lon="-0.08475">
        <ele>416.39</ele>
        <time>2013-10-24T14:45:14Z</time>
      </trkpt>
      <trkpt lat="43.01482" lon="-0.08475">
        <ele>415.91</ele>
        <time>2013-10-24T14:45:15Z</time>
      </trkpt>
      <trkpt lat="43.01455" lon="-0.08486">
        <ele>413.02</ele>
        <time>2013-10-24T14:45:23Z</time>
      </trkpt>
      <trkpt lat="43.01432" lon="-0.08493">
        <ele>413.02</ele>
        <time>2013-10-24T14:45:31Z</time>
      </trkpt>
      <trkpt lat="43.01418" lon="-0.08496">
        <ele>413.5</ele>
        <time>2013-10-24T14:45:38Z</time>
      </trkpt>
      <trkpt lat="43.01394" lon="-0.08492">
        <ele>413.98</ele>
        <time>2013-10-24T14:45:48Z</time>
      </trkpt>
      <trkpt lat="43.01361" lon="-0.08481">
        <ele>414.95</ele>
        <time>2013-10-24T14:45:59Z</time>
      </trkpt>
      <trkpt lat="43.01343" lon="-0.0848">
        <ele>413.98</ele>
        <time>2013-10-24T14:46:04Z</time>
      </trkpt>
      <trkpt lat="43.01322" lon="-0.0847">
        <ele>413.98</ele>
        <time>2013-10-24T14:46:13Z</time>
      </trkpt>
      <trkpt lat="43.01322" lon="-0.08464">
        <ele>414.47</ele>
        <time>2013-10-24T14:46:15Z</time>
      </trkpt>
      <trkpt lat="43.01321" lon="-0.08458">
        <ele>414.95</ele>
        <time>2013-10-24T14:46:17Z</time>
      </trkpt>
      <trkpt lat="43.01316" lon="-0.08449">
        <ele>414.47</ele>
        <time>2013-10-24T14:46:24Z</time>
      </trkpt>
      <trkpt lat="43.01315" lon="-0.08447">
        <ele>414.47</ele>
        <time>2013-10-24T14:46:25Z</time>
      </trkpt>
      <trkpt lat="43.01303" lon="-0.08435">
        <ele>414.47</ele>
        <time>2013-10-24T14:46:33Z</time>
      </trkpt>
      <trkpt lat="43.01298" lon="-0.08429">
        <ele>414.47</ele>
        <time>2013-10-24T14:46:36Z</time>
      </trkpt>
      <trkpt lat="43.01268" lon="-0.08392">
        <ele>413.98</ele>
        <time>2013-10-24T14:46:48Z</time>
      </trkpt>
      <trkpt lat="43.01257" lon="-0.08379">
        <ele>414.47</ele>
        <time>2013-10-24T14:46:54Z</time>
      </trkpt>
      <trkpt lat="43.01229" lon="-0.08359">
        <ele>414.95</ele>
        <time>2013-10-24T14:47:06Z</time>
      </trkpt>
      <trkpt lat="43.01223" lon="-0.08358">
        <ele>414.95</ele>
        <time>2013-10-24T14:47:08Z</time>
      </trkpt>
      <trkpt lat="43.01204" lon="-0.08347">
        <ele>414.95</ele>
        <time>2013-10-24T14:47:15Z</time>
      </trkpt>
      <trkpt lat="43.01194" lon="-0.08348">
        <ele>414.95</ele>
        <time>2013-10-24T14:47:18Z</time>
      </trkpt>
      <trkpt lat="43.01159" lon="-0.08334">
        <ele>416.39</ele>
        <time>2013-10-24T14:47:29Z</time>
      </trkpt>
      <trkpt lat="43.01114" lon="-0.08312">
        <ele>417.35</ele>
        <time>2013-10-24T14:47:43Z</time>
      </trkpt>
      <trkpt lat="43.01096" lon="-0.08305">
        <ele>417.35</ele>
        <time>2013-10-24T14:47:49Z</time>
      </trkpt>
      <trkpt lat="43.01091" lon="-0.08309">
        <ele>417.83</ele>
        <time>2013-10-24T14:47:51Z</time>
      </trkpt>
      <trkpt lat="43.01061" lon="-0.08296">
        <ele>416.87</ele>
        <time>2013-10-24T14:48:01Z</time>
      </trkpt>
      <trkpt lat="43.01052" lon="-0.08277">
        <ele>417.35</ele>
        <time>2013-10-24T14:48:05Z</time>
      </trkpt>
      <trkpt lat="43.01032" lon="-0.08255">
        <ele>419.27</ele>
        <time>2013-10-24T14:48:11Z</time>
      </trkpt>
      <trkpt lat="43.01012" lon="-0.08268">
        <ele>415.91</ele>
        <time>2013-10-24T14:48:15Z</time>
      </trkpt>
      <trkpt lat="43.01005" lon="-0.08271">
        <ele>415.91</ele>
        <time>2013-10-24T14:48:16Z</time>
      </trkpt>
      <trkpt lat="43.00989" lon="-0.08268">
        <ele>416.39</ele>
        <time>2013-10-24T14:48:19Z</time>
      </trkpt>
      <trkpt lat="43.00941" lon="-0.0825">
        <ele>416.87</ele>
        <time>2013-10-24T14:48:29Z</time>
      </trkpt>
      <trkpt lat="43.00928" lon="-0.08248">
        <ele>416.39</ele>
        <time>2013-10-24T14:48:32Z</time>
      </trkpt>
      <trkpt lat="43.00908" lon="-0.08251">
        <ele>416.39</ele>
        <time>2013-10-24T14:48:36Z</time>
      </trkpt>
      <trkpt lat="43.00899" lon="-0.08249">
        <ele>416.39</ele>
        <time>2013-10-24T14:48:38Z</time>
      </trkpt>
      <trkpt lat="43.00883" lon="-0.08238">
        <ele>415.91</ele>
        <time>2013-10-24T14:48:42Z</time>
      </trkpt>
      <trkpt lat="43.00874" lon="-0.08234">
        <ele>415.91</ele>
        <time>2013-10-24T14:48:44Z</time>
      </trkpt>
      <trkpt lat="43.00862" lon="-0.08235">
        <ele>416.39</ele>
        <time>2013-10-24T14:48:47Z</time>
      </trkpt>
      <trkpt lat="43.0084" lon="-0.08236">
        <ele>416.87</ele>
        <time>2013-10-24T14:48:53Z</time>
      </trkpt>
      <trkpt lat="43.00823" lon="-0.08229">
        <ele>418.31</ele>
        <time>2013-10-24T14:48:57Z</time>
      </trkpt>
      <trkpt lat="43.00809" lon="-0.08225">
        <ele>416.39</ele>
        <time>2013-10-24T14:49:00Z</time>
      </trkpt>
      <trkpt lat="43.008" lon="-0.08223">
        <ele>416.87</ele>
        <time>2013-10-24T14:49:02Z</time>
      </trkpt>
      <trkpt lat="43.00789" lon="-0.08224">
        <ele>416.39</ele>
        <time>2013-10-24T14:49:04Z</time>
      </trkpt>
      <trkpt lat="43.00768" lon="-0.08214">
        <ele>416.39</ele>
        <time>2013-10-24T14:49:09Z</time>
      </trkpt>
      <trkpt lat="43.00752" lon="-0.08212">
        <ele>416.87</ele>
        <time>2013-10-24T14:49:13Z</time>
      </trkpt>
      <trkpt lat="43.00732" lon="-0.08203">
        <ele>417.35</ele>
        <time>2013-10-24T14:49:18Z</time>
      </trkpt>
      <trkpt lat="43.00718" lon="-0.08188">
        <ele>417.83</ele>
        <time>2013-10-24T14:49:22Z</time>
      </trkpt>
      <trkpt lat="43.00706" lon="-0.08181">
        <ele>417.83</ele>
        <time>2013-10-24T14:49:25Z</time>
      </trkpt>
      <trkpt lat="43.00658" lon="-0.08177">
        <ele>418.79</ele>
        <time>2013-10-24T14:49:36Z</time>
      </trkpt>
      <trkpt lat="43.00633" lon="-0.08161">
        <ele>421.19</ele>
        <time>2013-10-24T14:49:46Z</time>
      </trkpt>
      <trkpt lat="43.00598" lon="-0.08134">
        <ele>423.12</ele>
        <time>2013-10-24T14:49:58Z</time>
      </trkpt>
      <trkpt lat="43.00583" lon="-0.08132">
        <ele>424.56</ele>
        <time>2013-10-24T14:50:04Z</time>
      </trkpt>
      <trkpt lat="43.0058" lon="-0.08129">
        <ele>424.56</ele>
        <time>2013-10-24T14:50:06Z</time>
      </trkpt>
      <trkpt lat="43.0057" lon="-0.08115">
        <ele>423.12</ele>
        <time>2013-10-24T14:50:13Z</time>
      </trkpt>
      <trkpt lat="43.00556" lon="-0.08098">
        <ele>424.08</ele>
        <time>2013-10-24T14:50:23Z</time>
      </trkpt>
      <trkpt lat="43.00547" lon="-0.08099">
        <ele>425.04</ele>
        <time>2013-10-24T14:50:33Z</time>
      </trkpt>
      <trkpt lat="43.00549" lon="-0.08093">
        <ele>425.52</ele>
        <time>2013-10-24T14:50:38Z</time>
      </trkpt>
      <trkpt lat="43.00551" lon="-0.08098">
        <ele>425.52</ele>
        <time>2013-10-24T14:50:43Z</time>
      </trkpt>
      <trkpt lat="43.00549" lon="-0.08102">
        <ele>423.12</ele>
        <time>2013-10-24T14:50:48Z</time>
      </trkpt>
      <trkpt lat="43.00549" lon="-0.08101">
        <ele>423.6</ele>
        <time>2013-10-24T14:50:49Z</time>
      </trkpt>
      <trkpt lat="43.00549" lon="-0.08102">
        <ele>423.6</ele>
        <time>2013-10-24T14:50:55Z</time>
      </trkpt>
      <trkpt lat="43.00549" lon="-0.08103">
        <ele>423.12</ele>
        <time>2013-10-24T14:50:56Z</time>
      </trkpt>
      <trkpt lat="43.00554" lon="-0.08095">
        <ele>425.04</ele>
        <time>2013-10-24T14:51:03Z</time>
      </trkpt>
      <trkpt lat="43.00545" lon="-0.08088">
        <ele>423.6</ele>
        <time>2013-10-24T14:51:07Z</time>
      </trkpt>
      <trkpt lat="43.00522" lon="-0.08052">
        <ele>423.6</ele>
        <time>2013-10-24T14:51:20Z</time>
      </trkpt>
      <trkpt lat="43.00511" lon="-0.08035">
        <ele>422.64</ele>
        <time>2013-10-24T14:51:24Z</time>
      </trkpt>
      <trkpt lat="43.00506" lon="-0.08025">
        <ele>422.64</ele>
        <time>2013-10-24T14:51:26Z</time>
      </trkpt>
      <trkpt lat="43.00497" lon="-0.08006">
        <ele>422.64</ele>
        <time>2013-10-24T14:51:30Z</time>
      </trkpt>
      <trkpt lat="43.00476" lon="-0.07968">
        <ele>422.16</ele>
        <time>2013-10-24T14:51:39Z</time>
      </trkpt>
      <trkpt lat="43.0047" lon="-0.0796">
        <ele>420.71</ele>
        <time>2013-10-24T14:51:41Z</time>
      </trkpt>
      <trkpt lat="43.00457" lon="-0.0794">
        <ele>423.6</ele>
        <time>2013-10-24T14:51:46Z</time>
      </trkpt>
      <trkpt lat="43.00455" lon="-0.07936">
        <ele>425.52</ele>
        <time>2013-10-24T14:51:47Z</time>
      </trkpt>
      <trkpt lat="43.00449" lon="-0.0792">
        <ele>426.48</ele>
        <time>2013-10-24T14:51:53Z</time>
      </trkpt>
      <trkpt lat="43.00448" lon="-0.07918">
        <ele>427.44</ele>
        <time>2013-10-24T14:51:55Z</time>
      </trkpt>
      <trkpt lat="43.00448" lon="-0.07912">
        <ele>429.37</ele>
        <time>2013-10-24T14:51:59Z</time>
      </trkpt>
      <trkpt lat="43.0045" lon="-0.07906">
        <ele>429.85</ele>
        <time>2013-10-24T14:52:04Z</time>
      </trkpt>
      <trkpt lat="43.00445" lon="-0.07904">
        <ele>430.81</ele>
        <time>2013-10-24T14:52:17Z</time>
      </trkpt>
      <trkpt lat="43.00444" lon="-0.07905">
        <ele>430.33</ele>
        <time>2013-10-24T14:52:33Z</time>
      </trkpt>
      <trkpt lat="43.00442" lon="-0.07905">
        <ele>430.33</ele>
        <time>2013-10-24T14:52:43Z</time>
      </trkpt>
      <trkpt lat="43.00434" lon="-0.07899">
        <ele>431.77</ele>
        <time>2013-10-24T14:52:49Z</time>
      </trkpt>
      <trkpt lat="43.00426" lon="-0.07892">
        <ele>432.25</ele>
        <time>2013-10-24T14:52:55Z</time>
      </trkpt>
      <trkpt lat="43.00405" lon="-0.07867">
        <ele>433.21</ele>
        <time>2013-10-24T14:53:09Z</time>
      </trkpt>
      <trkpt lat="43.00404" lon="-0.07865">
        <ele>433.21</ele>
        <time>2013-10-24T14:53:10Z</time>
      </trkpt>
      <trkpt lat="43.00387" lon="-0.07834">
        <ele>434.65</ele>
        <time>2013-10-24T14:53:22Z</time>
      </trkpt>
      <trkpt lat="43.00383" lon="-0.07826">
        <ele>434.65</ele>
        <time>2013-10-24T14:53:26Z</time>
      </trkpt>
      <trkpt lat="43.00374" lon="-0.07796">
        <ele>436.58</ele>
        <time>2013-10-24T14:53:38Z</time>
      </trkpt>
      <trkpt lat="43.00369" lon="-0.07773">
        <ele>437.06</ele>
        <time>2013-10-24T14:53:46Z</time>
      </trkpt>
      <trkpt lat="43.00356" lon="-0.07723">
        <ele>438.5</ele>
        <time>2013-10-24T14:53:59Z</time>
      </trkpt>
      <trkpt lat="43.00353" lon="-0.07711">
        <ele>438.5</ele>
        <time>2013-10-24T14:54:02Z</time>
      </trkpt>
      <trkpt lat="43.0035" lon="-0.07699">
        <ele>438.98</ele>
        <time>2013-10-24T14:54:06Z</time>
      </trkpt>
      <trkpt lat="43.00347" lon="-0.07688">
        <ele>439.46</ele>
        <time>2013-10-24T14:54:12Z</time>
      </trkpt>
      <trkpt lat="43.00342" lon="-0.07674">
        <ele>439.46</ele>
        <time>2013-10-24T14:54:17Z</time>
      </trkpt>
      <trkpt lat="43.00326" lon="-0.07633">
        <ele>439.94</ele>
        <time>2013-10-24T14:54:29Z</time>
      </trkpt>
      <trkpt lat="43.00317" lon="-0.07594">
        <ele>440.9</ele>
        <time>2013-10-24T14:54:40Z</time>
      </trkpt>
      <trkpt lat="43.00317" lon="-0.07551">
        <ele>441.38</ele>
        <time>2013-10-24T14:54:51Z</time>
      </trkpt>
      <trkpt lat="43.00324" lon="-0.07509">
        <ele>443.31</ele>
        <time>2013-10-24T14:55:02Z</time>
      </trkpt>
      <trkpt lat="43.00326" lon="-0.07496">
        <ele>443.79</ele>
        <time>2013-10-24T14:55:05Z</time>
      </trkpt>
      <trkpt lat="43.00325" lon="-0.07482">
        <ele>444.27</ele>
        <time>2013-10-24T14:55:09Z</time>
      </trkpt>
      <trkpt lat="43.00327" lon="-0.07465">
        <ele>444.27</ele>
        <time>2013-10-24T14:55:16Z</time>
      </trkpt>
      <trkpt lat="43.00335" lon="-0.07454">
        <ele>443.79</ele>
        <time>2013-10-24T14:55:20Z</time>
      </trkpt>
      <trkpt lat="43.00341" lon="-0.07422">
        <ele>441.86</ele>
        <time>2013-10-24T14:55:26Z</time>
      </trkpt>
      <trkpt lat="43.00336" lon="-0.07382">
        <ele>439.94</ele>
        <time>2013-10-24T14:55:31Z</time>
      </trkpt>
      <trkpt lat="43.00352" lon="-0.07349">
        <ele>443.79</ele>
        <time>2013-10-24T14:55:36Z</time>
      </trkpt>
      <trkpt lat="43.00381" lon="-0.07321">
        <ele>445.23</ele>
        <time>2013-10-24T14:55:45Z</time>
      </trkpt>
      <trkpt lat="43.00407" lon="-0.07299">
        <ele>446.19</ele>
        <time>2013-10-24T14:55:53Z</time>
      </trkpt>
      <trkpt lat="43.00422" lon="-0.07292">
        <ele>447.63</ele>
        <time>2013-10-24T14:55:57Z</time>
      </trkpt>
      <trkpt lat="43.00455" lon="-0.07277">
        <ele>448.59</ele>
        <time>2013-10-24T14:56:08Z</time>
      </trkpt>
      <trkpt lat="43.00479" lon="-0.07261">
        <ele>452.44</ele>
        <time>2013-10-24T14:56:19Z</time>
      </trkpt>
      <trkpt lat="43.00481" lon="-0.07261">
        <ele>452.92</ele>
        <time>2013-10-24T14:56:20Z</time>
      </trkpt>
      <trkpt lat="43.00492" lon="-0.07246">
        <ele>453.88</ele>
        <time>2013-10-24T14:56:28Z</time>
      </trkpt>
      <trkpt lat="43.00519" lon="-0.07226">
        <ele>455.8</ele>
        <time>2013-10-24T14:56:43Z</time>
      </trkpt>
      <trkpt lat="43.00551" lon="-0.07205">
        <ele>458.21</ele>
        <time>2013-10-24T14:56:59Z</time>
      </trkpt>
      <trkpt lat="43.00563" lon="-0.07194">
        <ele>459.17</ele>
        <time>2013-10-24T14:57:11Z</time>
      </trkpt>
      <trkpt lat="43.00563" lon="-0.07194">
        <ele>454.36</ele>
        <time>2013-10-24T14:57:15Z</time>
      </trkpt>
      <trkpt lat="43.00563" lon="-0.07194">
        <ele>454.36</ele>
        <time>2013-10-24T14:57:16Z</time>
      </trkpt>
      <trkpt lat="43.00563" lon="-0.07194">
        <ele>460.13</ele>
        <time>2013-10-24T14:57:17Z</time>
      </trkpt>
      <trkpt lat="43.00563" lon="-0.07194">
        <ele>459.65</ele>
        <time>2013-10-24T14:57:18Z</time>
      </trkpt>
      <trkpt lat="43.00563" lon="-0.07194">
        <ele>449.07</ele>
        <time>2013-10-24T14:57:20Z</time>
      </trkpt>
      <trkpt lat="43.00563" lon="-0.07194">
        <ele>463.01</ele>
        <time>2013-10-24T14:57:21Z</time>
      </trkpt>
      <trkpt lat="43.00563" lon="-0.07194">
        <ele>459.65</ele>
        <time>2013-10-24T14:57:22Z</time>
      </trkpt>
      <trkpt lat="43.00563" lon="-0.07194">
        <ele>463.49</ele>
        <time>2013-10-24T14:57:23Z</time>
      </trkpt>
      <trkpt lat="43.00563" lon="-0.07194">
        <ele>459.65</ele>
        <time>2013-10-24T14:57:24Z</time>
      </trkpt>
      <trkpt lat="43.00565" lon="-0.07192">
        <ele>459.17</ele>
        <time>2013-10-24T14:57:42Z</time>
      </trkpt>
      <trkpt lat="43.00581" lon="-0.07175">
        <ele>459.65</ele>
        <time>2013-10-24T14:57:53Z</time>
      </trkpt>
      <trkpt lat="43.00599" lon="-0.07172">
        <ele>459.17</ele>
        <time>2013-10-24T14:58:00Z</time>
      </trkpt>
      <trkpt lat="43.00627" lon="-0.07143">
        <ele>458.21</ele>
        <time>2013-10-24T14:58:11Z</time>
      </trkpt>
      <trkpt lat="43.00647" lon="-0.07105">
        <ele>458.69</ele>
        <time>2013-10-24T14:58:22Z</time>
      </trkpt>
      <trkpt lat="43.00683" lon="-0.07084">
        <ele>460.61</ele>
        <time>2013-10-24T14:58:34Z</time>
      </trkpt>
      <trkpt lat="43.0072" lon="-0.07066">
        <ele>461.57</ele>
        <time>2013-10-24T14:58:44Z</time>
      </trkpt>
      <trkpt lat="43.00765" lon="-0.07041">
        <ele>460.61</ele>
        <time>2013-10-24T14:58:56Z</time>
      </trkpt>
      <trkpt lat="43.00769" lon="-0.07038">
        <ele>459.65</ele>
        <time>2013-10-24T14:58:57Z</time>
      </trkpt>
      <trkpt lat="43.00799" lon="-0.07025">
        <ele>458.69</ele>
        <time>2013-10-24T14:59:02Z</time>
      </trkpt>
      <trkpt lat="43.00833" lon="-0.07008">
        <ele>458.21</ele>
        <time>2013-10-24T14:59:07Z</time>
      </trkpt>
      <trkpt lat="43.00847" lon="-0.07004">
        <ele>458.69</ele>
        <time>2013-10-24T14:59:11Z</time>
      </trkpt>
      <trkpt lat="43.00859" lon="-0.06993">
        <ele>457.24</ele>
        <time>2013-10-24T14:59:15Z</time>
      </trkpt>
      <trkpt lat="43.00893" lon="-0.06988">
        <ele>454.84</ele>
        <time>2013-10-24T14:59:21Z</time>
      </trkpt>
      <trkpt lat="43.00967" lon="-0.06997">
        <ele>453.4</ele>
        <time>2013-10-24T14:59:35Z</time>
      </trkpt>
      <trkpt lat="43.00982" lon="-0.06993">
        <ele>453.88</ele>
        <time>2013-10-24T14:59:38Z</time>
      </trkpt>
      <trkpt lat="43.01035" lon="-0.06996">
        <ele>452.92</ele>
        <time>2013-10-24T14:59:48Z</time>
      </trkpt>
      <trkpt lat="43.01053" lon="-0.06994">
        <ele>453.4</ele>
        <time>2013-10-24T14:59:52Z</time>
      </trkpt>
      <trkpt lat="43.01077" lon="-0.06982">
        <ele>455.32</ele>
        <time>2013-10-24T15:00:00Z</time>
      </trkpt>
      <trkpt lat="43.01083" lon="-0.06983">
        <ele>456.28</ele>
        <time>2013-10-24T15:00:02Z</time>
      </trkpt>
      <trkpt lat="43.01112" lon="-0.06975">
        <ele>456.28</ele>
        <time>2013-10-24T15:00:11Z</time>
      </trkpt>
      <trkpt lat="43.01118" lon="-0.06962">
        <ele>455.32</ele>
        <time>2013-10-24T15:00:13Z</time>
      </trkpt>
      <trkpt lat="43.01125" lon="-0.06933">
        <ele>455.32</ele>
        <time>2013-10-24T15:00:17Z</time>
      </trkpt>
      <trkpt lat="43.01136" lon="-0.06901">
        <ele>456.28</ele>
        <time>2013-10-24T15:00:23Z</time>
      </trkpt>
      <trkpt lat="43.0114" lon="-0.06888">
        <ele>455.32</ele>
        <time>2013-10-24T15:00:25Z</time>
      </trkpt>
      <trkpt lat="43.01149" lon="-0.06829">
        <ele>451.48</ele>
        <time>2013-10-24T15:00:32Z</time>
      </trkpt>
      <trkpt lat="43.01152" lon="-0.06811">
        <ele>450.03</ele>
        <time>2013-10-24T15:00:34Z</time>
      </trkpt>
      <trkpt lat="43.01158" lon="-0.06797">
        <ele>447.63</ele>
        <time>2013-10-24T15:00:36Z</time>
      </trkpt>
      <trkpt lat="43.01169" lon="-0.06767">
        <ele>443.31</ele>
        <time>2013-10-24T15:00:39Z</time>
      </trkpt>
      <trkpt lat="43.01183" lon="-0.06742">
        <ele>443.79</ele>
        <time>2013-10-24T15:00:45Z</time>
      </trkpt>
      <trkpt lat="43.01204" lon="-0.06711">
        <ele>445.23</ele>
        <time>2013-10-24T15:00:57Z</time>
      </trkpt>
      <trkpt lat="43.01208" lon="-0.0671">
        <ele>445.23</ele>
        <time>2013-10-24T15:01:00Z</time>
      </trkpt>
      <trkpt lat="43.01213" lon="-0.0671">
        <ele>445.23</ele>
        <time>2013-10-24T15:01:03Z</time>
      </trkpt>
      <trkpt lat="43.01219" lon="-0.06707">
        <ele>445.23</ele>
        <time>2013-10-24T15:01:07Z</time>
      </trkpt>
      <trkpt lat="43.01233" lon="-0.06704">
        <ele>445.71</ele>
        <time>2013-10-24T15:01:15Z</time>
      </trkpt>
      <trkpt lat="43.01239" lon="-0.06708">
        <ele>445.23</ele>
        <time>2013-10-24T15:01:19Z</time>
      </trkpt>
      <trkpt lat="43.01255" lon="-0.06703">
        <ele>446.19</ele>
        <time>2013-10-24T15:01:26Z</time>
      </trkpt>
      <trkpt lat="43.01298" lon="-0.0669">
        <ele>448.59</ele>
        <time>2013-10-24T15:01:41Z</time>
      </trkpt>
      <trkpt lat="43.01342" lon="-0.06673">
        <ele>451.48</ele>
        <time>2013-10-24T15:01:56Z</time>
      </trkpt>
      <trkpt lat="43.0137" lon="-0.06669">
        <ele>452.44</ele>
        <time>2013-10-24T15:02:05Z</time>
      </trkpt>
      <trkpt lat="43.01388" lon="-0.06671">
        <ele>451.48</ele>
        <time>2013-10-24T15:02:09Z</time>
      </trkpt>
      <trkpt lat="43.01429" lon="-0.06679">
        <ele>449.07</ele>
        <time>2013-10-24T15:02:16Z</time>
      </trkpt>
      <trkpt lat="43.01442" lon="-0.06664">
        <ele>449.07</ele>
        <time>2013-10-24T15:02:22Z</time>
      </trkpt>
      <trkpt lat="43.01431" lon="-0.06623">
        <ele>452.92</ele>
        <time>2013-10-24T15:02:37Z</time>
      </trkpt>
      <trkpt lat="43.01431" lon="-0.06579">
        <ele>456.28</ele>
        <time>2013-10-24T15:02:51Z</time>
      </trkpt>
      <trkpt lat="43.01446" lon="-0.06525">
        <ele>457.24</ele>
        <time>2013-10-24T15:03:05Z</time>
      </trkpt>
      <trkpt lat="43.01458" lon="-0.06477">
        <ele>459.17</ele>
        <time>2013-10-24T15:03:18Z</time>
      </trkpt>
      <trkpt lat="43.01455" lon="-0.06429">
        <ele>460.61</ele>
        <time>2013-10-24T15:03:31Z</time>
      </trkpt>
      <trkpt lat="43.01449" lon="-0.06398">
        <ele>463.49</ele>
        <time>2013-10-24T15:03:41Z</time>
      </trkpt>
      <trkpt lat="43.01447" lon="-0.06384">
        <ele>465.42</ele>
        <time>2013-10-24T15:03:46Z</time>
      </trkpt>
      <trkpt lat="43.01445" lon="-0.06377">
        <ele>466.38</ele>
        <time>2013-10-24T15:03:50Z</time>
      </trkpt>
      <trkpt lat="43.01449" lon="-0.06357">
        <ele>468.78</ele>
        <time>2013-10-24T15:03:57Z</time>
      </trkpt>
      <trkpt lat="43.01458" lon="-0.06333">
        <ele>472.63</ele>
        <time>2013-10-24T15:04:07Z</time>
      </trkpt>
      <trkpt lat="43.01459" lon="-0.06331">
        <ele>472.63</ele>
        <time>2013-10-24T15:04:08Z</time>
      </trkpt>
      <trkpt lat="43.01462" lon="-0.06315">
        <ele>474.55</ele>
        <time>2013-10-24T15:04:15Z</time>
      </trkpt>
      <trkpt lat="43.0145" lon="-0.06297">
        <ele>478.39</ele>
        <time>2013-10-24T15:04:26Z</time>
      </trkpt>
      <trkpt lat="43.01437" lon="-0.06315">
        <ele>480.8</ele>
        <time>2013-10-24T15:04:35Z</time>
      </trkpt>
      <trkpt lat="43.01434" lon="-0.06324">
        <ele>481.76</ele>
        <time>2013-10-24T15:04:39Z</time>
      </trkpt>
      <trkpt lat="43.0142" lon="-0.06314">
        <ele>484.64</ele>
        <time>2013-10-24T15:04:50Z</time>
      </trkpt>
      <trkpt lat="43.0142" lon="-0.06311">
        <ele>484.16</ele>
        <time>2013-10-24T15:04:51Z</time>
      </trkpt>
      <trkpt lat="43.01427" lon="-0.06269">
        <ele>488.01</ele>
        <time>2013-10-24T15:05:05Z</time>
      </trkpt>
      <trkpt lat="43.0143" lon="-0.06237">
        <ele>490.89</ele>
        <time>2013-10-24T15:05:15Z</time>
      </trkpt>
      <trkpt lat="43.0143" lon="-0.06225">
        <ele>491.37</ele>
        <time>2013-10-24T15:05:19Z</time>
      </trkpt>
      <trkpt lat="43.0143" lon="-0.06213">
        <ele>492.81</ele>
        <time>2013-10-24T15:05:23Z</time>
      </trkpt>
      <trkpt lat="43.0144" lon="-0.06176">
        <ele>496.66</ele>
        <time>2013-10-24T15:05:35Z</time>
      </trkpt>
      <trkpt lat="43.01458" lon="-0.06146">
        <ele>500.02</ele>
        <time>2013-10-24T15:05:47Z</time>
      </trkpt>
      <trkpt lat="43.01471" lon="-0.06135">
        <ele>501.95</ele>
        <time>2013-10-24T15:05:53Z</time>
      </trkpt>
      <trkpt lat="43.01486" lon="-0.06123">
        <ele>504.83</ele>
        <time>2013-10-24T15:06:01Z</time>
      </trkpt>
      <trkpt lat="43.01511" lon="-0.06106">
        <ele>508.19</ele>
        <time>2013-10-24T15:06:14Z</time>
      </trkpt>
      <trkpt lat="43.01524" lon="-0.06092">
        <ele>510.12</ele>
        <time>2013-10-24T15:06:22Z</time>
      </trkpt>
      <trkpt lat="43.01532" lon="-0.06078">
        <ele>512.04</ele>
        <time>2013-10-24T15:06:29Z</time>
      </trkpt>
      <trkpt lat="43.01545" lon="-0.06055">
        <ele>515.4</ele>
        <time>2013-10-24T15:06:41Z</time>
      </trkpt>
      <trkpt lat="43.01565" lon="-0.06034">
        <ele>518.29</ele>
        <time>2013-10-24T15:06:54Z</time>
      </trkpt>
      <trkpt lat="43.01582" lon="-0.06011">
        <ele>521.65</ele>
        <time>2013-10-24T15:07:06Z</time>
      </trkpt>
      <trkpt lat="43.01601" lon="-0.05983">
        <ele>524.54</ele>
        <time>2013-10-24T15:07:20Z</time>
      </trkpt>
      <trkpt lat="43.01617" lon="-0.05971">
        <ele>527.42</ele>
        <time>2013-10-24T15:07:30Z</time>
      </trkpt>
      <trkpt lat="43.01636" lon="-0.05962">
        <ele>530.79</ele>
        <time>2013-10-24T15:07:40Z</time>
      </trkpt>
      <trkpt lat="43.01651" lon="-0.05934">
        <ele>533.67</ele>
        <time>2013-10-24T15:07:53Z</time>
      </trkpt>
      <trkpt lat="43.01662" lon="-0.05907">
        <ele>536.55</ele>
        <time>2013-10-24T15:08:04Z</time>
      </trkpt>
      <trkpt lat="43.01673" lon="-0.05873">
        <ele>539.92</ele>
        <time>2013-10-24T15:08:17Z</time>
      </trkpt>
      <trkpt lat="43.01688" lon="-0.05847">
        <ele>543.28</ele>
        <time>2013-10-24T15:08:29Z</time>
      </trkpt>
      <trkpt lat="43.01707" lon="-0.05827">
        <ele>546.65</ele>
        <time>2013-10-24T15:08:42Z</time>
      </trkpt>
      <trkpt lat="43.01709" lon="-0.05818">
        <ele>547.61</ele>
        <time>2013-10-24T15:08:46Z</time>
      </trkpt>
      <trkpt lat="43.01703" lon="-0.05811">
        <ele>549.05</ele>
        <time>2013-10-24T15:08:51Z</time>
      </trkpt>
      <trkpt lat="43.01698" lon="-0.05807">
        <ele>549.53</ele>
        <time>2013-10-24T15:08:55Z</time>
      </trkpt>
      <trkpt lat="43.01678" lon="-0.05811">
        <ele>552.9</ele>
        <time>2013-10-24T15:09:07Z</time>
      </trkpt>
      <trkpt lat="43.01669" lon="-0.05814">
        <ele>553.86</ele>
        <time>2013-10-24T15:09:13Z</time>
      </trkpt>
      <trkpt lat="43.0166" lon="-0.05815">
        <ele>555.3</ele>
        <time>2013-10-24T15:09:19Z</time>
      </trkpt>
      <trkpt lat="43.01641" lon="-0.05828">
        <ele>557.7</ele>
        <time>2013-10-24T15:09:31Z</time>
      </trkpt>
      <trkpt lat="43.01634" lon="-0.05831">
        <ele>558.66</ele>
        <time>2013-10-24T15:09:35Z</time>
      </trkpt>
      <trkpt lat="43.01602" lon="-0.05839">
        <ele>561.07</ele>
        <time>2013-10-24T15:09:49Z</time>
      </trkpt>
      <trkpt lat="43.01569" lon="-0.05848">
        <ele>563.95</ele>
        <time>2013-10-24T15:10:03Z</time>
      </trkpt>
      <trkpt lat="43.01567" lon="-0.05847">
        <ele>563.95</ele>
        <time>2013-10-24T15:10:04Z</time>
      </trkpt>
      <trkpt lat="43.01558" lon="-0.05847">
        <ele>565.39</ele>
        <time>2013-10-24T15:10:08Z</time>
      </trkpt>
      <trkpt lat="43.01527" lon="-0.05848">
        <ele>565.87</ele>
        <time>2013-10-24T15:10:22Z</time>
      </trkpt>
      <trkpt lat="43.01511" lon="-0.05848">
        <ele>566.35</ele>
        <time>2013-10-24T15:10:28Z</time>
      </trkpt>
      <trkpt lat="43.01509" lon="-0.05851">
        <ele>567.32</ele>
        <time>2013-10-24T15:10:30Z</time>
      </trkpt>
      <trkpt lat="43.01505" lon="-0.05854">
        <ele>567.8</ele>
        <time>2013-10-24T15:10:33Z</time>
      </trkpt>
      <trkpt lat="43.01492" lon="-0.05861">
        <ele>570.68</ele>
        <time>2013-10-24T15:10:42Z</time>
      </trkpt>
      <trkpt lat="43.01478" lon="-0.05871">
        <ele>574.04</ele>
        <time>2013-10-24T15:10:51Z</time>
      </trkpt>
      <trkpt lat="43.01459" lon="-0.05884">
        <ele>576.45</ele>
        <time>2013-10-24T15:11:03Z</time>
      </trkpt>
      <trkpt lat="43.01457" lon="-0.05886">
        <ele>576.93</ele>
        <time>2013-10-24T15:11:05Z</time>
      </trkpt>
      <trkpt lat="43.01451" lon="-0.05894">
        <ele>578.37</ele>
        <time>2013-10-24T15:11:17Z</time>
      </trkpt>
      <trkpt lat="43.0145" lon="-0.05896">
        <ele>577.89</ele>
        <time>2013-10-24T15:11:38Z</time>
      </trkpt>
      <trkpt lat="43.01452" lon="-0.05895">
        <ele>578.37</ele>
        <time>2013-10-24T15:12:10Z</time>
      </trkpt>
      <trkpt lat="43.01451" lon="-0.05895">
        <ele>578.85</ele>
        <time>2013-10-24T15:12:38Z</time>
      </trkpt>
      <trkpt lat="43.01452" lon="-0.05896">
        <ele>578.85</ele>
        <time>2013-10-24T15:13:07Z</time>
      </trkpt>
      <trkpt lat="43.01452" lon="-0.05895">
        <ele>578.85</ele>
        <time>2013-10-24T15:13:42Z</time>
      </trkpt>
      <trkpt lat="43.01452" lon="-0.05895">
        <ele>578.85</ele>
        <time>2013-10-24T15:14:10Z</time>
      </trkpt>
      <trkpt lat="43.01452" lon="-0.05894">
        <ele>579.33</ele>
        <time>2013-10-24T15:14:28Z</time>
      </trkpt>
      <trkpt lat="43.01451" lon="-0.05893">
        <ele>578.85</ele>
        <time>2013-10-24T15:14:32Z</time>
      </trkpt>
      <trkpt lat="43.01449" lon="-0.05893">
        <ele>578.85</ele>
        <time>2013-10-24T15:14:35Z</time>
      </trkpt>
      <trkpt lat="43.01448" lon="-0.05893">
        <ele>578.85</ele>
        <time>2013-10-24T15:14:38Z</time>
      </trkpt>
      <trkpt lat="43.01441" lon="-0.05895">
        <ele>578.85</ele>
        <time>2013-10-24T15:14:42Z</time>
      </trkpt>
      <trkpt lat="43.01431" lon="-0.05904">
        <ele>576.93</ele>
        <time>2013-10-24T15:14:46Z</time>
      </trkpt>
      <trkpt lat="43.01421" lon="-0.05924">
        <ele>574.04</ele>
        <time>2013-10-24T15:14:49Z</time>
      </trkpt>
      <trkpt lat="43.01395" lon="-0.05925">
        <ele>568.76</ele>
        <time>2013-10-24T15:14:54Z</time>
      </trkpt>
      <trkpt lat="43.01391" lon="-0.0592">
        <ele>569.24</ele>
        <time>2013-10-24T15:14:55Z</time>
      </trkpt>
      <trkpt lat="43.01385" lon="-0.05894">
        <ele>566.83</ele>
        <time>2013-10-24T15:14:59Z</time>
      </trkpt>
      <trkpt lat="43.01384" lon="-0.05879">
        <ele>565.87</ele>
        <time>2013-10-24T15:15:01Z</time>
      </trkpt>
      <trkpt lat="43.01389" lon="-0.05851">
        <ele>564.43</ele>
        <time>2013-10-24T15:15:08Z</time>
      </trkpt>
      <trkpt lat="43.0139" lon="-0.05849">
        <ele>564.91</ele>
        <time>2013-10-24T15:15:25Z</time>
      </trkpt>
      <trkpt lat="43.01389" lon="-0.0585">
        <ele>564.43</ele>
        <time>2013-10-24T15:15:44Z</time>
      </trkpt>
      <trkpt lat="43.0139" lon="-0.05851">
        <ele>564.91</ele>
        <time>2013-10-24T15:16:06Z</time>
      </trkpt>
      <trkpt lat="43.0139" lon="-0.0585">
        <ele>564.43</ele>
        <time>2013-10-24T15:16:30Z</time>
      </trkpt>
      <trkpt lat="43.01391" lon="-0.05851">
        <ele>564.43</ele>
        <time>2013-10-24T15:16:52Z</time>
      </trkpt>
      <trkpt lat="43.01386" lon="-0.05835">
        <ele>563.47</ele>
        <time>2013-10-24T15:17:03Z</time>
      </trkpt>
      <trkpt lat="43.01386" lon="-0.05813">
        <ele>562.03</ele>
        <time>2013-10-24T15:17:13Z</time>
      </trkpt>
      <trkpt lat="43.01379" lon="-0.05789">
        <ele>559.62</ele>
        <time>2013-10-24T15:17:20Z</time>
      </trkpt>
      <trkpt lat="43.01377" lon="-0.05784">
        <ele>559.14</ele>
        <time>2013-10-24T15:17:21Z</time>
      </trkpt>
      <trkpt lat="43.01373" lon="-0.05773">
        <ele>558.66</ele>
        <time>2013-10-24T15:17:23Z</time>
      </trkpt>
      <trkpt lat="43.01351" lon="-0.0578">
        <ele>557.7</ele>
        <time>2013-10-24T15:17:29Z</time>
      </trkpt>
      <trkpt lat="43.01346" lon="-0.05815">
        <ele>556.74</ele>
        <time>2013-10-24T15:17:36Z</time>
      </trkpt>
      <trkpt lat="43.01336" lon="-0.05838">
        <ele>554.82</ele>
        <time>2013-10-24T15:17:40Z</time>
      </trkpt>
      <trkpt lat="43.01326" lon="-0.05866">
        <ele>550.97</ele>
        <time>2013-10-24T15:17:44Z</time>
      </trkpt>
      <trkpt lat="43.01321" lon="-0.05883">
        <ele>549.05</ele>
        <time>2013-10-24T15:17:46Z</time>
      </trkpt>
      <trkpt lat="43.01313" lon="-0.05915">
        <ele>545.69</ele>
        <time>2013-10-24T15:17:50Z</time>
      </trkpt>
      <trkpt lat="43.01304" lon="-0.05935">
        <ele>545.69</ele>
        <time>2013-10-24T15:17:54Z</time>
      </trkpt>
      <trkpt lat="43.01295" lon="-0.05946">
        <ele>544.24</ele>
        <time>2013-10-24T15:17:57Z</time>
      </trkpt>
      <trkpt lat="43.01278" lon="-0.0597">
        <ele>541.84</ele>
        <time>2013-10-24T15:18:02Z</time>
      </trkpt>
      <trkpt lat="43.01271" lon="-0.05991">
        <ele>540.4</ele>
        <time>2013-10-24T15:18:06Z</time>
      </trkpt>
      <trkpt lat="43.01267" lon="-0.06012">
        <ele>537.99</ele>
        <time>2013-10-24T15:18:09Z</time>
      </trkpt>
      <trkpt lat="43.01265" lon="-0.06034">
        <ele>534.63</ele>
        <time>2013-10-24T15:18:13Z</time>
      </trkpt>
      <trkpt lat="43.01264" lon="-0.06043">
        <ele>532.71</ele>
        <time>2013-10-24T15:18:15Z</time>
      </trkpt>
      <trkpt lat="43.01265" lon="-0.06052">
        <ele>530.79</ele>
        <time>2013-10-24T15:18:17Z</time>
      </trkpt>
      <trkpt lat="43.01272" lon="-0.06071">
        <ele>524.54</ele>
        <time>2013-10-24T15:18:20Z</time>
      </trkpt>
      <trkpt lat="43.01283" lon="-0.061">
        <ele>519.25</ele>
        <time>2013-10-24T15:18:24Z</time>
      </trkpt>
      <trkpt lat="43.01292" lon="-0.06117">
        <ele>516.37</ele>
        <time>2013-10-24T15:18:28Z</time>
      </trkpt>
      <trkpt lat="43.01295" lon="-0.06119">
        <ele>516.37</ele>
        <time>2013-10-24T15:18:29Z</time>
      </trkpt>
      <trkpt lat="43.013" lon="-0.06127">
        <ele>516.37</ele>
        <time>2013-10-24T15:18:32Z</time>
      </trkpt>
      <trkpt lat="43.01306" lon="-0.06135">
        <ele>517.81</ele>
        <time>2013-10-24T15:18:42Z</time>
      </trkpt>
      <trkpt lat="43.01305" lon="-0.06141">
        <ele>518.77</ele>
        <time>2013-10-24T15:18:47Z</time>
      </trkpt>
      <trkpt lat="43.01304" lon="-0.06164">
        <ele>516.85</ele>
        <time>2013-10-24T15:18:55Z</time>
      </trkpt>
      <trkpt lat="43.01314" lon="-0.06173">
        <ele>513.48</ele>
        <time>2013-10-24T15:18:59Z</time>
      </trkpt>
      <trkpt lat="43.01314" lon="-0.06179">
        <ele>512.52</ele>
        <time>2013-10-24T15:19:01Z</time>
      </trkpt>
      <trkpt lat="43.01314" lon="-0.06202">
        <ele>508.19</ele>
        <time>2013-10-24T15:19:05Z</time>
      </trkpt>
      <trkpt lat="43.01311" lon="-0.06244">
        <ele>503.87</ele>
        <time>2013-10-24T15:19:12Z</time>
      </trkpt>
      <trkpt lat="43.01311" lon="-0.06255">
        <ele>500.98</ele>
        <time>2013-10-24T15:19:15Z</time>
      </trkpt>
      <trkpt lat="43.01314" lon="-0.06267">
        <ele>497.62</ele>
        <time>2013-10-24T15:19:19Z</time>
      </trkpt>
      <trkpt lat="43.01314" lon="-0.06269">
        <ele>495.7</ele>
        <time>2013-10-24T15:19:21Z</time>
      </trkpt>
      <trkpt lat="43.01312" lon="-0.06288">
        <ele>490.89</ele>
        <time>2013-10-24T15:19:25Z</time>
      </trkpt>
      <trkpt lat="43.01311" lon="-0.06295">
        <ele>489.45</ele>
        <time>2013-10-24T15:19:26Z</time>
      </trkpt>
      <trkpt lat="43.01314" lon="-0.06334">
        <ele>483.68</ele>
        <time>2013-10-24T15:19:32Z</time>
      </trkpt>
      <trkpt lat="43.01322" lon="-0.06337">
        <ele>483.2</ele>
        <time>2013-10-24T15:19:34Z</time>
      </trkpt>
      <trkpt lat="43.0133" lon="-0.06339">
        <ele>482.24</ele>
        <time>2013-10-24T15:19:36Z</time>
      </trkpt>
      <trkpt lat="43.01336" lon="-0.06362">
        <ele>479.35</ele>
        <time>2013-10-24T15:19:40Z</time>
      </trkpt>
      <trkpt lat="43.01347" lon="-0.06396">
        <ele>475.03</ele>
        <time>2013-10-24T15:19:44Z</time>
      </trkpt>
      <trkpt lat="43.01356" lon="-0.06438">
        <ele>471.66</ele>
        <time>2013-10-24T15:19:48Z</time>
      </trkpt>
      <trkpt lat="43.01359" lon="-0.0649">
        <ele>467.34</ele>
        <time>2013-10-24T15:19:52Z</time>
      </trkpt>
      <trkpt lat="43.01363" lon="-0.06547">
        <ele>461.57</ele>
        <time>2013-10-24T15:19:56Z</time>
      </trkpt>
      <trkpt lat="43.01363" lon="-0.06577">
        <ele>458.69</ele>
        <time>2013-10-24T15:19:58Z</time>
      </trkpt>
      <trkpt lat="43.01362" lon="-0.06619">
        <ele>456.28</ele>
        <time>2013-10-24T15:20:01Z</time>
      </trkpt>
      <trkpt lat="43.01351" lon="-0.06666">
        <ele>453.4</ele>
        <time>2013-10-24T15:20:08Z</time>
      </trkpt>
      <trkpt lat="43.01352" lon="-0.06667">
        <ele>453.4</ele>
        <time>2013-10-24T15:20:31Z</time>
      </trkpt>
      <trkpt lat="43.01352" lon="-0.06667">
        <ele>459.65</ele>
        <time>2013-10-24T15:20:45Z</time>
      </trkpt>
      <trkpt lat="43.01352" lon="-0.06667">
        <ele>453.88</ele>
        <time>2013-10-24T15:20:46Z</time>
      </trkpt>
      <trkpt lat="43.01352" lon="-0.06668">
        <ele>453.4</ele>
        <time>2013-10-24T15:21:12Z</time>
      </trkpt>
      <trkpt lat="43.01351" lon="-0.06668">
        <ele>453.4</ele>
        <time>2013-10-24T15:21:42Z</time>
      </trkpt>
      <trkpt lat="43.01351" lon="-0.06691">
        <ele>452.92</ele>
        <time>2013-10-24T15:21:51Z</time>
      </trkpt>
      <trkpt lat="43.0135" lon="-0.06695">
        <ele>451.96</ele>
        <time>2013-10-24T15:21:52Z</time>
      </trkpt>
      <trkpt lat="43.01353" lon="-0.06749">
        <ele>449.55</ele>
        <time>2013-10-24T15:22:00Z</time>
      </trkpt>
      <trkpt lat="43.01335" lon="-0.0678">
        <ele>447.15</ele>
        <time>2013-10-24T15:22:05Z</time>
      </trkpt>
      <trkpt lat="43.01329" lon="-0.06784">
        <ele>446.67</ele>
        <time>2013-10-24T15:22:06Z</time>
      </trkpt>
      <trkpt lat="43.01322" lon="-0.0681">
        <ele>444.75</ele>
        <time>2013-10-24T15:22:09Z</time>
      </trkpt>
      <trkpt lat="43.01323" lon="-0.06853">
        <ele>443.31</ele>
        <time>2013-10-24T15:22:13Z</time>
      </trkpt>
      <trkpt lat="43.01346" lon="-0.06964">
        <ele>439.94</ele>
        <time>2013-10-24T15:22:24Z</time>
      </trkpt>
      <trkpt lat="43.01364" lon="-0.07036">
        <ele>435.13</ele>
        <time>2013-10-24T15:22:31Z</time>
      </trkpt>
      <trkpt lat="43.01366" lon="-0.07047">
        <ele>437.06</ele>
        <time>2013-10-24T15:22:32Z</time>
      </trkpt>
      <trkpt lat="43.01368" lon="-0.07069">
        <ele>436.58</ele>
        <time>2013-10-24T15:22:34Z</time>
      </trkpt>
      <trkpt lat="43.01369" lon="-0.07079">
        <ele>429.85</ele>
        <time>2013-10-24T15:22:35Z</time>
      </trkpt>
      <trkpt lat="43.01369" lon="-0.07089">
        <ele>437.54</ele>
        <time>2013-10-24T15:22:36Z</time>
      </trkpt>
      <trkpt lat="43.0137" lon="-0.07099">
        <ele>436.58</ele>
        <time>2013-10-24T15:22:37Z</time>
      </trkpt>
      <trkpt lat="43.01387" lon="-0.07165">
        <ele>436.58</ele>
        <time>2013-10-24T15:22:45Z</time>
      </trkpt>
      <trkpt lat="43.01404" lon="-0.07193">
        <ele>434.65</ele>
        <time>2013-10-24T15:22:49Z</time>
      </trkpt>
      <trkpt lat="43.01412" lon="-0.07251">
        <ele>433.21</ele>
        <time>2013-10-24T15:22:55Z</time>
      </trkpt>
      <trkpt lat="43.0141" lon="-0.07259">
        <ele>433.69</ele>
        <time>2013-10-24T15:22:56Z</time>
      </trkpt>
      <trkpt lat="43.01401" lon="-0.07306">
        <ele>435.61</ele>
        <time>2013-10-24T15:23:03Z</time>
      </trkpt>
      <trkpt lat="43.01386" lon="-0.0735">
        <ele>437.54</ele>
        <time>2013-10-24T15:23:13Z</time>
      </trkpt>
      <trkpt lat="43.0137" lon="-0.0738">
        <ele>440.42</ele>
        <time>2013-10-24T15:23:24Z</time>
      </trkpt>
      <trkpt lat="43.01368" lon="-0.07385">
        <ele>441.38</ele>
        <time>2013-10-24T15:23:26Z</time>
      </trkpt>
      <trkpt lat="43.01356" lon="-0.07405">
        <ele>444.27</ele>
        <time>2013-10-24T15:23:36Z</time>
      </trkpt>
      <trkpt lat="43.01356" lon="-0.07408">
        <ele>444.27</ele>
        <time>2013-10-24T15:23:37Z</time>
      </trkpt>
      <trkpt lat="43.01356" lon="-0.07428">
        <ele>445.71</ele>
        <time>2013-10-24T15:23:44Z</time>
      </trkpt>
      <trkpt lat="43.01358" lon="-0.07477">
        <ele>447.15</ele>
        <time>2013-10-24T15:23:58Z</time>
      </trkpt>
      <trkpt lat="43.01361" lon="-0.07528">
        <ele>447.63</ele>
        <time>2013-10-24T15:24:11Z</time>
      </trkpt>
      <trkpt lat="43.01369" lon="-0.07563">
        <ele>449.07</ele>
        <time>2013-10-24T15:24:21Z</time>
      </trkpt>
      <trkpt lat="43.01384" lon="-0.07576">
        <ele>452.92</ele>
        <time>2013-10-24T15:24:31Z</time>
      </trkpt>
      <trkpt lat="43.01402" lon="-0.07586">
        <ele>456.28</ele>
        <time>2013-10-24T15:24:43Z</time>
      </trkpt>
      <trkpt lat="43.01422" lon="-0.07593">
        <ele>459.17</ele>
        <time>2013-10-24T15:24:55Z</time>
      </trkpt>
      <trkpt lat="43.01445" lon="-0.07599">
        <ele>462.05</ele>
        <time>2013-10-24T15:25:08Z</time>
      </trkpt>
      <trkpt lat="43.01452" lon="-0.07597">
        <ele>463.49</ele>
        <time>2013-10-24T15:25:12Z</time>
      </trkpt>
      <trkpt lat="43.01469" lon="-0.07588">
        <ele>466.86</ele>
        <time>2013-10-24T15:25:24Z</time>
      </trkpt>
      <trkpt lat="43.01484" lon="-0.07581">
        <ele>470.22</ele>
        <time>2013-10-24T15:25:34Z</time>
      </trkpt>
      <trkpt lat="43.01502" lon="-0.07584">
        <ele>473.59</ele>
        <time>2013-10-24T15:25:46Z</time>
      </trkpt>
      <trkpt lat="43.01503" lon="-0.07583">
        <ele>473.11</ele>
        <time>2013-10-24T15:25:47Z</time>
      </trkpt>
      <trkpt lat="43.01508" lon="-0.07583">
        <ele>474.07</ele>
        <time>2013-10-24T15:25:52Z</time>
      </trkpt>
      <trkpt lat="43.01512" lon="-0.07586">
        <ele>474.55</ele>
        <time>2013-10-24T15:25:57Z</time>
      </trkpt>
      <trkpt lat="43.01524" lon="-0.07579">
        <ele>473.59</ele>
        <time>2013-10-24T15:26:03Z</time>
      </trkpt>
      <trkpt lat="43.01538" lon="-0.07565">
        <ele>471.66</ele>
        <time>2013-10-24T15:26:11Z</time>
      </trkpt>
      <trkpt lat="43.01538" lon="-0.07559">
        <ele>471.18</ele>
        <time>2013-10-24T15:26:12Z</time>
      </trkpt>
      <trkpt lat="43.01542" lon="-0.07528">
        <ele>469.74</ele>
        <time>2013-10-24T15:26:18Z</time>
      </trkpt>
      <trkpt lat="43.01563" lon="-0.07473">
        <ele>467.34</ele>
        <time>2013-10-24T15:26:29Z</time>
      </trkpt>
      <trkpt lat="43.01566" lon="-0.0747">
        <ele>467.82</ele>
        <time>2013-10-24T15:26:30Z</time>
      </trkpt>
      <trkpt lat="43.01599" lon="-0.07479">
        <ele>465.42</ele>
        <time>2013-10-24T15:26:37Z</time>
      </trkpt>
      <trkpt lat="43.01629" lon="-0.07472">
        <ele>464.45</ele>
        <time>2013-10-24T15:26:43Z</time>
      </trkpt>
      <trkpt lat="43.01642" lon="-0.07461">
        <ele>464.93</ele>
        <time>2013-10-24T15:26:46Z</time>
      </trkpt>
      <trkpt lat="43.01676" lon="-0.07445">
        <ele>463.01</ele>
        <time>2013-10-24T15:26:52Z</time>
      </trkpt>
      <trkpt lat="43.01702" lon="-0.07435">
        <ele>466.38</ele>
        <time>2013-10-24T15:26:57Z</time>
      </trkpt>
      <trkpt lat="43.01705" lon="-0.07434">
        <ele>466.38</ele>
        <time>2013-10-24T15:26:58Z</time>
      </trkpt>
      <trkpt lat="43.01732" lon="-0.07433">
        <ele>469.74</ele>
        <time>2013-10-24T15:27:08Z</time>
      </trkpt>
      <trkpt lat="43.01755" lon="-0.0743">
        <ele>472.63</ele>
        <time>2013-10-24T15:27:17Z</time>
      </trkpt>
      <trkpt lat="43.01782" lon="-0.07423">
        <ele>475.99</ele>
        <time>2013-10-24T15:27:27Z</time>
      </trkpt>
      <trkpt lat="43.0179" lon="-0.07421">
        <ele>475.99</ele>
        <time>2013-10-24T15:27:30Z</time>
      </trkpt>
      <trkpt lat="43.01805" lon="-0.07418">
        <ele>477.91</ele>
        <time>2013-10-24T15:27:36Z</time>
      </trkpt>
      <trkpt lat="43.0183" lon="-0.07408">
        <ele>480.32</ele>
        <time>2013-10-24T15:27:46Z</time>
      </trkpt>
      <trkpt lat="43.01839" lon="-0.07405">
        <ele>481.76</ele>
        <time>2013-10-24T15:27:50Z</time>
      </trkpt>
      <trkpt lat="43.01874" lon="-0.07408">
        <ele>483.68</ele>
        <time>2013-10-24T15:28:03Z</time>
      </trkpt>
      <trkpt lat="43.0189" lon="-0.0742">
        <ele>487.05</ele>
        <time>2013-10-24T15:28:13Z</time>
      </trkpt>
      <trkpt lat="43.01906" lon="-0.07443">
        <ele>489.45</ele>
        <time>2013-10-24T15:28:26Z</time>
      </trkpt>
      <trkpt lat="43.0192" lon="-0.07467">
        <ele>492.33</ele>
        <time>2013-10-24T15:28:37Z</time>
      </trkpt>
      <trkpt lat="43.01923" lon="-0.07473">
        <ele>493.29</ele>
        <time>2013-10-24T15:28:41Z</time>
      </trkpt>
      <trkpt lat="43.01948" lon="-0.07496">
        <ele>496.66</ele>
        <time>2013-10-24T15:28:56Z</time>
      </trkpt>
      <trkpt lat="43.01969" lon="-0.07514">
        <ele>500.02</ele>
        <time>2013-10-24T15:29:09Z</time>
      </trkpt>
      <trkpt lat="43.01974" lon="-0.07519">
        <ele>500.98</ele>
        <time>2013-10-24T15:29:13Z</time>
      </trkpt>
      <trkpt lat="43.01992" lon="-0.07534">
        <ele>504.35</ele>
        <time>2013-10-24T15:29:26Z</time>
      </trkpt>
      <trkpt lat="43.01997" lon="-0.07535">
        <ele>504.83</ele>
        <time>2013-10-24T15:29:29Z</time>
      </trkpt>
      <trkpt lat="43.01995" lon="-0.07538">
        <ele>505.31</ele>
        <time>2013-10-24T15:29:34Z</time>
      </trkpt>
      <trkpt lat="43.01976" lon="-0.07534">
        <ele>504.83</ele>
        <time>2013-10-24T15:29:42Z</time>
      </trkpt>
      <trkpt lat="43.01966" lon="-0.0753">
        <ele>505.31</ele>
        <time>2013-10-24T15:29:48Z</time>
      </trkpt>
      <trkpt lat="43.01942" lon="-0.07508">
        <ele>505.79</ele>
        <time>2013-10-24T15:30:01Z</time>
      </trkpt>
      <trkpt lat="43.01924" lon="-0.07492">
        <ele>507.23</ele>
        <time>2013-10-24T15:30:11Z</time>
      </trkpt>
      <trkpt lat="43.01913" lon="-0.07483">
        <ele>509.16</ele>
        <time>2013-10-24T15:30:21Z</time>
      </trkpt>
      <trkpt lat="43.01903" lon="-0.07472">
        <ele>510.6</ele>
        <time>2013-10-24T15:30:28Z</time>
      </trkpt>
      <trkpt lat="43.01894" lon="-0.07464">
        <ele>513</ele>
        <time>2013-10-24T15:30:38Z</time>
      </trkpt>
      <trkpt lat="43.01889" lon="-0.07461">
        <ele>513.48</ele>
        <time>2013-10-24T15:30:42Z</time>
      </trkpt>
      <trkpt lat="43.01862" lon="-0.07463">
        <ele>512.52</ele>
        <time>2013-10-24T15:30:55Z</time>
      </trkpt>
      <trkpt lat="43.01839" lon="-0.07474">
        <ele>513.48</ele>
        <time>2013-10-24T15:31:06Z</time>
      </trkpt>
      <trkpt lat="43.01825" lon="-0.07472">
        <ele>515.4</ele>
        <time>2013-10-24T15:31:13Z</time>
      </trkpt>
      <trkpt lat="43.01818" lon="-0.0748">
        <ele>516.37</ele>
        <time>2013-10-24T15:31:19Z</time>
      </trkpt>
      <trkpt lat="43.01802" lon="-0.07494">
        <ele>516.85</ele>
        <time>2013-10-24T15:31:28Z</time>
      </trkpt>
      <trkpt lat="43.0179" lon="-0.07495">
        <ele>518.77</ele>
        <time>2013-10-24T15:31:39Z</time>
      </trkpt>
      <trkpt lat="43.01788" lon="-0.07496">
        <ele>519.25</ele>
        <time>2013-10-24T15:31:45Z</time>
      </trkpt>
      <trkpt lat="43.01781" lon="-0.07498">
        <ele>519.73</ele>
        <time>2013-10-24T15:31:50Z</time>
      </trkpt>
      <trkpt lat="43.0176" lon="-0.07507">
        <ele>518.77</ele>
        <time>2013-10-24T15:32:01Z</time>
      </trkpt>
      <trkpt lat="43.01728" lon="-0.07534">
        <ele>517.33</ele>
        <time>2013-10-24T15:32:13Z</time>
      </trkpt>
      <trkpt lat="43.0172" lon="-0.07543">
        <ele>517.33</ele>
        <time>2013-10-24T15:32:16Z</time>
      </trkpt>
      <trkpt lat="43.01691" lon="-0.07564">
        <ele>519.25</ele>
        <time>2013-10-24T15:32:29Z</time>
      </trkpt>
      <trkpt lat="43.01683" lon="-0.0759">
        <ele>517.81</ele>
        <time>2013-10-24T15:32:36Z</time>
      </trkpt>
      <trkpt lat="43.01657" lon="-0.07627">
        <ele>517.33</ele>
        <time>2013-10-24T15:32:48Z</time>
      </trkpt>
      <trkpt lat="43.01653" lon="-0.07635">
        <ele>518.29</ele>
        <time>2013-10-24T15:32:51Z</time>
      </trkpt>
      <trkpt lat="43.01647" lon="-0.07642">
        <ele>519.73</ele>
        <time>2013-10-24T15:32:56Z</time>
      </trkpt>
      <trkpt lat="43.01652" lon="-0.07647">
        <ele>520.69</ele>
        <time>2013-10-24T15:33:07Z</time>
      </trkpt>
      <trkpt lat="43.01652" lon="-0.07648">
        <ele>520.69</ele>
        <time>2013-10-24T15:33:29Z</time>
      </trkpt>
      <trkpt lat="43.01651" lon="-0.07649">
        <ele>520.21</ele>
        <time>2013-10-24T15:33:49Z</time>
      </trkpt>
      <trkpt lat="43.0165" lon="-0.07649">
        <ele>520.69</ele>
        <time>2013-10-24T15:34:03Z</time>
      </trkpt>
      <trkpt lat="43.01651" lon="-0.07649">
        <ele>520.69</ele>
        <time>2013-10-24T15:34:05Z</time>
      </trkpt>
      <trkpt lat="43.01653" lon="-0.0765">
        <ele>521.65</ele>
        <time>2013-10-24T15:34:16Z</time>
      </trkpt>
      <trkpt lat="43.01656" lon="-0.07651">
        <ele>521.65</ele>
        <time>2013-10-24T15:34:33Z</time>
      </trkpt>
      <trkpt lat="43.01658" lon="-0.0765">
        <ele>522.13</ele>
        <time>2013-10-24T15:34:39Z</time>
      </trkpt>
      <trkpt lat="43.0166" lon="-0.07648">
        <ele>522.13</ele>
        <time>2013-10-24T15:34:41Z</time>
      </trkpt>
      <trkpt lat="43.01668" lon="-0.07638">
        <ele>525.02</ele>
        <time>2013-10-24T15:34:50Z</time>
      </trkpt>
      <trkpt lat="43.01668" lon="-0.07654">
        <ele>528.38</ele>
        <time>2013-10-24T15:34:59Z</time>
      </trkpt>
      <trkpt lat="43.01666" lon="-0.0766">
        <ele>528.38</ele>
        <time>2013-10-24T15:35:02Z</time>
      </trkpt>
      <trkpt lat="43.01666" lon="-0.07665">
        <ele>529.34</ele>
        <time>2013-10-24T15:35:05Z</time>
      </trkpt>
      <trkpt lat="43.01659" lon="-0.07675">
        <ele>530.79</ele>
        <time>2013-10-24T15:35:12Z</time>
      </trkpt>
      <trkpt lat="43.01657" lon="-0.07681">
        <ele>531.75</ele>
        <time>2013-10-24T15:35:16Z</time>
      </trkpt>
      <trkpt lat="43.01653" lon="-0.07687">
        <ele>534.15</ele>
        <time>2013-10-24T15:35:23Z</time>
      </trkpt>
      <trkpt lat="43.01659" lon="-0.077">
        <ele>537.03</ele>
        <time>2013-10-24T15:35:33Z</time>
      </trkpt>
      <trkpt lat="43.01661" lon="-0.0772">
        <ele>538.48</ele>
        <time>2013-10-24T15:35:41Z</time>
      </trkpt>
      <trkpt lat="43.01661" lon="-0.07726">
        <ele>539.92</ele>
        <time>2013-10-24T15:35:44Z</time>
      </trkpt>
      <trkpt lat="43.01659" lon="-0.07735">
        <ele>540.88</ele>
        <time>2013-10-24T15:35:48Z</time>
      </trkpt>
      <trkpt lat="43.01655" lon="-0.07752">
        <ele>542.8</ele>
        <time>2013-10-24T15:35:55Z</time>
      </trkpt>
      <trkpt lat="43.01638" lon="-0.07779">
        <ele>544.72</ele>
        <time>2013-10-24T15:36:08Z</time>
      </trkpt>
      <trkpt lat="43.01616" lon="-0.07799">
        <ele>548.57</ele>
        <time>2013-10-24T15:36:21Z</time>
      </trkpt>
      <trkpt lat="43.01614" lon="-0.07801">
        <ele>549.05</ele>
        <time>2013-10-24T15:36:22Z</time>
      </trkpt>
      <trkpt lat="43.01603" lon="-0.07821">
        <ele>550.01</ele>
        <time>2013-10-24T15:36:30Z</time>
      </trkpt>
      <trkpt lat="43.01606" lon="-0.07879">
        <ele>552.41</ele>
        <time>2013-10-24T15:36:44Z</time>
      </trkpt>
      <trkpt lat="43.01604" lon="-0.07909">
        <ele>553.86</ele>
        <time>2013-10-24T15:36:51Z</time>
      </trkpt>
      <trkpt lat="43.01606" lon="-0.07924">
        <ele>555.78</ele>
        <time>2013-10-24T15:36:56Z</time>
      </trkpt>
      <trkpt lat="43.01607" lon="-0.07927">
        <ele>556.26</ele>
        <time>2013-10-24T15:36:57Z</time>
      </trkpt>
      <trkpt lat="43.01616" lon="-0.0795">
        <ele>559.62</ele>
        <time>2013-10-24T15:37:06Z</time>
      </trkpt>
      <trkpt lat="43.01622" lon="-0.0796">
        <ele>562.03</ele>
        <time>2013-10-24T15:37:11Z</time>
      </trkpt>
      <trkpt lat="43.01636" lon="-0.08">
        <ele>563.47</ele>
        <time>2013-10-24T15:37:23Z</time>
      </trkpt>
      <trkpt lat="43.01638" lon="-0.08004">
        <ele>564.43</ele>
        <time>2013-10-24T15:37:24Z</time>
      </trkpt>
      <trkpt lat="43.01667" lon="-0.08063">
        <ele>565.39</ele>
        <time>2013-10-24T15:37:38Z</time>
      </trkpt>
      <trkpt lat="43.01689" lon="-0.08083">
        <ele>568.76</ele>
        <time>2013-10-24T15:37:47Z</time>
      </trkpt>
      <trkpt lat="43.01708" lon="-0.08099">
        <ele>569.24</ele>
        <time>2013-10-24T15:37:54Z</time>
      </trkpt>
      <trkpt lat="43.01722" lon="-0.08074">
        <ele>569.72</ele>
        <time>2013-10-24T15:38:02Z</time>
      </trkpt>
      <trkpt lat="43.01727" lon="-0.08058">
        <ele>570.2</ele>
        <time>2013-10-24T15:38:05Z</time>
      </trkpt>
      <trkpt lat="43.01735" lon="-0.08041">
        <ele>571.16</ele>
        <time>2013-10-24T15:38:09Z</time>
      </trkpt>
      <trkpt lat="43.0175" lon="-0.08027">
        <ele>573.08</ele>
        <time>2013-10-24T15:38:16Z</time>
      </trkpt>
      <trkpt lat="43.01765" lon="-0.07989">
        <ele>574.04</ele>
        <time>2013-10-24T15:38:27Z</time>
      </trkpt>
      <trkpt lat="43.01759" lon="-0.07988">
        <ele>574.53</ele>
        <time>2013-10-24T15:38:31Z</time>
      </trkpt>
      <trkpt lat="43.01749" lon="-0.07999">
        <ele>576.93</ele>
        <time>2013-10-24T15:38:38Z</time>
      </trkpt>
      <trkpt lat="43.01742" lon="-0.08007">
        <ele>576.93</ele>
        <time>2013-10-24T15:38:42Z</time>
      </trkpt>
      <trkpt lat="43.01729" lon="-0.08011">
        <ele>577.41</ele>
        <time>2013-10-24T15:38:48Z</time>
      </trkpt>
      <trkpt lat="43.0173" lon="-0.08005">
        <ele>580.29</ele>
        <time>2013-10-24T15:38:53Z</time>
      </trkpt>
      <trkpt lat="43.0174" lon="-0.0798">
        <ele>581.25</ele>
        <time>2013-10-24T15:39:03Z</time>
      </trkpt>
      <trkpt lat="43.01752" lon="-0.07933">
        <ele>582.22</ele>
        <time>2013-10-24T15:39:16Z</time>
      </trkpt>
      <trkpt lat="43.01755" lon="-0.0792">
        <ele>582.22</ele>
        <time>2013-10-24T15:39:19Z</time>
      </trkpt>
      <trkpt lat="43.01766" lon="-0.07902">
        <ele>583.66</ele>
        <time>2013-10-24T15:39:26Z</time>
      </trkpt>
      <trkpt lat="43.01767" lon="-0.07892">
        <ele>584.14</ele>
        <time>2013-10-24T15:39:38Z</time>
      </trkpt>
      <trkpt lat="43.01768" lon="-0.07892">
        <ele>583.66</ele>
        <time>2013-10-24T15:39:56Z</time>
      </trkpt>
      <trkpt lat="43.01769" lon="-0.07892">
        <ele>583.18</ele>
        <time>2013-10-24T15:40:38Z</time>
      </trkpt>
      <trkpt lat="43.01768" lon="-0.07891">
        <ele>582.7</ele>
        <time>2013-10-24T15:41:19Z</time>
      </trkpt>
      <trkpt lat="43.01768" lon="-0.07891">
        <ele>583.18</ele>
        <time>2013-10-24T15:42:02Z</time>
      </trkpt>
      <trkpt lat="43.01767" lon="-0.07892">
        <ele>583.66</ele>
        <time>2013-10-24T15:42:45Z</time>
      </trkpt>
      <trkpt lat="43.01768" lon="-0.07892">
        <ele>583.66</ele>
        <time>2013-10-24T15:43:29Z</time>
      </trkpt>
      <trkpt lat="43.01768" lon="-0.07893">
        <ele>583.66</ele>
        <time>2013-10-24T15:44:06Z</time>
      </trkpt>
      <trkpt lat="43.01768" lon="-0.07893">
        <ele>584.14</ele>
        <time>2013-10-24T15:44:47Z</time>
      </trkpt>
      <trkpt lat="43.01768" lon="-0.07893">
        <ele>584.14</ele>
        <time>2013-10-24T15:45:27Z</time>
      </trkpt>
      <trkpt lat="43.01767" lon="-0.07893">
        <ele>584.14</ele>
        <time>2013-10-24T15:46:06Z</time>
      </trkpt>
      <trkpt lat="43.01768" lon="-0.07892">
        <ele>584.62</ele>
        <time>2013-10-24T15:46:43Z</time>
      </trkpt>
      <trkpt lat="43.01768" lon="-0.07893">
        <ele>584.14</ele>
        <time>2013-10-24T15:47:18Z</time>
      </trkpt>
      <trkpt lat="43.01768" lon="-0.07892">
        <ele>585.1</ele>
        <time>2013-10-24T15:47:48Z</time>
      </trkpt>
      <trkpt lat="43.01768" lon="-0.07893">
        <ele>585.1</ele>
        <time>2013-10-24T15:47:59Z</time>
      </trkpt>
      <trkpt lat="43.01768" lon="-0.07893">
        <ele>585.1</ele>
        <time>2013-10-24T15:48:26Z</time>
      </trkpt>
      <trkpt lat="43.01768" lon="-0.07893">
        <ele>584.62</ele>
        <time>2013-10-24T15:48:56Z</time>
      </trkpt>
      <trkpt lat="43.01768" lon="-0.07893">
        <ele>584.62</ele>
        <time>2013-10-24T15:49:20Z</time>
      </trkpt>
      <trkpt lat="43.01767" lon="-0.07892">
        <ele>584.62</ele>
        <time>2013-10-24T15:49:54Z</time>
      </trkpt>
      <trkpt lat="43.01767" lon="-0.07892">
        <ele>584.62</ele>
        <time>2013-10-24T15:49:56Z</time>
      </trkpt>
      <trkpt lat="43.01772" lon="-0.07888">
        <ele>583.66</ele>
        <time>2013-10-24T15:50:02Z</time>
      </trkpt>
      <trkpt lat="43.01788" lon="-0.07876">
        <ele>578.37</ele>
        <time>2013-10-24T15:50:07Z</time>
      </trkpt>
      <trkpt lat="43.01791" lon="-0.07874">
        <ele>577.41</ele>
        <time>2013-10-24T15:50:08Z</time>
      </trkpt>
      <trkpt lat="43.01799" lon="-0.07854">
        <ele>572.12</ele>
        <time>2013-10-24T15:50:13Z</time>
      </trkpt>
      <trkpt lat="43.01807" lon="-0.07837">
        <ele>571.64</ele>
        <time>2013-10-24T15:50:15Z</time>
      </trkpt>
      <trkpt lat="43.0181" lon="-0.0783">
        <ele>571.64</ele>
        <time>2013-10-24T15:50:16Z</time>
      </trkpt>
      <trkpt lat="43.01814" lon="-0.07809">
        <ele>570.2</ele>
        <time>2013-10-24T15:50:19Z</time>
      </trkpt>
      <trkpt lat="43.01828" lon="-0.07805">
        <ele>569.72</ele>
        <time>2013-10-24T15:50:24Z</time>
      </trkpt>
      <trkpt lat="43.0183" lon="-0.07809">
        <ele>568.76</ele>
        <time>2013-10-24T15:50:25Z</time>
      </trkpt>
      <trkpt lat="43.01836" lon="-0.07821">
        <ele>567.8</ele>
        <time>2013-10-24T15:50:27Z</time>
      </trkpt>
      <trkpt lat="43.01839" lon="-0.07852">
        <ele>565.87</ele>
        <time>2013-10-24T15:50:31Z</time>
      </trkpt>
      <trkpt lat="43.01828" lon="-0.07878">
        <ele>565.39</ele>
        <time>2013-10-24T15:50:35Z</time>
      </trkpt>
      <trkpt lat="43.01825" lon="-0.07892">
        <ele>564.91</ele>
        <time>2013-10-24T15:50:37Z</time>
      </trkpt>
      <trkpt lat="43.01824" lon="-0.07932">
        <ele>562.03</ele>
        <time>2013-10-24T15:50:42Z</time>
      </trkpt>
      <trkpt lat="43.01833" lon="-0.07963">
        <ele>557.7</ele>
        <time>2013-10-24T15:50:46Z</time>
      </trkpt>
      <trkpt lat="43.01838" lon="-0.07976">
        <ele>555.3</ele>
        <time>2013-10-24T15:50:49Z</time>
      </trkpt>
      <trkpt lat="43.01836" lon="-0.07976">
        <ele>554.82</ele>
        <time>2013-10-24T15:50:50Z</time>
      </trkpt>
      <trkpt lat="43.01814" lon="-0.07995">
        <ele>549.05</ele>
        <time>2013-10-24T15:50:56Z</time>
      </trkpt>
      <trkpt lat="43.01822" lon="-0.08008">
        <ele>547.13</ele>
        <time>2013-10-24T15:50:58Z</time>
      </trkpt>
      <trkpt lat="43.01843" lon="-0.08042">
        <ele>542.8</ele>
        <time>2013-10-24T15:51:03Z</time>
      </trkpt>
      <trkpt lat="43.01854" lon="-0.08051">
        <ele>540.88</ele>
        <time>2013-10-24T15:51:06Z</time>
      </trkpt>
      <trkpt lat="43.01863" lon="-0.08047">
        <ele>537.99</ele>
        <time>2013-10-24T15:51:09Z</time>
      </trkpt>
      <trkpt lat="43.01863" lon="-0.08049">
        <ele>537.51</ele>
        <time>2013-10-24T15:51:10Z</time>
      </trkpt>
      <trkpt lat="43.01854" lon="-0.08063">
        <ele>535.59</ele>
        <time>2013-10-24T15:51:13Z</time>
      </trkpt>
      <trkpt lat="43.01828" lon="-0.08075">
        <ele>530.3</ele>
        <time>2013-10-24T15:51:18Z</time>
      </trkpt>
      <trkpt lat="43.01815" lon="-0.08084">
        <ele>526.94</ele>
        <time>2013-10-24T15:51:21Z</time>
      </trkpt>
      <trkpt lat="43.01809" lon="-0.08114">
        <ele>522.61</ele>
        <time>2013-10-24T15:51:25Z</time>
      </trkpt>
      <trkpt lat="43.01805" lon="-0.0812">
        <ele>521.65</ele>
        <time>2013-10-24T15:51:26Z</time>
      </trkpt>
      <trkpt lat="43.01797" lon="-0.0813">
        <ele>518.77</ele>
        <time>2013-10-24T15:51:28Z</time>
      </trkpt>
      <trkpt lat="43.01785" lon="-0.0815">
        <ele>512.52</ele>
        <time>2013-10-24T15:51:31Z</time>
      </trkpt>
      <trkpt lat="43.0178" lon="-0.08159">
        <ele>509.64</ele>
        <time>2013-10-24T15:51:32Z</time>
      </trkpt>
      <trkpt lat="43.01772" lon="-0.08188">
        <ele>504.83</ele>
        <time>2013-10-24T15:51:35Z</time>
      </trkpt>
      <trkpt lat="43.01771" lon="-0.08199">
        <ele>503.39</ele>
        <time>2013-10-24T15:51:36Z</time>
      </trkpt>
      <trkpt lat="43.0177" lon="-0.0823">
        <ele>499.54</ele>
        <time>2013-10-24T15:51:39Z</time>
      </trkpt>
      <trkpt lat="43.01761" lon="-0.0826">
        <ele>493.77</ele>
        <time>2013-10-24T15:51:43Z</time>
      </trkpt>
      <trkpt lat="43.01766" lon="-0.08263">
        <ele>488.49</ele>
        <time>2013-10-24T15:51:49Z</time>
      </trkpt>
      <trkpt lat="43.0177" lon="-0.08262">
        <ele>488.49</ele>
        <time>2013-10-24T15:51:50Z</time>
      </trkpt>
      <trkpt lat="43.0177" lon="-0.08271">
        <ele>484.64</ele>
        <time>2013-10-24T15:51:54Z</time>
      </trkpt>
      <trkpt lat="43.01765" lon="-0.08275">
        <ele>484.64</ele>
        <time>2013-10-24T15:51:55Z</time>
      </trkpt>
      <trkpt lat="43.01743" lon="-0.08297">
        <ele>482.72</ele>
        <time>2013-10-24T15:51:59Z</time>
      </trkpt>
      <trkpt lat="43.01723" lon="-0.0831">
        <ele>480.32</ele>
        <time>2013-10-24T15:52:02Z</time>
      </trkpt>
      <trkpt lat="43.01708" lon="-0.08311">
        <ele>479.84</ele>
        <time>2013-10-24T15:52:04Z</time>
      </trkpt>
      <trkpt lat="43.01668" lon="-0.08309">
        <ele>474.07</ele>
        <time>2013-10-24T15:52:09Z</time>
      </trkpt>
      <trkpt lat="43.0166" lon="-0.08309">
        <ele>473.59</ele>
        <time>2013-10-24T15:52:10Z</time>
      </trkpt>
      <trkpt lat="43.01637" lon="-0.08315">
        <ele>471.66</ele>
        <time>2013-10-24T15:52:13Z</time>
      </trkpt>
      <trkpt lat="43.01635" lon="-0.08317">
        <ele>471.66</ele>
        <time>2013-10-24T15:52:14Z</time>
      </trkpt>
      <trkpt lat="43.01618" lon="-0.08337">
        <ele>468.78</ele>
        <time>2013-10-24T15:52:18Z</time>
      </trkpt>
      <trkpt lat="43.01613" lon="-0.08342">
        <ele>467.34</ele>
        <time>2013-10-24T15:52:19Z</time>
      </trkpt>
      <trkpt lat="43.01586" lon="-0.08352">
        <ele>462.53</ele>
        <time>2013-10-24T15:52:23Z</time>
      </trkpt>
      <trkpt lat="43.01579" lon="-0.08357">
        <ele>461.09</ele>
        <time>2013-10-24T15:52:24Z</time>
      </trkpt>
      <trkpt lat="43.01564" lon="-0.08368">
        <ele>457.72</ele>
        <time>2013-10-24T15:52:26Z</time>
      </trkpt>
      <trkpt lat="43.01534" lon="-0.08386">
        <ele>456.76</ele>
        <time>2013-10-24T15:52:31Z</time>
      </trkpt>
      <trkpt lat="43.01535" lon="-0.0839">
        <ele>453.88</ele>
        <time>2013-10-24T15:52:35Z</time>
      </trkpt>
      <trkpt lat="43.01534" lon="-0.08392">
        <ele>453.88</ele>
        <time>2013-10-24T15:52:58Z</time>
      </trkpt>
      <trkpt lat="43.01535" lon="-0.08394">
        <ele>453.4</ele>
        <time>2013-10-24T15:53:23Z</time>
      </trkpt>
      <trkpt lat="43.01535" lon="-0.08394">
        <ele>452.92</ele>
        <time>2013-10-24T15:53:50Z</time>
      </trkpt>
      <trkpt lat="43.01535" lon="-0.08394">
        <ele>452.92</ele>
        <time>2013-10-24T15:54:11Z</time>
      </trkpt>
      <trkpt lat="43.01535" lon="-0.08394">
        <ele>452.44</ele>
        <time>2013-10-24T15:54:21Z</time>
      </trkpt>
      <trkpt lat="43.01551" lon="-0.08394">
        <ele>449.55</ele>
        <time>2013-10-24T15:54:27Z</time>
      </trkpt>
      <trkpt lat="43.01595" lon="-0.08396">
        <ele>443.79</ele>
        <time>2013-10-24T15:54:34Z</time>
      </trkpt>
      <trkpt lat="43.01614" lon="-0.08399">
        <ele>441.86</ele>
        <time>2013-10-24T15:54:37Z</time>
      </trkpt>
      <trkpt lat="43.0163" lon="-0.0839">
        <ele>438.5</ele>
        <time>2013-10-24T15:54:41Z</time>
      </trkpt>
      <trkpt lat="43.01652" lon="-0.08387">
        <ele>433.69</ele>
        <time>2013-10-24T15:54:45Z</time>
      </trkpt>
      <trkpt lat="43.01658" lon="-0.08392">
        <ele>432.25</ele>
        <time>2013-10-24T15:54:46Z</time>
      </trkpt>
      <trkpt lat="43.01675" lon="-0.0842">
        <ele>426</ele>
        <time>2013-10-24T15:54:52Z</time>
      </trkpt>
      <trkpt lat="43.01664" lon="-0.08433">
        <ele>420.71</ele>
        <time>2013-10-24T15:54:56Z</time>
      </trkpt>
      <trkpt lat="43.01663" lon="-0.08437">
        <ele>420.71</ele>
        <time>2013-10-24T15:54:57Z</time>
      </trkpt>
      <trkpt lat="43.01671" lon="-0.08442">
        <ele>417.35</ele>
        <time>2013-10-24T15:55:00Z</time>
      </trkpt>
      <trkpt lat="43.01674" lon="-0.08443">
        <ele>416.87</ele>
        <time>2013-10-24T15:55:01Z</time>
      </trkpt>
      <trkpt lat="43.01687" lon="-0.08444">
        <ele>419.27</ele>
        <time>2013-10-24T15:55:06Z</time>
      </trkpt>
      <trkpt lat="43.017" lon="-0.08449">
        <ele>419.75</ele>
        <time>2013-10-24T15:55:17Z</time>
      </trkpt>
      <trkpt lat="43.017" lon="-0.08454">
        <ele>419.27</ele>
        <time>2013-10-24T15:55:42Z</time>
      </trkpt>
      <trkpt lat="43.01701" lon="-0.08456">
        <ele>418.79</ele>
        <time>2013-10-24T15:55:53Z</time>
      </trkpt>
      <trkpt lat="43.01714" lon="-0.08453">
        <ele>418.31</ele>
        <time>2013-10-24T15:55:57Z</time>
      </trkpt>
      <trkpt lat="43.01728" lon="-0.0845">
        <ele>419.75</ele>
        <time>2013-10-24T15:56:03Z</time>
      </trkpt>
      <trkpt lat="43.01745" lon="-0.08438">
        <ele>422.16</ele>
        <time>2013-10-24T15:56:09Z</time>
      </trkpt>
      <trkpt lat="43.01748" lon="-0.08436">
        <ele>422.64</ele>
        <time>2013-10-24T15:56:10Z</time>
      </trkpt>
      <trkpt lat="43.01765" lon="-0.08428">
        <ele>422.16</ele>
        <time>2013-10-24T15:56:16Z</time>
      </trkpt>
      <trkpt lat="43.01773" lon="-0.08415">
        <ele>421.19</ele>
        <time>2013-10-24T15:56:19Z</time>
      </trkpt>
      <trkpt lat="43.01782" lon="-0.08403">
        <ele>419.75</ele>
        <time>2013-10-24T15:56:21Z</time>
      </trkpt>
      <trkpt lat="43.01803" lon="-0.0839">
        <ele>416.87</ele>
        <time>2013-10-24T15:56:25Z</time>
      </trkpt>
      <trkpt lat="43.01826" lon="-0.08372">
        <ele>414.47</ele>
        <time>2013-10-24T15:56:29Z</time>
      </trkpt>
      <trkpt lat="43.01837" lon="-0.0837">
        <ele>417.35</ele>
        <time>2013-10-24T15:56:31Z</time>
      </trkpt>
      <trkpt lat="43.01846" lon="-0.08368">
        <ele>419.75</ele>
        <time>2013-10-24T15:56:34Z</time>
      </trkpt>
      <trkpt lat="43.01851" lon="-0.08368">
        <ele>419.75</ele>
        <time>2013-10-24T15:56:36Z</time>
      </trkpt>
      <trkpt lat="43.01861" lon="-0.08366">
        <ele>420.71</ele>
        <time>2013-10-24T15:56:39Z</time>
      </trkpt>
      <trkpt lat="43.01867" lon="-0.08364">
        <ele>418.79</ele>
        <time>2013-10-24T15:56:41Z</time>
      </trkpt>
      <trkpt lat="43.01883" lon="-0.0835">
        <ele>418.79</ele>
        <time>2013-10-24T15:56:45Z</time>
      </trkpt>
      <trkpt lat="43.01913" lon="-0.08344">
        <ele>417.35</ele>
        <time>2013-10-24T15:56:51Z</time>
      </trkpt>
      <trkpt lat="43.01925" lon="-0.0834">
        <ele>416.87</ele>
        <time>2013-10-24T15:56:53Z</time>
      </trkpt>
      <trkpt lat="43.01936" lon="-0.08328">
        <ele>415.91</ele>
        <time>2013-10-24T15:56:55Z</time>
      </trkpt>
      <trkpt lat="43.01944" lon="-0.08312">
        <ele>415.43</ele>
        <time>2013-10-24T15:56:57Z</time>
      </trkpt>
      <trkpt lat="43.01963" lon="-0.08301">
        <ele>417.35</ele>
        <time>2013-10-24T15:57:01Z</time>
      </trkpt>
      <trkpt lat="43.01978" lon="-0.08301">
        <ele>419.27</ele>
        <time>2013-10-24T15:57:05Z</time>
      </trkpt>
      <trkpt lat="43.01989" lon="-0.083">
        <ele>419.75</ele>
        <time>2013-10-24T15:57:08Z</time>
      </trkpt>
      <trkpt lat="43.02016" lon="-0.08288">
        <ele>417.83</ele>
        <time>2013-10-24T15:57:13Z</time>
      </trkpt>
      <trkpt lat="43.02029" lon="-0.08267">
        <ele>417.83</ele>
        <time>2013-10-24T15:57:17Z</time>
      </trkpt>
      <trkpt lat="43.02036" lon="-0.08258">
        <ele>413.98</ele>
        <time>2013-10-24T15:57:20Z</time>
      </trkpt>
      <trkpt lat="43.02057" lon="-0.08281">
        <ele>410.62</ele>
        <time>2013-10-24T15:57:25Z</time>
      </trkpt>
      <trkpt lat="43.02072" lon="-0.08284">
        <ele>408.7</ele>
        <time>2013-10-24T15:57:30Z</time>
      </trkpt>
      <trkpt lat="43.02082" lon="-0.08273">
        <ele>409.18</ele>
        <time>2013-10-24T15:57:34Z</time>
      </trkpt>
      <trkpt lat="43.0211" lon="-0.08246">
        <ele>409.66</ele>
        <time>2013-10-24T15:57:45Z</time>
      </trkpt>
      <trkpt lat="43.02117" lon="-0.08244">
        <ele>409.18</ele>
        <time>2013-10-24T15:57:47Z</time>
      </trkpt>
      <trkpt lat="43.02136" lon="-0.08246">
        <ele>412.06</ele>
        <time>2013-10-24T15:57:54Z</time>
      </trkpt>
      <trkpt lat="43.0216" lon="-0.08236">
        <ele>411.1</ele>
        <time>2013-10-24T15:58:02Z</time>
      </trkpt>
      <trkpt lat="43.02174" lon="-0.08227">
        <ele>411.1</ele>
        <time>2013-10-24T15:58:08Z</time>
      </trkpt>
      <trkpt lat="43.02204" lon="-0.08214">
        <ele>411.1</ele>
        <time>2013-10-24T15:58:17Z</time>
      </trkpt>
      <trkpt lat="43.0222" lon="-0.08212">
        <ele>412.06</ele>
        <time>2013-10-24T15:58:24Z</time>
      </trkpt>
      <trkpt lat="43.02223" lon="-0.08224">
        <ele>412.54</ele>
        <time>2013-10-24T15:58:29Z</time>
      </trkpt>
      <trkpt lat="43.02223" lon="-0.08244">
        <ele>412.54</ele>
        <time>2013-10-24T15:58:38Z</time>
      </trkpt>
      <trkpt lat="43.02222" lon="-0.08259">
        <ele>412.54</ele>
        <time>2013-10-24T15:58:45Z</time>
      </trkpt>
      <trkpt lat="43.02225" lon="-0.08268">
        <ele>412.54</ele>
        <time>2013-10-24T15:58:50Z</time>
      </trkpt>
      <trkpt lat="43.02226" lon="-0.08272">
        <ele>412.06</ele>
        <time>2013-10-24T15:58:52Z</time>
      </trkpt>
      <trkpt lat="43.02226" lon="-0.08309">
        <ele>412.06</ele>
        <time>2013-10-24T15:59:03Z</time>
      </trkpt>
      <trkpt lat="43.02225" lon="-0.08313">
        <ele>412.06</ele>
        <time>2013-10-24T15:59:04Z</time>
      </trkpt>
      <trkpt lat="43.02217" lon="-0.08342">
        <ele>411.1</ele>
        <time>2013-10-24T15:59:10Z</time>
      </trkpt>
      <trkpt lat="43.02208" lon="-0.08363">
        <ele>411.1</ele>
        <time>2013-10-24T15:59:14Z</time>
      </trkpt>
      <trkpt lat="43.022" lon="-0.08378">
        <ele>410.62</ele>
        <time>2013-10-24T15:59:17Z</time>
      </trkpt>
      <trkpt lat="43.0221" lon="-0.08438">
        <ele>409.18</ele>
        <time>2013-10-24T15:59:26Z</time>
      </trkpt>
      <trkpt lat="43.02215" lon="-0.08442">
        <ele>408.7</ele>
        <time>2013-10-24T15:59:27Z</time>
      </trkpt>
      <trkpt lat="43.02224" lon="-0.08452">
        <ele>408.7</ele>
        <time>2013-10-24T15:59:29Z</time>
      </trkpt>
      <trkpt lat="43.02238" lon="-0.08485">
        <ele>407.26</ele>
        <time>2013-10-24T15:59:34Z</time>
      </trkpt>
      <trkpt lat="43.02239" lon="-0.0852">
        <ele>407.26</ele>
        <time>2013-10-24T15:59:38Z</time>
      </trkpt>
      <trkpt lat="43.02214" lon="-0.08609">
        <ele>409.66</ele>
        <time>2013-10-24T15:59:52Z</time>
      </trkpt>
      <trkpt lat="43.02213" lon="-0.08615">
        <ele>409.66</ele>
        <time>2013-10-24T15:59:53Z</time>
      </trkpt>
      <trkpt lat="43.02193" lon="-0.0869">
        <ele>411.58</ele>
        <time>2013-10-24T16:00:06Z</time>
      </trkpt>
      <trkpt lat="43.02171" lon="-0.08775">
        <ele>412.06</ele>
        <time>2013-10-24T16:00:20Z</time>
      </trkpt>
      <trkpt lat="43.02147" lon="-0.08872">
        <ele>412.06</ele>
        <time>2013-10-24T16:00:35Z</time>
      </trkpt>
      <trkpt lat="43.02139" lon="-0.08913">
        <ele>412.06</ele>
        <time>2013-10-24T16:00:41Z</time>
      </trkpt>
      <trkpt lat="43.0211" lon="-0.09027">
        <ele>412.06</ele>
        <time>2013-10-24T16:00:59Z</time>
      </trkpt>
      <trkpt lat="43.02104" lon="-0.09051">
        <ele>412.54</ele>
        <time>2013-10-24T16:01:03Z</time>
      </trkpt>
      <trkpt lat="43.02082" lon="-0.09138">
        <ele>413.5</ele>
        <time>2013-10-24T16:01:18Z</time>
      </trkpt>
      <trkpt lat="43.02058" lon="-0.09239">
        <ele>413.5</ele>
        <time>2013-10-24T16:01:35Z</time>
      </trkpt>
      <trkpt lat="43.02031" lon="-0.09347">
        <ele>413.98</ele>
        <time>2013-10-24T16:01:53Z</time>
      </trkpt>
      <trkpt lat="43.02001" lon="-0.09442">
        <ele>413.98</ele>
        <time>2013-10-24T16:02:09Z</time>
      </trkpt>
      <trkpt lat="43.01981" lon="-0.09487">
        <ele>413.98</ele>
        <time>2013-10-24T16:02:17Z</time>
      </trkpt>
      <trkpt lat="43.01941" lon="-0.09554">
        <ele>414.95</ele>
        <time>2013-10-24T16:02:31Z</time>
      </trkpt>
      <trkpt lat="43.019" lon="-0.09598">
        <ele>414.95</ele>
        <time>2013-10-24T16:02:44Z</time>
      </trkpt>
      <trkpt lat="43.01889" lon="-0.09608">
        <ele>414.95</ele>
        <time>2013-10-24T16:02:47Z</time>
      </trkpt>
      <trkpt lat="43.01833" lon="-0.09649">
        <ele>415.43</ele>
        <time>2013-10-24T16:03:01Z</time>
      </trkpt>
      <trkpt lat="43.01825" lon="-0.09653">
        <ele>415.43</ele>
        <time>2013-10-24T16:03:03Z</time>
      </trkpt>
      <trkpt lat="43.0175" lon="-0.09683">
        <ele>416.39</ele>
        <time>2013-10-24T16:03:20Z</time>
      </trkpt>
      <trkpt lat="43.01732" lon="-0.09689">
        <ele>416.39</ele>
        <time>2013-10-24T16:03:24Z</time>
      </trkpt>
      <trkpt lat="43.01715" lon="-0.09693">
        <ele>416.39</ele>
        <time>2013-10-24T16:03:28Z</time>
      </trkpt>
      <trkpt lat="43.01676" lon="-0.09702">
        <ele>416.39</ele>
        <time>2013-10-24T16:03:36Z</time>
      </trkpt>
      <trkpt lat="43.01661" lon="-0.09706">
        <ele>416.39</ele>
        <time>2013-10-24T16:03:39Z</time>
      </trkpt>
      <trkpt lat="43.01633" lon="-0.09715">
        <ele>417.35</ele>
        <time>2013-10-24T16:03:45Z</time>
      </trkpt>
      <trkpt lat="43.01589" lon="-0.09726">
        <ele>417.83</ele>
        <time>2013-10-24T16:03:55Z</time>
      </trkpt>
      <trkpt lat="43.01534" lon="-0.0974">
        <ele>417.83</ele>
        <time>2013-10-24T16:04:07Z</time>
      </trkpt>
      <trkpt lat="43.01456" lon="-0.09762">
        <ele>418.31</ele>
        <time>2013-10-24T16:04:24Z</time>
      </trkpt>
      <trkpt lat="43.01429" lon="-0.09767">
        <ele>419.27</ele>
        <time>2013-10-24T16:04:30Z</time>
      </trkpt>
      <trkpt lat="43.01412" lon="-0.0977">
        <ele>419.27</ele>
        <time>2013-10-24T16:04:34Z</time>
      </trkpt>
      <trkpt lat="43.01401" lon="-0.09774">
        <ele>419.75</ele>
        <time>2013-10-24T16:04:37Z</time>
      </trkpt>
      <trkpt lat="43.01384" lon="-0.09793">
        <ele>420.23</ele>
        <time>2013-10-24T16:04:44Z</time>
      </trkpt>
      <trkpt lat="43.01341" lon="-0.0983">
        <ele>422.16</ele>
        <time>2013-10-24T16:04:58Z</time>
      </trkpt>
      <trkpt lat="43.01324" lon="-0.09832">
        <ele>421.68</ele>
        <time>2013-10-24T16:05:02Z</time>
      </trkpt>
      <trkpt lat="43.01288" lon="-0.0981">
        <ele>422.16</ele>
        <time>2013-10-24T16:05:13Z</time>
      </trkpt>
      <trkpt lat="43.0126" lon="-0.0981">
        <ele>422.16</ele>
        <time>2013-10-24T16:05:20Z</time>
      </trkpt>
      <trkpt lat="43.01205" lon="-0.09808">
        <ele>423.6</ele>
        <time>2013-10-24T16:05:35Z</time>
      </trkpt>
      <trkpt lat="43.01171" lon="-0.09807">
        <ele>423.6</ele>
        <time>2013-10-24T16:05:46Z</time>
      </trkpt>
      <trkpt lat="43.01144" lon="-0.09815">
        <ele>424.56</ele>
        <time>2013-10-24T16:05:54Z</time>
      </trkpt>
      <trkpt lat="43.01087" lon="-0.09821">
        <ele>425.52</ele>
        <time>2013-10-24T16:06:11Z</time>
      </trkpt>
      <trkpt lat="43.01048" lon="-0.09827">
        <ele>426.48</ele>
        <time>2013-10-24T16:06:22Z</time>
      </trkpt>
      <trkpt lat="43.00989" lon="-0.09826">
        <ele>428.4</ele>
        <time>2013-10-24T16:06:39Z</time>
      </trkpt>
      <trkpt lat="43.0095" lon="-0.09829">
        <ele>429.85</ele>
        <time>2013-10-24T16:06:50Z</time>
      </trkpt>
      <trkpt lat="43.00897" lon="-0.09831">
        <ele>431.29</ele>
        <time>2013-10-24T16:07:06Z</time>
      </trkpt>
      <trkpt lat="43.00878" lon="-0.09833">
        <ele>431.77</ele>
        <time>2013-10-24T16:07:14Z</time>
      </trkpt>
      <trkpt lat="43.00884" lon="-0.09847">
        <ele>433.69</ele>
        <time>2013-10-24T16:07:22Z</time>
      </trkpt>
      <trkpt lat="43.00891" lon="-0.09851">
        <ele>435.13</ele>
        <time>2013-10-24T16:07:28Z</time>
      </trkpt>
      <trkpt lat="43.0088" lon="-0.09851">
        <ele>436.1</ele>
        <time>2013-10-24T16:07:36Z</time>
      </trkpt>
      <trkpt lat="43.00872" lon="-0.09852">
        <ele>437.06</ele>
        <time>2013-10-24T16:07:41Z</time>
      </trkpt>
      <trkpt lat="43.0087" lon="-0.09855">
        <ele>438.02</ele>
        <time>2013-10-24T16:07:44Z</time>
      </trkpt>
      <trkpt lat="43.00872" lon="-0.09858">
        <ele>438.5</ele>
        <time>2013-10-24T16:07:47Z</time>
      </trkpt>
      <trkpt lat="43.00877" lon="-0.09858">
        <ele>439.46</ele>
        <time>2013-10-24T16:07:51Z</time>
      </trkpt>
      <trkpt lat="43.00879" lon="-0.09863">
        <ele>439.94</ele>
        <time>2013-10-24T16:07:55Z</time>
      </trkpt>
      <trkpt lat="43.00876" lon="-0.09862">
        <ele>440.42</ele>
        <time>2013-10-24T16:07:58Z</time>
      </trkpt>
      <trkpt lat="43.00873" lon="-0.09863">
        <ele>441.38</ele>
        <time>2013-10-24T16:08:01Z</time>
      </trkpt>
      <trkpt lat="43.00872" lon="-0.09867">
        <ele>441.38</ele>
        <time>2013-10-24T16:08:04Z</time>
      </trkpt>
      <trkpt lat="43.00873" lon="-0.09867">
        <ele>441.86</ele>
        <time>2013-10-24T16:08:06Z</time>
      </trkpt>
      <trkpt lat="43.0088" lon="-0.09866">
        <ele>442.82</ele>
        <time>2013-10-24T16:08:13Z</time>
      </trkpt>
      <trkpt lat="43.0088" lon="-0.09868">
        <ele>443.31</ele>
        <time>2013-10-24T16:08:16Z</time>
      </trkpt>
      <trkpt lat="43.00866" lon="-0.09874">
        <ele>445.71</ele>
        <time>2013-10-24T16:08:29Z</time>
      </trkpt>
      <trkpt lat="43.0084" lon="-0.09878">
        <ele>447.15</ele>
        <time>2013-10-24T16:08:44Z</time>
      </trkpt>
      <trkpt lat="43.00818" lon="-0.09895">
        <ele>449.07</ele>
        <time>2013-10-24T16:08:58Z</time>
      </trkpt>
      <trkpt lat="43.00801" lon="-0.09928">
        <ele>450.03</ele>
        <time>2013-10-24T16:09:13Z</time>
      </trkpt>
      <trkpt lat="43.00796" lon="-0.09943">
        <ele>450.03</ele>
        <time>2013-10-24T16:09:27Z</time>
      </trkpt>
      <trkpt lat="43.00797" lon="-0.09944">
        <ele>449.55</ele>
        <time>2013-10-24T16:09:56Z</time>
      </trkpt>
      <trkpt lat="43.00797" lon="-0.09944">
        <ele>450.03</ele>
        <time>2013-10-24T16:09:57Z</time>
      </trkpt>
      <trkpt lat="43.00797" lon="-0.09952">
        <ele>450.52</ele>
        <time>2013-10-24T16:10:10Z</time>
      </trkpt>
      <trkpt lat="43.00799" lon="-0.09957">
        <ele>450.52</ele>
        <time>2013-10-24T16:10:18Z</time>
      </trkpt>
      <trkpt lat="43.00805" lon="-0.09958">
        <ele>450.52</ele>
        <time>2013-10-24T16:10:23Z</time>
      </trkpt>
      <trkpt lat="43.00817" lon="-0.09956">
        <ele>451</ele>
        <time>2013-10-24T16:10:32Z</time>
      </trkpt>
      <trkpt lat="43.00827" lon="-0.09957">
        <ele>451</ele>
        <time>2013-10-24T16:10:37Z</time>
      </trkpt>
      <trkpt lat="43.00833" lon="-0.09959">
        <ele>451</ele>
        <time>2013-10-24T16:10:40Z</time>
      </trkpt>
      <trkpt lat="43.00841" lon="-0.09959">
        <ele>451</ele>
        <time>2013-10-24T16:10:44Z</time>
      </trkpt>
      <trkpt lat="43.00855" lon="-0.09957">
        <ele>451.48</ele>
        <time>2013-10-24T16:10:51Z</time>
      </trkpt>
      <trkpt lat="43.00871" lon="-0.09955">
        <ele>452.44</ele>
        <time>2013-10-24T16:11:02Z</time>
      </trkpt>
      <trkpt lat="43.00873" lon="-0.09953">
        <ele>452.44</ele>
        <time>2013-10-24T16:11:05Z</time>
      </trkpt>
      <trkpt lat="43.00878" lon="-0.09953">
        <ele>452.92</ele>
        <time>2013-10-24T16:11:10Z</time>
      </trkpt>
      <trkpt lat="43.00893" lon="-0.0995">
        <ele>452.44</ele>
        <time>2013-10-24T16:11:20Z</time>
      </trkpt>
      <trkpt lat="43.00895" lon="-0.09951">
        <ele>452.44</ele>
        <time>2013-10-24T16:11:23Z</time>
      </trkpt>
      <trkpt lat="43.00893" lon="-0.09953">
        <ele>452.92</ele>
        <time>2013-10-24T16:11:32Z</time>
      </trkpt>
      <trkpt lat="43.00893" lon="-0.09953">
        <ele>452.92</ele>
        <time>2013-10-24T16:11:33Z</time>
      </trkpt>
      <trkpt lat="43.0089" lon="-0.09954">
        <ele>452.44</ele>
        <time>2013-10-24T16:11:39Z</time>
      </trkpt>
      <trkpt lat="43.00899" lon="-0.09952">
        <ele>452.92</ele>
        <time>2013-10-24T16:11:48Z</time>
      </trkpt>
      <trkpt lat="43.00914" lon="-0.0997">
        <ele>452.92</ele>
        <time>2013-10-24T16:11:56Z</time>
      </trkpt>
      <trkpt lat="43.00924" lon="-0.1002">
        <ele>453.4</ele>
        <time>2013-10-24T16:12:09Z</time>
      </trkpt>
      <trkpt lat="43.00929" lon="-0.10033">
        <ele>453.4</ele>
        <time>2013-10-24T16:12:18Z</time>
      </trkpt>
      <trkpt lat="43.00928" lon="-0.10036">
        <ele>453.4</ele>
        <time>2013-10-24T16:12:29Z</time>
      </trkpt>
      <trkpt lat="43.00929" lon="-0.10036">
        <ele>453.88</ele>
        <time>2013-10-24T16:13:03Z</time>
      </trkpt>
      <trkpt lat="43.0093" lon="-0.10036">
        <ele>453.88</ele>
        <time>2013-10-24T16:13:39Z</time>
      </trkpt>
      <trkpt lat="43.0093" lon="-0.10036">
        <ele>454.36</ele>
        <time>2013-10-24T16:14:10Z</time>
      </trkpt>
      <trkpt lat="43.00922" lon="-0.10045">
        <ele>463.01</ele>
        <time>2013-10-24T16:14:35Z</time>
      </trkpt>
      <trkpt lat="43.00922" lon="-0.10046">
        <ele>463.49</ele>
        <time>2013-10-24T16:14:36Z</time>
      </trkpt>
      <trkpt lat="43.00926" lon="-0.10044">
        <ele>463.49</ele>
        <time>2013-10-24T16:14:54Z</time>
      </trkpt>
      <trkpt lat="43.00931" lon="-0.10045">
        <ele>463.01</ele>
        <time>2013-10-24T16:15:08Z</time>
      </trkpt>
      <trkpt lat="43.0093" lon="-0.10045">
        <ele>462.53</ele>
        <time>2013-10-24T16:15:12Z</time>
      </trkpt>
      <trkpt lat="43.0093" lon="-0.10044">
        <ele>455.8</ele>
        <time>2013-10-24T16:15:15Z</time>
      </trkpt>
      <trkpt lat="43.0093" lon="-0.10043">
        <ele>461.57</ele>
        <time>2013-10-24T16:15:16Z</time>
      </trkpt>
      <trkpt lat="43.00929" lon="-0.10037">
        <ele>460.61</ele>
        <time>2013-10-24T16:15:26Z</time>
      </trkpt>
      <trkpt lat="43.00928" lon="-0.10037">
        <ele>460.13</ele>
        <time>2013-10-24T16:15:50Z</time>
      </trkpt>
      <trkpt lat="43.00929" lon="-0.10035">
        <ele>461.57</ele>
        <time>2013-10-24T16:16:14Z</time>
      </trkpt>
      <trkpt lat="43.00929" lon="-0.10036">
        <ele>461.57</ele>
        <time>2013-10-24T16:16:28Z</time>
      </trkpt>
    </trkseg>
  </trk>
</gpx>